     2              OBSERVATION DATA    GPS                 RINEX VERSION / TYPE
ASRINEXO V2.9.7 UX USGS/MENLO_PARK 08-MAY-00 16:35          PGM / RUN BY / DATE
                                                            COMMENT
BIT 2 OF LLI (+4) FLAGS DATA COLLECTED UNDER "AS" CONDITION COMMENT
BIT 2 OF LLI (+4) FLAGS DATA COLLECTED UNDER "AS" CONDITION COMMENT
BIT 2 OF LLI (+4) FLAGS DATA COLLECTED UNDER "AS" CONDITION COMMENT
BIT 2 OF LLI (+4) FLAGS DATA COLLECTED UNDER "AS" CONDITION COMMENT
BIT 2 OF LLI (+4) FLAGS DATA COLLECTED UNDER "AS" CONDITION COMMENT
BIT 2 OF LLI (+4) FLAGS DATA COLLECTED UNDER "AS" CONDITION COMMENT
BIT 2 OF LLI (+4) FLAGS DATA COLLECTED UNDER "AS" CONDITION COMMENT
Original Marker Name: sanh Sand_Hill_1939_1981_USC&GS       COMMENT
Campaign Name: Hector Mine Earthquake                       COMMENT
4-Character Station Name: SANH                              COMMENT
6-Character Antenna Code: DMRCHT                            COMMENT
Vertical Measurement Point: BCR                             COMMENT
Vertical Offset to Rinex Ref. Point: 0.0348                 COMMENT
Radial Measurement Point: ECF                               COMMENT
Radial Offset to Rinex Ref. Point: 0.1897                   COMMENT
Antenna Height from Field Measurement: 0.5870 m             COMMENT
Additional Antenna Identification Info.:                    COMMENT
Turborogue and Ashtech Choke Ring                           COMMENT
Original XYZ: -2336823.9921 -4732611.3643 3570347.6241      COMMENT
New XYZ position is based on association with SCEC monument COMMENT
E1F2G8K4+0012. Position of that monument is believed to be  COMMENT
valid to within 1 m horizontally; vertical accuracy         COMMENT
should be no worse than 3-times this value.                 COMMENT
                                                            COMMENT
Revised Rinex header created by UCSD GPS archive for        COMMENT
GSAC on 16-Jun-2000 (2000:168) 03:29:39 GMT                 COMMENT
For assistance contact dagnew@ucsd.edu                      COMMENT
or anderson@python.ucsd.edu                                 COMMENT
                                                            COMMENT
SAND HILL 1939 1981                                         MARKER NAME
GDH US GEOLOGICAL SURVEY                                    OBSERVER / AGENCY
579 ASHTECH Z-XII3 CC00                                     REC # / TYPE / VERS
705 DORNE-MARGOL. TYPE T                                    ANT # / TYPE
 -2336820.0038 -4732586.6672  3570330.0290                  APPROX POSITION XYZ
        0.5207        0.0000        0.0000                  ANTENNA: DELTA H/E/N
     1     1     0                                          WAVELENGTH FACT L1/2
     5    C1    L1    L2    P1    P2                        # / TYPES OF OBSERV
    30                                                      INTERVAL
  2000     5     6     0     1    0.000000                  TIME OF FIRST OBS
  2000     5     6    17    23    0.000000                  TIME OF LAST OBS
                                                            END OF HEADER
 00  5  6  0  1  0.0000000  0  8 03 26 17 29 23 06 21 22
  22653731.407   -17193104.330 8 -13101962.25846  22653731.228    22653740.0284
  23098117.988   -13230581.919 8  -9168204.82446  23098118.135    23098125.8174
  21035019.475   -26422836.473 9 -20575234.13147  21035018.939    21035025.9964
  22882819.643   -13580387.364 8 -10280219.24845  22882819.544    22882832.3244
  20831803.719   -24569858.758 9 -19097281.85047  20831803.283    20831809.8644
  23131111.799   -14703944.277 8 -11233948.02546  23131111.724    23131123.1804
  22150040.641   -19183009.826 8 -12526398.42447  22150040.297    22150049.0764
  24743578.123    -4809180.123 7  -3512858.84145  24743577.248    24743593.8254
 00  5  6  0  1 30.0000000  0  8 03 26 17 29 23 06 21 22
  22639820.178   -17266208.049 8 -13158926.10646  22639819.969    22639828.7504
  23114793.020   -13142954.111 8  -9099923.45246  23114793.192    23114800.9034
  21040029.068   -26396510.962 9 -20554720.75147  21040028.522    21040035.5694
  22863535.152   -13681726.545 8 -10359184.44846  22863535.025    22863547.6994
  20835229.251   -24551857.405 9 -19083254.81347  20835228.811    20835235.4044
  23151421.409   -14597217.139 8 -11150784.24545  23151421.365    23151432.8824
  22141004.120   -19230496.617 8 -12563401.00947  22141003.772    22141012.5184
  24754615.132    -4751180.890 7  -3467664.85445  24754614.336    24754630.8874
 00  5  6  0  2  0.0000000  0  8 03 26 17 29 23 06 21 22
  22625984.985   -17338912.030 8 -13215578.47246  22625984.807    22625993.5464
  23131538.951   -13054953.901 8  -9031351.89045  23131539.118    23131546.8214
  21045091.893   -26369905.532 9 -20533989.25647  21045091.366    21045098.4074
  22844286.963   -13782874.859 8 -10438000.91746  22844286.880    22844299.4614
  20838701.999   -24533607.869 9 -19069034.38847  20838701.567    20838708.1484
  23171767.247   -14490300.055 8 -11067472.43945  23171767.209    23171778.7914
  22132010.578   -19277757.626 8 -12600227.66147  22132010.228    22132018.9404
  24765689.457    -4692985.611 7  -3422318.09745  24765688.680    24765705.3174
 00  5  6  0  2 30.0000000  0  8 03 26 17 29 23 06 21 22
  22612226.779   -17411211.634 8 -13271915.73946  22612226.602    22612235.3244
  23148355.626   -12966581.797 8  -8962490.55345  23148355.737    23148363.4944
  21050208.575   -26343017.220 9 -20513037.33147  21050208.054    21050215.0944
  22825076.015   -13883827.424 8 -10516664.87746  22825075.949    22825088.3924
  20842222.165   -24515109.323 9 -19054619.92847  20842221.730    20842228.2974
  23192149.114   -14383193.363 8 -10984012.89845  23192149.039    23192160.7084
  22123060.476   -19324790.400 8 -12636876.46347  22123060.134    22123068.8004
  24776801.000    -4634595.041 7  -3376819.16645  24776800.098    24776816.8884
 00  5  6  0  3  0.0000000  0  8 03 26 17 29 23 06 21 22
  22598546.018   -17483104.286 8 -13327935.90546  22598545.782    22598554.5344
  23165242.489   -12877840.956 8  -8893341.89145  23165242.526    23165250.3864
  21055379.156   -26315845.552 9 -20491864.61347  21055378.635    21055385.6764
  22805902.805   -13984581.623 8 -10595174.25746  22805902.713    22805915.0494
  20845789.397   -24496363.295 9 -19040012.62447  20845788.971    20845795.5494
  23212566.607   -14275899.542 8 -10900407.53545  23212566.534    23212578.3224
  22114153.643   -19371595.548 8 -12673347.89847  22114153.300    22114161.9414
  24787949.141    -4576012.087 7  -3331170.33845  24787948.300    24787965.0324
 00  5  6  0  3 30.0000000  0  8 03 26 17 29 23 06 21 22
  22584943.053   -17554588.100 8 -13383637.49346  22584942.829    22584951.5444
  23182198.989   -12788734.075 8  -8823908.00445  23182199.088    23182206.9094
  21060603.847   -26288389.773 9 -20470470.50547  21060603.308    21060610.3704
  22786767.817   -14085135.182 8 -10673527.30846  22786767.740    22786779.9454
  20849403.458   -24477371.249 9 -19025213.61547  20849403.039    20849409.6074
  23233019.194   -14168421.336 8 -10816658.48945  23233019.085    23233030.9244
  22105290.081   -19418173.595 8 -12709642.37547  22105289.707    22105298.3434
  24799133.370    -4517239.290 7  -3285373.58445  24799132.637    24799149.4034
 00  5  6  0  4  0.0000000  0  8 03 26 17 29 23 06 21 22
  22571418.465   -17625659.962 8 -13439018.08946  22571418.252    22571426.9084
  23199224.667   -12699263.591 8  -8754190.77945  23199224.751    23199232.5784
  21065882.798   -26260648.709 9 -20448854.10047  21065882.253    21065889.3044
  22767671.617   -14185484.883 8 -10751721.51946  22767671.599    22767683.6534
  20853064.160   -24458134.037 9 -19010223.56947  20853063.725    20853070.3144
  23253506.489   -14060760.640 8 -10732767.27345  23253506.392    23253518.2444
  22096469.716   -19464524.477 8 -12745759.84147  22096469.343    22096477.9524
  24810353.407    -4458278.585 7  -3239430.41445  24810352.680    24810369.3964
 00  5  6  0  4 30.0000000  0  8 03 26 17 29 23 06 21 22
  22557972.484   -17696318.806 8 -13494076.84046  22557972.231    22557980.8644
  23216318.742   -12609433.739 8  -8684193.53445  23216318.886    23216326.6834
  21071215.891   -26232623.186 9 -20427016.04547  21071215.321    21071222.3924
  22748614.377   -14285629.923 8 -10829756.24946  22748614.323    22748626.3284
  20856770.978   -24438654.571 9 -18995044.75647  20856770.538    20856777.1254
  23274027.825   -13952921.386 8 -10648736.91545  23274027.775    23274039.6534
  22087692.225   -19510650.185 8 -12781701.84947  22087691.850    22087700.4444
  24821608.335    -4399134.422 7  -3193344.30145  24821607.548    24821624.3364
 00  5  6  0  5  0.0000000  0  8 03 26 17 29 23 06 21 22
  22544605.560   -17766562.144 8 -13548811.83446  22544605.275    22544613.9364
  23233480.749   -12519246.808 8  -8613918.03745  23233480.905    23233488.6944
  21076603.368   -26204311.738 9 -20404955.18847  21076602.821    21076609.8694
  22729596.702   -14385567.034 8 -10907628.96646  22729596.628    22729608.5604
  20860523.727   -24418933.572 9 -18979677.73347  20860523.280    20860529.8904
  23294582.666   -13844905.702 8 -10564569.05945  23294582.636    23294594.5764
  22078957.636   -19556550.229 8 -12817468.01647  22078957.266    22078965.8364
  24832897.703    -4339809.383 7  -3147117.23945  24832897.033    24832913.7844
 00  5  6  0  5 30.0000000  0  8 03 26 17 29 23 06 21 22
  22531318.156   -17836387.479 8 -13603221.11346  22531317.894    22531326.5134
  23250710.199   -12428705.537 8  -8543366.43845  23250710.358    23250718.1694
  21082045.421   -26175713.626 9 -20382670.95447  21082044.864    21082051.9384
  22710619.099   -14485293.471 8 -10985337.51346  22710619.056    22710630.8684
  20864322.234   -24398972.242 9 -18964123.43347  20864321.801    20864328.3984
  23315170.634   -13736716.015 8 -10480265.62845  23315170.583    23315182.5464
  22070266.050   -19602224.543 8 -12853058.29547  22070265.663    22070274.2284
  24844220.952    -4280306.103 7  -3100751.29045  24844220.214    24844237.1204
 00  5  6  0  6  0.0000000  0  8 03 26 17 29 23 06 21 22
  22518111.005   -17905791.093 8 -13657301.75946  22518110.766    22518119.3624
  23268006.802   -12337811.538 8  -8472539.99345  23268006.924    23268014.7394
  21087542.346   -26146827.141 9 -20360162.02247  21087541.789    21087548.8624
  22691682.270   -14584805.603 8 -11062879.09946  22691682.236    22691693.9824
  20868166.476   -24378770.734 9 -18948381.98747  20868166.029    20868172.6104
  23335791.503   -13628353.620 8 -10395827.63245  23335791.428    23335803.4094
  22061617.455   -19647672.766 8 -12888472.41047  22061617.070    22061625.6124
  24855577.866    -4220625.855 7  -3054247.46545  24855577.132    24855594.0064
 00  5  6  0  6 30.0000000  0  8 03 26 17 29 23 06 21 22
  22504984.253   -17974772.230 8 -13711053.21546  22504984.034    22504992.6404
  23285369.644   -12246569.283 8  -8401442.17245  23285369.754    23285377.5914
  21093094.014   -26117653.015 9 -20337428.95547  21093093.465    21093100.5324
  22672786.442   -14684102.545 8 -11140252.99046  22672786.377    22672798.0634
  20872055.793   -24358332.109 9 -18932455.77147  20872055.347    20872061.9204
  23356444.431   -13519822.650 8 -10311258.28545  23356444.360    23356456.3454
  22053011.467   -19692897.146 8 -12923712.09547  22053011.088    22053019.6124
  24866967.762    -4160772.757 7  -3007608.92745  24866967.036    24866983.8964
 00  5  6  0  7  0.0000000  0  8 03 26 17 29 23 06 21 22
  22491938.373   -18043328.400 8 -13764473.52446  22491938.155    22491946.7464
  23302798.297   -12154981.225 8  -8330074.89545  23302798.478    23302806.2314
  21098700.560   -26088190.422 9 -20314471.10247  21098700.024    21098707.0744
  22653932.067   -14783181.453 8 -11217456.99846  22653932.040    22653943.5924
  20875990.041   -24337657.371 9 -18916345.57147  20875989.603    20875996.1824
  23377128.988   -13411125.481 8 -10226559.41645  23377128.930    23377141.0454
  22044448.126   -19737897.337 8 -12958777.09047  22044447.756    22044456.2504
  24878389.968    -4100749.623 8  -2960837.91945  24878389.309    24878406.2394
 00  5  6  0  7 30.0000000  0  8 03 26 17 29 09 23 06 21
  22478974.505   -18111453.767 8 -13817558.14546  22478974.290    22478982.8574
  23320292.898   -12063046.617 8  -8258437.58945  23320293.027    23320300.8214
  21104362.858   -26058434.897 9 -20291284.99947  21104362.314    21104369.3674
  22635120.364   -14882036.145 8 -11294486.28646  22635120.273    22635131.7974
  24466502.921    -6882386.935 7  -5349638.48745  24466502.723    24466514.4734
  20879969.657   -24316744.293 9 -18900049.64947  20879969.208    20879975.7994
  23397845.385   -13302261.082 8 -10141730.24345  23397845.288    23397857.4824
  22035928.044   -19782670.383 8 -12993665.09147  22035927.685    22035936.1554
 00  5  6  0  8  0.0000000  0  8 03 26 17 29 09 23 06 21
  22466092.625   -18179148.012 8 -13870306.82346  22466092.418    22466100.9534
  23337852.453   -11970770.697 8  -8186534.31945  23337852.631    23337860.4324
  21110080.635   -26028387.946 9 -20267871.79547  21110080.106    21110087.1454
  22616351.443   -14980666.231 8 -11371340.57446  22616351.356    22616362.7964
  24454753.590    -6944128.961 7  -5397749.00945  24454753.386    24454765.2414
  20883993.934   -24295596.571 9 -18883570.88747  20883993.492    20884000.0594
  23418592.719   -13193234.106 8 -10056774.40245  23418592.685    23418604.8864
  22027450.786   -19827218.327 8 -13028377.68747  22027450.424    22027458.8604
 00  5  6  0  8 30.0000000  0  8 03 26 17 29 09 23 06 21
  22453292.617   -18246412.172 8 -13922720.37546  22453292.419    22453300.9144
  23355475.903   -11878159.094 8  -8114369.48045  23355476.030    23355483.8194
  21115853.380   -25998051.973 9 -20244233.38847  21115852.839    21115859.9054
  22597625.084   -15079072.412 8 -11448020.39946  22597625.020    22597636.3464
  24443045.549    -7005654.673 8  -5445690.99545  24443045.442    24443057.0614
  20888062.025   -24274218.508 9 -18866912.64347  20888061.576    20888068.1484
  23439369.896   -13084050.438 8  -9971696.47545  23439369.821    23439382.0494
  22019015.735   -19871544.359 8 -13062917.37047  22019015.373    22019023.7744
 00  5  6  0  9  0.0000000  0  8 03 26 17 29 09 23 06 21
  22440574.817   -18313244.354 8 -13974797.31246  22440574.614    22440583.1214
  23373162.441   -11785215.724 8  -8041946.12045  23373162.606    23373170.4254
  21121681.100   -25967427.117 9 -20220369.87847  21121680.565    21121687.6164
  22578941.685   -15177252.972 8 -11524524.41946  22578941.624    22578952.8804
  24431379.045    -7066961.715 7  -5493462.54945  24431378.949    24431390.4664
  20892173.542   -24252612.356 9 -18850076.66347  20892173.100    20892179.6644
  23460176.232   -12974713.419 8  -9886499.03945  23460176.148    23460188.3964
  22010622.594   -19915650.218 8 -13097285.48647  22010622.224    22010630.6244
 00  5  6  0  9 30.0000000  0  8 03 26 17 29 09 23 06 21
  22427940.224   -18379639.157 8 -14026533.43746  22427940.031    22427948.5124
  23390912.311   -11691939.663 7  -7969263.52645  23390912.418    23390920.2624
  21127564.562   -25936509.401 9 -20196278.16047  21127564.032    21127571.0824
  22560302.406   -15275201.689 8 -11600847.78646  22560302.398    22560313.5434
  24419755.480    -7128043.433 7  -5541058.53245  24419755.365    24419766.8924
  20896328.839   -24230775.999 9 -18833061.30647  20896328.403    20896334.9494
  23481011.963   -12865221.827 8  -9801181.17245  23481011.893    23481024.1514
  22002271.994   -19959532.545 8 -13131479.42447  22002271.634    22002280.0044
 00  5  6  0 10  0.0000000  0  8 03 26 17 29 09 23 06 21
  22415388.951   -18445596.235 8 -14077928.48446  22415388.749    22415397.1874
  23408724.581   -11598335.589 7  -7896325.33045  23408724.717    23408732.5594
  21133503.601   -25905299.632 9 -20171958.86447  21133503.060    21133510.1004
  22541707.443   -15372917.703 8 -11676989.83046  22541707.441    22541718.5334
  24408175.066    -7188898.446 7  -5588477.84445  24408174.893    24408186.4894
  20900527.469   -24208712.161 9 -18815868.69047  20900527.026    20900533.5754
  23501876.299   -12755579.971 8  -9715746.20345  23501876.279    23501888.4974
  21993963.450   -20003193.919 8 -13165501.18447  21993963.086    21993971.4344
 00  5  6  0 10 30.0000000  0  8 03 26 17 29 09 23 06 21
  22402921.568   -18511112.497 8 -14128980.03846  22402921.370    22402929.7694
  23426598.897   -11504405.606 8  -7823133.18845  23426599.003    23426606.9084
  21139498.450   -25873796.457 9 -20147410.93547  21139497.910    21139504.9564
  22523157.264   -15470398.167 8 -11752948.33046  22523157.243    22523168.2684
  24396638.462    -7249523.069 7  -5635717.62145  24396638.379    24396649.7854
  20904769.181   -24186421.767 9 -18798499.53647  20904768.720    20904775.2644
  23522768.879   -12645789.739 8  -9630195.61845  23522768.836    23522781.1394
  21985697.061   -20046633.628 8 -13199350.22447  21985696.679    21985705.0264
 00  5  6  0 11  0.0000000  0  8 03 26 17 29 09 23 06 21
  22390538.649   -18576184.913 8 -14179685.74046  22390538.413    22390546.8204
  23444534.760   -11410152.015 8  -7749688.88445  23444534.876    23444542.8134
  21145549.417   -25841998.536 9 -20122633.34147  21145548.861    21145555.9244
  22504652.594   -15567639.689 8 -11828720.64246  22504652.624    22504663.5254
  24385146.372    -7309913.532 8  -5682774.95645  24385146.325    24385157.7214
  20909053.858   -24163905.532 9 -18780954.40247  20909053.404    20909059.9464
  23543689.329   -12535853.068 8  -9544530.92945  23543689.303    23543701.5784
  21977472.903   -20089851.579 8 -13233026.46347  21977472.533    21977480.8694
 00  5  6  0 11 30.0000000  0  8 03 26 17 29 09 23 06 21
  22378240.324   -18640812.834 8 -14230045.08346  22378240.077    22378248.4774
  23462531.401   -11315579.412 7  -7675995.99145  23462531.487    23462539.4254
  21151656.239   -25809906.889 9 -20097626.86547  21151655.693    21151662.7684
  22486193.473   -15664641.650 8 -11904306.29246  22486193.503    22486204.3674
  24373699.145    -7370068.441 7  -5729648.73745  24373699.000    24373710.4364
  20913380.963   -24141166.414 9 -18763235.59147  20913380.498    20913387.0354
  23564636.816   -12425774.174 8  -9458755.40645  23564636.751    23564649.2184
  21969290.481   -20132850.049 8 -13266531.68147  21969290.117    21969298.4114
 00  5  6  0 12  0.0000000  0  8 03 26 17 29 09 23 06 21
  22366027.240   -18704992.559 8 -14280055.19446  22366027.002    22366035.3744
  23480588.459   -11220688.892 7  -7602055.38445  23480588.607    23480596.5624
  21157819.429   -25777519.249 9 -20072389.75547  21157818.887    21157825.9514
  22467780.815   -15761399.731 8 -11979701.91246  22467780.839    22467791.6314
  24362297.708    -7429983.008 7  -5776335.26345  24362297.563    24362308.9274
  20917750.504   -24118204.132 9 -18745342.89547  20917750.043    20917756.5804
  23585611.205   -12315553.894 8  -9372869.72745  23585611.151    23585623.7274
  21961150.128   -20175627.675 8 -13299864.81547  21961149.753    21961158.0244
 00  5  6  0 12 30.0000000  0  8 03 26 17 29 09 23 06 21
  22353899.975   -18768721.551 8 -14329714.07846  22353899.737    22353908.0994
  23498705.550   -11125483.058 8  -7527869.07845  23498705.704    23498713.7014
  21164039.100   -25744834.762 9 -20046921.32847  21164038.561    21164045.6114
  22449415.034   -15857911.234 8 -12054905.38346  22449415.044    22449425.7754
  24350942.586    -7489653.894 7  -5822831.90345  24350942.393    24350953.8524
  20922162.323   -24095019.832 9 -18727277.18947  20922161.859    20922168.4104
  23606612.115   -12205194.496 8  -9286875.64345  23606612.092    23606624.6924
  21953051.822   -20218184.126 8 -13333025.60147  21953051.459    21953059.7184
 00  5  6  0 13  0.0000000  0  8 03 26 17 29 09 23 06 21
  22341858.141   -18832001.508 8 -14379023.06646  22341857.894    22341866.2754
  23516881.410   -11029968.554 8  -7453442.23745  23516881.561    23516889.5884
  21170314.644   -25711856.470 9 -20021223.96647  21170314.096    21170321.1634
  22431096.014   -15954177.194 8 -12129917.53346  22431096.026    22431106.6504
  24339633.728    -7549081.838 7  -5869139.21945  24339633.443    24339644.8004
  20926615.460   -24071618.400 9 -18709042.29447  20926615.006    20926621.5474
  23627638.250   -12094702.382 8  -9200778.15245  23627638.206    23627650.8604
  21944994.781   -20260523.876 8 -13366017.53247  21944994.407    21945002.6554
 00  5  6  0 13 30.0000000  0  8 03 26 17 29 09 23 06 21
  22329902.641   -18894827.628 8 -14427978.40946  22329902.411    22329910.7824
  23535115.980   -10934145.475 8  -7378774.95945  23535116.109    23535124.1834
  21176646.765   -25678580.964 9 -19995295.00647  21176646.213    21176653.3004
  22412824.643   -16050192.712 8 -12204734.53846  22412824.705    22412835.2154
  24328372.089    -7608261.308 7  -5915252.92445  24328371.929    24328383.2084
  20931110.152   -24047998.571 9 -18690637.21447  20931109.684    20931116.2334
  23648689.695   -11984077.318 8  -9114577.04645  23648689.632    23648702.3604
  21936979.359   -20302644.861 8 -13398838.99147  21936978.995    21936987.2114
 00  5  6  0 14  0.0000000  0  8 03 26 17 29 09 23 06 21
  22318034.182   -18957196.475 8 -14476577.44246  22318033.957    22318042.3004
  23553408.875   -10838015.880 7  -7303868.83345  23553409.044    23553417.0584
  21183035.762   -25645006.545 9 -19969133.14147  21183035.220    21183042.3034
  22394601.609   -16145954.130 8 -12279353.53446  22394601.650    22394612.0904
  24317158.598    -7667187.921 7  -5961169.58845  24317158.382    24317169.6584
  20935646.306   -24024160.736 9 -18672062.26347  20935645.844    20935652.3964
  23669766.112   -11873321.060 8  -9028273.72345  23669766.061    23669778.7924
  21929005.744   -20344546.131 8 -13431489.24747  21929005.366    21929013.5734
 00  5  6  0 14 30.0000000  0  8 03 26 17 29 09 23 06 21
  22306252.947   -19019106.967 8 -14524819.32346  22306252.743    22306261.0514
  23571759.399   -10741583.444 8  -7228726.72545  23571759.530    23571767.5874
  21189481.541   -25611133.835 9 -19942738.84047  21189480.997    21189488.0754
  22376427.212   -16241460.111 8 -12353773.49346  22376427.263    22376437.6394
  24305993.646    -7725859.577 7  -6006887.58745  24305993.531    24306004.7454
  20940223.518   -24000107.317 9 -18653319.32647  20940223.065    20940229.5974
  23690866.762   -11762437.262 8  -8941871.02745  23690866.713    23690879.4484
  21921073.610   -20386229.545 8 -13463969.73947  21921073.237    21921081.4244
 00  5  6  0 15  0.0000000  0  8 03 26 17 29 09 23 06 21
  22294559.132   -19080557.942 8 -14572703.13246  22294558.948    22294567.2264
  23590166.875   -10644851.684 8  -7153351.39445  23590167.097    23590175.0984
  21195984.104   -25576962.701 9 -19916112.00347  21195983.556    21195990.6584
  22358301.740   -16336709.003 8 -12427993.13946  22358301.780    22358312.0934
  24294877.578    -7784273.970 7  -6052405.12345  24294877.387    24294888.5314
  20944841.424   -23975840.054 9 -18634409.75747  20944840.948    20944847.5104
  23711991.164   -11651428.859 8  -8855371.23945  23711991.100    23712003.8764
  21913182.678   -20427696.267 8 -13496281.38947  21913182.300    21913190.4794
 00  5  6  0 15 30.0000000  0  8 03 26 17 29 09 23 06 21
  22282953.353   -19141546.650 8 -14620226.73146  22282953.133    22282961.4194
  23608630.830   -10547823.285 8  -7077744.91245  23608630.995    23608638.9484
  21202543.633   -25542492.183 9 -19889251.87647  21202543.095    21202550.1864
  22340225.796   -16431697.780 8 -12502010.08946  22340225.794    22340236.0594
  24283811.029    -7842428.225 7  -6097719.96545  24283810.879    24283822.1474
  20949499.754   -23951360.176 9 -18615334.51747  20949499.294    20949505.8484
  23733138.817   -11540298.253 8  -8768776.23845  23733138.770    23733151.5394
  21905333.089   -20468945.849 8 -13528423.83347  21905332.704    21905340.8754
 00  5  6  0 16  0.0000000  0  8 03 26 17 29 09 23 06 21
  22271436.396   -19202068.366 8 -14667386.44346  22271436.165    22271444.4294
  23627151.183   -10450498.466 8  -7001907.45345  23627151.354    23627159.3244
  21209160.765   -25507719.000 9 -19862155.91147  21209160.234    21209167.3104
  22322200.261   -16526421.542 8 -12575820.54946  22322200.253    22322210.4624
  24272795.147    -7900316.154 7  -6142827.27345  24272794.934    24272806.1654
  20954198.839   -23926666.333 9 -18596092.54747  20954198.400    20954204.9264
  23754309.701   -11429045.387 8  -8682085.95145  23754309.573    23754322.5344
  21897525.196   -20509976.334 8 -13560395.55547  21897524.809    21897532.9444
 00  5  6  0 16 30.0000000  0  8 03 26 17 29 09 23 06 21
  22260007.978   -19262124.851 8 -14714183.62846  22260007.727    22260015.9834
  23645726.755   -10352883.531 8  -6925843.92345  23645726.914    23645734.8544
  21215834.976   -25472645.895 9 -19834826.24147  21215834.433    21215841.5084
  22304224.919   -16620881.482 8 -12649425.43146  22304224.926    22304235.0584
  24261829.821    -7957938.607 7  -6187727.73045  24261829.635    24261840.7464
  20958937.705   -23901763.387 9 -18576687.64147  20958937.250    20958943.8054
  23775502.734   -11317676.299 8  -8595305.11445  23775502.562    23775515.6194
  21889758.193   -20550791.911 8 -13592199.81447  21889757.786    21889765.9274
 00  5  6  0 17  0.0000000  0  8 03 26 17 29 09 23 06 21
  22248668.472   -19321714.262 8 -14760616.86246  22248668.208    22248676.4444
  23664356.819   -10254982.114 8  -6849557.16045  23664357.017    23664364.9094
  21222566.206   -25437273.087 9 -19807263.02847  21222565.673    21222572.7524
  22286300.184   -16715075.491 8 -12722823.09446  22286300.186    22286310.2444
  24250915.499    -8015293.056 7  -6232419.34845  24250915.511    24250926.4044
  20963715.956   -23876653.372 9 -18557121.38447  20963715.502    20963722.0504
  23796717.257   -11206194.333 8  -8508436.33445  23796717.115    23796730.2984
  21882031.869   -20591393.620 8 -13623837.41647  21882031.485    21882039.5754
 00  5  6  0 17 30.0000000  0  8 03 26 17 29 09 23 06 21
  22237418.724   -19380831.665 8 -14806682.30146  22237418.475    22237426.6814
  23683041.433   -10156793.980 8  -6773046.98745  23683041.671    23683049.4834
  21229355.126   -25401597.095 9 -19779463.57947  21229354.604    21229361.6604
  22268427.060   -16808998.369 8 -12796009.49646  22268427.079    22268437.0644
  24240053.312    -8072373.454 7  -6276897.40245  24240053.231    24240064.2174
  20968533.963   -23851334.496 9 -18537392.38447  20968533.516    20968540.0484
  23817953.359   -11094598.883 8  -8421479.12445  23817953.164    23817966.4114
  21874346.817   -20631778.559 8 -13655306.11647  21874346.415    21874354.4934
 00  5  6  0 18  0.0000000  0  8 03 26 17 29 09 23 06 21
  22226258.966   -19439476.205 8 -14852379.26746  22226258.702    22226266.9194
  23701779.838   -10058323.317 8  -6696316.66845  23701780.039    23701787.8794
  21236201.697   -25365618.283 9 -19751428.15947  21236201.154    21236208.2334
  22250605.777   -16902648.825 8 -12868983.62246  22250605.757    22250615.6904
  24229243.656    -8129177.866 7  -6321160.43645  24229243.574    24229254.5804
  20973391.283   -23825809.103 9 -18517502.45647  20973390.834    20973397.3874
  23839210.333   -10982893.777 8  -8334436.45245  23839210.197    23839223.4364
  21866702.571   -20671948.995 8 -13686607.66547  21866702.167    21866710.2034
 00  5  6  0 18 30.0000000  0  8 03 26 17 29 09 23 06 21
  22215189.427   -19497646.828 8 -14897706.95746  22215189.185    22215197.3594
  23720571.279    -9959573.852 8  -6619369.10445  23720571.500    23720579.3464
  21243105.794   -25329337.003 9 -19723157.06047  21243105.264    21243112.3504
  22232836.588   -16996025.459 8 -12941744.38846  22232836.568    22232846.4294
  24218486.914    -8185704.244 7  -6365206.81045  24218486.691    24218497.7474
  20978287.444   -23800079.585 9 -18497453.47547  20978287.004    20978293.5384
  23860487.505   -10871082.525 8  -8247311.07345  23860487.388    23860500.7404
  21859098.909   -20711906.062 8 -13717742.96347  21859098.531    21859106.5504
 00  5  6  0 19  0.0000000  0  8 03 26 17 29 09 23 06 21
  22204210.708   -19555339.998 8 -14942662.59646  22204210.465    22204218.6364
  23739415.520    -9860546.867 8  -6542205.28445  23739415.665    23739423.6254
  21250067.880   -25292751.068 9 -19694648.55447  21250067.344    21250074.4354
  22215120.295   -17089124.107 8 -13014288.53946  22215120.273    22215130.0794
  24207783.987    -8241948.004 7  -6409032.97045  24207783.770    24207794.6604
  20983222.474   -23774145.703 9 -18477245.24647  20983222.038    20983228.5684
  23881784.652   -10759166.257 8  -8160103.88445  23881784.534    23881797.9774
  21851536.149   -20751648.303 8 -13748710.85947  21851535.767    21851543.7584
 00  5  6  0 19 30.0000000  0  8 03 26 17 29 09 23 06 21
  22193322.905   -19612555.615 8 -14987246.12546  22193322.662    22193330.8284
  23758311.675    -9761247.193 8  -6464828.97645  23758311.773    23758319.7564
  21257087.672   -25255861.898 9 -19665903.76447  21257087.135    21257094.2554
  22197457.039   -17181944.301 8 -13086615.72746  22197456.991    22197466.7234
  24197134.949    -8297908.361 7  -6452638.29845  24197134.713    24197145.6724
  20988195.776   -23748010.715 9 -18456880.31747  20988195.345    20988201.8794
  23903100.929   -10647149.374 8  -8072818.30545  23903100.857    23903114.3524
  21844013.806   -20791178.207 8 -13779513.30047  21844013.434    21844021.4054
 00  5  6  0 20  0.0000000  0  8 03 26 17 29 09 23 06 21
  22182526.680   -19669289.812 8 -15031454.51146  22182526.437    22182534.6054
  23777259.575    -9661675.773 8  -6387240.92345  23777259.606    23777267.6404
  21264165.610   -25218667.100 9 -19636920.82347  21264165.075    21264172.1724
  22179847.463   -17274482.181 8 -13158722.92046  22179847.402    22179857.0694
  24186540.837    -8353580.315 7  -6496018.89645  24186540.417    24186551.4694
  20993207.482   -23721674.049 9 -18436358.23747  20993207.035    20993213.5744
  23924436.331   -10535032.417 7  -7985454.73845  23924436.218    23924449.7214
  21836532.018   -20830494.774 8 -13810149.50547  21836531.644    21836539.5904
 00  5  6  0 20 30.0000000  0  8 03 26 17 29 09 23 06 21
  22171822.320   -19725541.326 8 -15075286.79846  22171822.087    22171830.2274
  23796258.552    -9561835.936 8  -6309443.71445  23796258.583    23796266.5544
  21271301.719   -25181166.749 9 -19607699.79147  21271301.194    21271308.2904
  22162292.113   -17366735.339 8 -13230608.28046  22162292.035    22162301.6384
  24176002.058    -8408961.399 7  -6539172.84545  24176001.652    24176012.7774
  20998257.209   -23695137.425 9 -18415680.35447  20998256.779    20998263.2984
  23945790.101   -10422818.535 7  -7898015.66245  23945789.944    23945803.5674
  21829090.721   -20869598.848 8 -13840620.14547  21829090.335    21829098.2614
 00  5  6  0 21  0.0000000  0  8 03 26 17 29 09 23 06 21
  22161210.203   -19781308.100 8 -15118741.36046  22161209.984    22161218.0744
  23815308.007    -9461730.691 8  -6231439.68145  23815308.105    23815316.0504
  21278496.061   -25143360.307 9 -19578240.24047  21278495.514    21278502.6494
  22144791.264   -17458701.830 8 -13302270.24146  22144791.240    22144800.7524
  24165519.196    -8464048.656 7  -6582097.84245  24165518.909    24165529.8324
  21003344.730   -23668402.310 9 -18394847.79747  21003344.307    21003350.8294
  23967161.877   -10310510.371 7  -7810503.11545  23967161.748    23967175.3984
  21821689.750   -20908490.845 8 -13870925.52047  21821689.369    21821697.2904
 00  5  6  0 21 30.0000000  0  8 03 26 17 29 09 23 06 21
  22150690.849   -19836587.331 8 -15161816.01446  22150690.646    22150698.7244
  23834407.500    -9361362.606 8  -6153230.85545  23834407.543    23834415.4804
  21285748.796   -25105246.839 9 -19548541.45547  21285748.273    21285755.3854
  22127345.543   -17550378.685 8 -13373706.53346  22127345.538    22127354.9664
  24155092.895    -8518838.451 7  -6624791.06145  24155092.638    24155103.5624
  21008469.879   -23641469.501 9 -18373861.19347  21008469.449    21008475.9574
  23988551.140   -10198110.055 7  -7722918.73945  23988551.042    23988564.8734
  21814329.131   -20947170.821 9 -13901065.68647  21814328.754    21814336.6454
 00  5  6  0 22  0.0000000  0  8 03 26 17 29 09 23 06 21
  22140264.413   -19891378.344 8 -15204510.25346  22140264.194    22140272.2644
  23853556.304    -9260735.206 8  -6074819.95245  23853556.346    23853564.3064
  21293059.920   -25066826.639 9 -19518603.64647  21293059.382    21293066.5324
  22109955.224   -17641764.436 8 -13444915.98746  22109955.207    22109964.5814
  24144723.681    -8573328.742 7  -6667250.90245  24144723.446    24144734.3574
  21013632.215   -23614341.238 9 -18352722.29147  21013631.776    21013638.2864
  24009957.317   -10085620.950 7  -7635265.12245  24009957.182    24009971.2024
  21807008.585   -20985640.203 8 -13931041.75047  21807008.192    21807016.0614
 00  5  6  0 22 30.0000000  0  8 03 26 17 29 09 23 06 21
  22129930.968   -19945680.630 8 -15246823.66246  22129930.738    22129938.8054
  23872753.592    -9159853.000 8  -5996210.50345  23872753.706    23872761.6144
  21300429.252   -25028100.637 9 -19488427.55747  21300428.690    21300435.8684
  22092620.446   -17732858.307 8 -13515898.00446  22092620.437    22092629.7934
  24134411.631    -8627518.383 7  -6709476.46445  24134411.285    24134422.2874
  21018831.230   -23587020.376 9 -18331433.30447  21018830.776    21018837.2994
  24031379.579    -9973047.235 7  -7547545.66645  24031379.491    24031393.6194
  21799727.721   -21023900.995 8 -13960855.28847  21799727.343    21799735.1944
 00  5  6  0 23  0.0000000  0  8 03 26 17 29 09 23 06 21
  22119691.294   -19999490.236 8 -15288753.16446  22119691.086    22119699.1054
  23891999.260    -9058716.734 8  -5917403.08745  23891999.363    23892007.3554
  21307857.302   -24989066.097 9 -19458011.04547  21307856.748    21307863.9254
  22075342.035   -17823655.944 8 -13586649.19246  22075342.039    22075351.3124
  24124157.787    -8681402.280 7  -6751463.77745  24124157.463    24124168.4404
  21024067.038   -23559506.038 9 -18309993.55847  21024066.582    21024073.1004
  24052817.858    -9860389.389 7  -7459760.64145  24052817.720    24052832.1194
  21792486.950   -21061951.247 8 -13990504.76047  21792486.566    21792494.4244
 00  5  6  0 23 30.0000000  0  8 03 26 17 29 09 23 06 21
  22109545.443   -20052806.668 8 -15330298.38146  22109545.250    22109553.2684
  23911292.400    -8957330.701 7  -5838401.03245  23911292.427    23911300.5884
  21315343.882   -24949723.916 9 -19427354.81547  21315343.315    21315350.5274
  22058120.248   -17914156.124 8 -13657168.60946  22058120.242    22058129.4604
  24113962.299    -8734979.058 7  -6793211.77545  24113962.092    24113972.8894
  21029339.130   -23531800.891 9 -18288405.12847  21029338.692    21029345.2064
  24074271.343    -9747651.368 7  -7371913.15245  24074271.348    24074285.7214
  21785285.762   -21099793.406 8 -14019992.09247  21785285.381    21785293.2124
 00  5  6  0 24  0.0000000  0  8 03 26 17 29 09 23 06 21
  22099494.252   -20105625.964 8 -15371456.22646  22099494.049    22099502.0224
  23930632.919    -8855695.861 7  -5759205.11445  23930632.897    23930641.0774
  21322889.420   -24910071.854 8 -19396457.11847  21322888.851    21322896.0654
  22040955.800   -18004354.957 8 -13727453.20746  22040955.794    22040964.9684
  24103826.270    -8788243.726 7  -6834716.56545  24103825.919    24103836.8544
  21034647.667   -23503904.287 9 -18266667.51247  21034647.227    21034653.7474
  24095740.003    -9634833.700 7  -7284003.58245  24095739.966    24095754.5314
  21778124.509   -21137425.646 8 -14049315.84947  21778124.129    21778131.9344
 00  5  6  0 24 30.0000000  0  8 03 26 17 29 09 23 06 21
  22089537.653   -20157947.935 8 -15412226.53646  22089537.432    22089545.4054
  23950019.972    -8753816.507 7  -5679818.67145  23950020.056    23950028.1264
  21330493.775   -24870110.644 8 -19365318.52447  21330493.227    21330500.4574
  22023848.902   -18094251.437 8 -13797502.21246  22023848.927    22023858.0374
  24093749.882    -8841194.716 7  -6875976.92345  24093749.485    24093760.5404
  21039992.165   -23475818.841 9 -18244782.74247  21039991.717    21039998.2384
  24117223.130    -9521940.394 7  -7196035.07445  24117222.934    24117237.6064
  21771002.819   -21174850.150 8 -14078477.72747  21771002.449    21771010.2324
 00  5  6  0 25  0.0000000  0  9 03 26 17 29 09 23 15 06 21
  22079676.338   -20209769.203 8 -15452606.69846  22079676.109    22079684.0744
  23969453.286    -8651693.867 7  -5600242.64345  23969453.313    23969461.5074
  21338157.357   -24829838.292 8 -19333937.48447  21338156.821    21338164.0474
  22006800.296   -18183841.665 8 -13867312.57946  22006800.320    22006809.3814
  24083734.096    -8893827.394 7  -6916989.24545  24083733.788    24083744.8304
  21045372.657   -23447544.119 9 -18222750.48147  21045372.212    21045378.7194
  24279130.317    -5881547.266 7  -4573155.48645  24279129.529    24279142.5164
  24138720.454    -9408972.503 7  -7108008.49345  24138720.221    24138734.9464
  21763920.910   -21212065.544 8 -14107476.66247  21763920.541    21763928.3034
 00  5  6  0 25 30.0000000  0  9 03 26 17 29 09 23 15 06 21
  22069910.296   -20261089.999 8 -15492596.87946  22069910.079    22069918.0184
  23988931.946    -8549333.067 7  -5520481.05945  23988931.998    23988940.2754
  21345879.853   -24789256.429 9 -19302315.26647  21345879.315    21345886.5254
  21989810.001   -18273125.412 8 -13936884.13846  21989810.032    21989819.0374
  24073778.975    -8946141.505 7  -6957753.33345  24073778.670    24073789.5824
  21050788.484   -23419083.714 9 -18200573.52847  21050788.043    21050794.5514
  24261850.115    -5972354.792 7  -4643914.41845  24261849.321    24261862.3034
  24160230.998    -9295935.060 7  -7019927.71945  24160230.710    24160245.5064
  21756878.199   -21249074.931 8 -14136315.07647  21756877.807    21756885.5784
 00  5  6  0 26  0.0000000  0  9 03 26 17 29 09 23 15 06 21
  22060239.483   -20311910.269 8 -15532197.04046  22060239.274    22060247.1754
  24008455.095    -8446738.334 7  -5440537.19245  24008455.292    24008463.5124
  21353661.029   -24748365.959 8 -19270452.56947  21353660.508    21353667.6954
  21972878.169   -18362102.049 8 -14006216.37846  21972878.173    21972887.1614
  24063884.724    -8998135.419 7  -6998267.90845  24063884.519    24063895.2314
  21056239.139   -23390440.385 9 -18178254.03747  21056238.689    21056245.2024
  24244561.677    -6063205.493 7  -4714707.00245  24244560.810    24244573.9404
  24181754.087    -9182831.825 7  -6931795.68645  24181753.780    24181768.6474
  21749874.326   -21285880.194 8 -14164994.43247  21749873.936    21749881.6974
 00  5  6  0 26 30.0000000  0  9 03 26 17 29 09 23 15 06 21
  22050665.069   -20362224.032 8 -15571402.52146  22050664.882    22050672.7474
  24028023.022    -8343908.212 7  -5360409.90445  24028023.325    24028031.5454
  21361501.856   -24707162.231 8 -19238345.78047  21361501.340    21361508.5164
  21956006.027   -18450764.960 8 -14075304.17346  21956006.014    21956014.9744
  24054052.832    -9049801.864 7  -7038527.31845  24054052.566    24054063.2814
  21061725.123   -23361611.295 9 -18155789.79647  21061724.691    21061731.1944
  24227265.950    -6154094.380 7  -4785529.32645  24227265.054    24227278.0994
  24203289.982    -9069661.043 7  -6843611.01645  24203289.730    24203304.5984
  21742910.060   -21322477.447 8 -14193511.70447  21742909.677    21742917.4204
 00  5  6  0 27  0.0000000  0  9 03 26 17 29 09 23 15 06 21
  22041187.474   -20412028.918 8 -15610211.47346  22041187.294    22041195.1574
  24047635.277    -8240845.444 7  -5280101.33545  24047635.498    24047643.8264
  21369402.442   -24665644.353 8 -19205994.19447  21369401.921    21369409.1044
  21939194.087   -18539111.556 8 -14144145.47646  21939194.052    21939202.9804
  24044283.817    -9101137.852 7  -7078529.23545  24044283.619    24044294.1754
  21067246.251   -23332597.431 9 -18133181.57647  21067245.819    21067252.3054
  24209963.154    -6245020.394 7  -4856380.58645  24209962.372    24209975.3754
  24224838.356    -8956424.902 7  -6755375.38045  24224838.242    24224853.0424
  21735985.259   -21358867.159 8 -14221867.24947  21735984.881    21735992.5894
 00  5  6  0 27 30.0000000  0  9 03 26 17 29 09 23 15 06 21
  22031806.374   -20461326.677 8 -15648625.26846  22031806.178    22031814.0674
  24067290.514    -8137556.572 7  -5199616.57945  24067290.672    24067299.0524
  21377362.213   -24623815.584 8 -19173400.36547  21377361.690    21377368.8764
  21922442.002   -18627143.419 8 -14212741.54446  21922441.960    21922450.8604
  24034577.522    -9152144.228 7  -7118274.30445  24034577.228    24034587.8684
  21072801.642   -23303403.600 9 -18110433.12247  21072801.203    21072807.6844
  24192652.707    -6335986.604 7  -4927263.14645  24192651.965    24192664.9414
  24246397.912    -8843129.783 7  -6667093.79145  24246397.858    24246412.8054
  21729099.250   -21395053.093 8 -14250064.01347  21729098.888    21729106.5684
 00  5  6  0 28  0.0000000  0  9 03 26 17 29 09 23 15 06 21
  22022522.128   -20510115.510 8 -15686642.47847  22022521.935    22022529.8334
  24086988.337    -8034043.996 7  -5118957.48545  24086988.335    24086996.8414
  21385381.271   -24581675.205 8 -19140563.71947  21385380.749    21385387.9464
  21905750.351   -18714857.808 8 -14281090.23146  21905750.315    21905759.1434
  24024934.565    -9202817.834 7  -7157760.07845  24024934.364    24024944.9604
  21078391.086   -23274030.879 9 -18087545.27147  21078390.644    21078397.1324
  24175334.866    -6426991.732 7  -4998176.04445  24175334.155    24175347.0514
  24267968.298    -8729778.110 7  -6578768.14145  24267968.175    24267983.1894
  21722251.883   -21431035.807 8 -14278102.42547  21722251.538    21722259.1954
 00  5  6  0 28 30.0000000  0  9 03 26 17 29 09 23 15 06 21
  22013335.528   -20558391.073 8 -15724259.74747  22013335.316    22013343.1964
  24106728.669    -7930307.875 7  -5038124.21745  24106728.679    24106737.2974
  21393460.298   -24539219.812 8 -19107481.60647  21393459.746    21393466.9604
  21889120.067   -18802249.800 8 -14349187.70346  21889120.048    21889128.8284
  24015356.028    -9253152.779 7  -7196981.98045  24015355.875    24015366.4184
  21084014.883   -23244477.562 9 -18064516.69947  21084014.441    21084020.9304
  24158010.362    -6518032.141 7  -5069116.42145  24158009.488    24158022.3624
  24289549.477    -8616369.468 7  -6490398.11345  24289549.334    24289564.4094
  21715443.636   -21466813.072 8 -14305980.74847  21715443.291    21715450.9384
 00  5  6  0 29  0.0000000  0 10 03 26 17 29 09 23 15 06 21 31
  22004246.199   -20606155.755 8 -15761478.91947  22004245.978    22004253.8604
  24126510.316    -7826354.946 7  -4957122.00745  24126510.384    24126518.9534
  21401598.537   -24496453.054 8 -19074156.86947  21401597.982    21401605.2024
  21872550.794   -18889321.148 8 -14417035.32146  21872550.788    21872559.5184
  24005841.690    -9303150.488 7  -7235941.08645  24005841.582    24005851.9214
  21089672.052   -23214748.911 9 -18041351.50347  21089671.614    21089678.0904
  24140678.518    -6609110.759 7  -5140086.58345  24140677.717    24140690.5924
  24311140.309    -8502910.335 7  -6401988.71745  24311140.067    24311155.3954
  21708673.669   -21502389.341 9 -14333702.45647  21708673.308    21708680.9514
  24498541.924    -6266399.050 7  -4868683.63945  24498541.712    24498552.3594
 00  5  6  0 29 30.0000000  0 10 03 26 17 29 09 23 15 06 21 31
  21995255.116   -20653403.895 8 -15798295.59247  21995254.892    21995262.7774
  24146333.374    -7722184.339 7  -4875950.17945  24146333.531    24146342.0484
  21409796.846   -24453370.718 8 -19040586.23447  21409796.286    21409803.5104
  21856043.741   -18976065.604 8 -14484628.22746  21856043.746    21856052.4204
  23996392.758    -9352804.532 7  -7274632.40945  23996392.673    23996402.9344
  21095363.106   -23184842.164 9 -18018047.54047  21095362.674    21095369.1314
  24123340.335    -6700222.992 7  -5211082.91745  24123339.600    24123352.2494
  24332740.914    -8389399.635 7  -6313539.23945  24332740.684    24332756.1754
  21701942.610   -21537761.052 8 -14361264.76147  21701942.238    21701949.8654
  24481168.407    -6357697.331 7  -4939825.10145  24481168.070    24481178.9194
 00  5  6  0 30  0.0000000  0 10 03 26 17 29 09 23 15 06 21 31
  21986362.360   -20700135.362 8 -15834709.66447  21986362.148    21986370.0164
  24166196.998    -7617800.507 7  -4794612.19545  24166197.090    24166205.6754
  21418054.914   -24409974.345 8 -19006770.90047  21418054.350    21418061.6054
  21839598.912   -19062483.037 8 -14551966.31146  21839598.881    21839607.5074
  23987009.484    -9402113.552 7  -7313054.87845  23987009.309    23987019.6104
  21101087.439   -23154760.541 9 -17994607.31547  21101086.991    21101093.4534
  24105995.483    -6791369.968 7  -5282106.34945  24105994.668    24106007.3644
  24354350.507    -8275841.644 7  -6225052.79445  24354350.383    24354365.7974
  21695249.988   -21572930.674 9 -14388669.60247  21695249.611    21695257.2304
  24463850.030    -6448705.899 7  -5010740.78145  24463849.610    24463860.3804
 00  5  6  0 30 30.0000000  0 10 03 26 17 29 09 23 15 06 21 31
  21977568.488   -20746347.405 8 -15870718.98747  21977568.256    21977576.1214
  24186100.925    -7513205.320 7  -4713109.52445  24186101.000    24186109.4864
  21426373.047   -24366262.194 8 -18972709.50147  21426372.491    21426379.7344
  21823217.011   -19148569.770 8 -14619046.70746  21823216.982    21823225.5604
  23977692.609    -9451073.458 7  -7351205.31045  23977692.360    23977702.7584
  21106845.053   -23124504.114 9 -17971030.87447  21106844.596    21106851.0494
  24088644.418    -6882549.503 7  -5353155.14345  24088643.619    24088656.1914
  24375968.890    -8162237.907 7  -6136530.77645  24375968.707    24375984.2664
  21688595.956   -21607897.646 9 -14415916.53247  21688595.568    21688603.1904
  24446587.464    -6539420.849 7  -5081427.70245  24446587.060    24446597.8714
 00  5  6  0 31  0.0000000  0 10 03 26 17 29 09 23 15 06 21 31
  21968873.905   -20792037.405 8 -15906321.52047  21968873.675    21968881.4994
  24206044.771    -7408400.094 7  -4631443.19245  24206044.874    24206053.3004
  21434751.619   -24322232.532 8 -18938400.69647  21434751.061    21434758.3174
  21806898.657   -19234322.556 8 -14685866.88646  21806898.638    21806907.1564
  23968442.904    -9499680.250 7  -7389080.58445  23968442.703    23968452.9264
  21112635.954   -23094072.663 9 -17947318.05547  21112635.507    21112641.9514
  24071287.625    -6973759.347 7  -5424227.56145  24071286.835    24071299.4744
  24397595.763    -8048589.105 7  -6047973.61545  24397595.595    24397611.3164
  21681980.693   -21642660.973 9 -14443004.78347  21681980.297    21681987.8934
  24429381.505    -6629838.298 7  -5151882.78145  24429381.152    24429392.0204
 00  5  6  0 31 30.0000000  0 10 03 26 17 29 09 23 15 06 21 31
  21960277.937   -20837209.378 8 -15941520.40247  21960277.696    21960285.5034
  24226026.935    -7303393.368 7  -4549619.84645  24226027.050    24226035.3694
  21443189.604   -24277890.622 8 -18903848.57647  21443189.049    21443196.2974
  21790643.255   -19319744.553 8 -14752429.30946  21790643.222    21790651.7144
  23959259.854    -9547936.806 7  -7426682.94445  23959259.730    23959269.8524
  21118458.852   -23063473.113 9 -17923474.24747  21118458.396    21118464.8624
  24053924.121    -7065004.215 7  -5495327.26645  24053923.305    24053935.9684
  24419229.612    -7934903.836 7  -5959388.01845  24419229.519    24419245.2274
  21675402.860   -21677227.348 9 -14469939.55747  21675402.461    21675410.0604
  24412231.623    -6719961.099 7  -5222108.25345  24412231.184    24412242.0904
 00  5  6  0 32  0.0000000  0 10 03 26 17 29 09 23 15 06 21 31
  21951781.735   -20881857.032 8 -15976310.72747  21951781.498    21951789.2994
  24246047.869    -7198183.329 7  -4467638.09445  24246047.960    24246056.4064
  21451687.983   -24233231.339 8 -18869049.15647  21451687.446    21451694.6844
  21774452.055   -19404829.185 8 -14818728.84846  21774452.011    21774460.4974
  23950144.907    -9595835.781 7  -7464006.68545  23950144.730    23950154.8864
  21124314.388   -23032701.933 9 -17899496.70647  21124313.952    21124320.4144
  24036554.997    -7156278.718 7  -5566450.07145  24036554.190    24036566.7584
  24440870.871    -7821179.877 7  -5870772.33645  24440870.657    24440886.5344
  21668863.399   -21711592.176 9 -14496717.28847  21668863.018    21668870.5744
  24395139.195    -6809782.021 7  -5292098.50745  24395138.677    24395149.6554
 00  5  6  0 32 30.0000000  0 10 03 26 17 29 09 23 15 06 21 31
  21943385.902   -20925977.152 8 -16010689.98047  21943385.660    21943393.4344
  24266107.175    -7092771.116 7  -4385498.78145  24266107.353    24266115.7024
  21460247.192   -24188252.474 8 -18834000.71647  21460246.650    21460253.9124
  21758325.791   -19489572.479 8 -14884762.42346  21758325.745    21758334.1764
  23941098.750    -9643372.881 7  -7501048.43545  23941098.593    23941108.7744
  21130202.700   -23001758.604 9 -17875385.02147  21130202.255    21130208.7144
  24019180.845    -7247579.929 7  -5637593.68645  24019180.128    24019192.5964
  24462519.269    -7707418.152 7  -5782127.24745  24462519.109    24462535.1694
  21662362.510   -21745754.404 9 -14523337.14247  21662362.109    21662369.6574
  24378105.035    -6899296.808 7  -5361850.19645  24378104.589    24378115.4944
 00  5  6  0 33  0.0000000  0 10 03 26 17 29 09 23 15 06 21 31
  21935089.506   -20969574.839 8 -16044662.15747  21935089.274    21935097.0294
  24286203.170    -6987166.245 7  -4303209.33745  24286203.252    24286211.8254
  21468865.961   -24142960.589 8 -18798708.36547  21468865.444    21468872.7074
  21742263.548   -19573979.240 8 -14950533.75846  21742263.545    21742271.9234
  23932120.717    -9690551.953 7  -7537811.21545  23932120.488    23932130.6164
  21136122.279   -22970651.012 9 -17851145.34147  21136121.837    21136128.3034
  24001800.406    -7338913.929 7  -5708762.85345  24001799.590    24001812.0614
  24484173.105    -7593627.741 7  -5693459.68545  24484172.879    24484189.0394
  21655898.787   -21779721.227 9 -14549804.74547  21655898.384    21655905.9304
  24361128.303    -6988509.710 7  -5431366.65445  24361127.952    24361138.7524
 00  5  6  0 33 30.0000000  0 10 03 26 17 29 09 23 15 06 21 31
  21926894.369   -21012640.323 8 -16078219.62547  21926894.147    21926901.8944
  24306336.838    -6881363.245 7  -4220765.50345  24306336.893    24306345.4754
  21477545.967   -24097347.113 8 -18763165.43447  21477545.435    21477552.7054
  21726267.426   -19658038.832 8 -15016034.57746  21726267.428    21726275.7684
  23923213.023    -9737362.037 7  -7574286.47545  23923212.765    23923222.7304
  21142074.390   -22939372.395 9 -17826772.39447  21142073.937    21142080.4154
  23984415.531    -7430271.384 7  -5779950.29145  23984414.855    23984427.0604
  24505833.463    -7479803.223 7  -5604765.64145  24505833.413    24505849.5024
  21649473.692   -21813485.227 9 -14576114.29647  21649473.292    21649480.7984
  24344211.084    -7077409.878 7  -5500639.40045  24344210.753    24344221.4914
 00  5  6  0 34  0.0000000  0  9 03 26 17 29 09 23 15 21 31
  21918799.637   -21055178.172 8 -16111365.94947  21918799.421    21918807.1384
  24326506.576    -6775371.015 7  -4138174.18945  24326506.680    24326515.1674
  21486286.069   -24051417.652 8 -18727376.27347  21486285.544    21486292.8304
  21710336.623   -19741755.207 8 -15081267.95646  21710336.617    21710344.9104
  23914374.868    -9783806.361 7  -7610476.71745  23914374.683    23914384.5044
  21148057.691   -22907929.944 9 -17802271.78447  21148057.245    21148063.7124
  23967025.212    -7521657.391 7  -5851159.98445  23967024.565    23967036.7114
  21643085.945   -21847052.792 9 -14602270.78447  21643085.544    21643093.0444
  24327352.804    -7166000.390 7  -5569670.86145  24327352.424    24327363.1974
 00  5  6  0 34 30.0000000  0  9 03 26 17 29 09 23 15 21 31
  21910806.671   -21097181.319 8 -16144095.62947  21910806.445    21910814.1444
  24346712.788    -6669187.063 7  -4055433.52245  24346712.781    24346721.4124
  21495087.355   -24005166.595 8 -18691336.51447  21495086.831    21495094.1344
  21694472.514   -19825120.953 8 -15146228.11446  21694472.510    21694480.7294
  23905607.853    -9829877.066 7  -7646375.83045  23905607.602    23905617.4334
  21154072.980   -22876319.402 9 -17777640.19447  21154072.530    21154079.0054
  23949630.583    -7613065.717 7  -5922387.05045  23949629.966    23949642.0544
  21636736.511   -21880418.977 9 -14628270.35147  21636736.110    21636743.6114
  24310554.912    -7254273.701 7  -5638455.15245  24310554.434    24310565.2534
 00  5  6  0 35  0.0000000  0  9 03 26 17 29 09 23 15 21 31
  21902914.505   -21138654.716 8 -16176412.52047  21902914.298    21902921.9754
  24366953.757    -6562820.247 7  -3972550.33945  24366953.779    24366962.4954
  21503948.736   -23958599.733 8 -18655050.67247  21503948.216    21503955.5024
  21678674.370   -19908140.071 8 -15210918.18246  21678674.366    21678682.5594
  23896911.250    -9875577.468 7  -7681986.39945  23896911.073    23896920.8444
  21160118.852   -22844548.236 9 -17752883.44147  21160118.395    21160124.8794
  23932230.718    -7704501.766 7  -5993635.74545  23932230.173    23932242.2094
  21630424.101   -21913590.763 9 -14654118.43547  21630423.699    21630431.1754
  24293816.712    -7342233.360 7  -5706995.03245  24293816.211    24293827.1054
 00  5  6  0 35 30.0000000  0  9 03 26 17 29 09 23 15 21 31
  21895124.007   -21179593.826 8 -16208313.08047  21895123.811    21895131.4624
  24387229.506    -6456270.476 7  -3889524.64245  24387229.542    24387238.3394
  21512870.926   -23911713.354 8 -18618515.85647  21512870.410    21512877.7044
  21662943.156   -19990807.403 8 -15275334.12947  21662943.167    21662951.2964
  23888286.219    -9920901.682 7  -7717303.82645  23888286.054    23888295.8594
  21166195.693   -22812614.273 9 -17727999.83047  21166195.238    21166201.6844
  23914826.433    -7795961.152 7  -6064902.59645  23914825.811    23914838.0764
  21624149.158   -21946565.562 9 -14679813.02147  21624148.773    21624156.2274
  24277139.245    -7429873.651 7  -5775286.04845  24277138.717    24277149.5924
 00  5  6  0 36  0.0000000  0  9 03 26 17 29 09 23 15 21 31
  21887435.285   -21219998.016 8 -16239796.82347  21887435.114    21887442.7494
  24407539.463    -6349541.145 7  -3806359.00845  24407539.572    24407548.2684
  21521853.844   -23864507.924 8 -18581732.42747  21521853.301    21521860.6224
  21647279.103   -20073121.999 8 -15339475.22147  21647279.101    21647287.2094
  23879733.106    -9965848.014 7  -7752326.82045  23879732.955    23879742.6994
  21172303.107   -22780519.546 9 -17702990.95347  21172302.650    21172309.1194
  23897417.745    -7887443.772 7  -6136187.57045  23897417.013    23897429.2544
  21617911.489   -21979344.428 9 -14705354.93547  21617911.112    21617918.5494
  24260522.810    -7517192.956 7  -5843326.95345  24260522.299    24260533.1904
 00  5  6  0 36 30.0000000  0  9 03 26 17 29 09 23 15 21 31
  21879848.475   -21259866.742 8 -16270863.32147  21879848.296    21879855.9284
  24427882.836    -6242636.031 7  -3723056.37145  24427883.018    24427891.7874
  21530897.374   -23816984.139 8 -18544700.94247  21530896.830    21530904.1364
  21631682.479   -20155082.198 8 -15403340.15747  21631682.478    21631690.5524
  23871252.196   -10010414.836 7  -7787054.08945  23871252.046    23871261.6864
  21178440.728   -22748266.203 9 -17677858.47347  21178440.271    21178446.7314
  23880004.636    -7978949.469 7  -6207490.52245  23880003.918    23880016.0414
  21611710.747   -22011929.503 9 -14730745.84147  21611710.364    21611717.7724
  24243967.848    -7604189.287 7  -5911116.18545  24243967.460    24243978.1344
 00  5  6  0 37  0.0000000  0  9 03 26 17 29 09 23 15 21 31
  21872363.652   -21299199.620 8 -16301512.28147  21872363.478    21872371.0964
  24448258.954    -6135558.923 7  -3639619.75545  24448259.072    24448267.8704
  21540001.293   -23769142.797 8 -18507421.99947  21540000.768    21540008.0784
  21616153.463   -20236687.036 8 -15466928.19247  21616153.459    21616161.5034
  23862843.861   -10054600.318 7  -7821484.21345  23862843.758    23862853.3974
  21184608.084   -22715856.494 9 -17652604.15547  21184607.622    21184614.1084
  23862587.174    -8070478.230 7  -6278811.44845  23862586.415    23862598.4994
  21605546.626   -22044321.866 9 -14755986.58047  21605546.242    21605553.6294
  24227474.614    -7690861.255 7  -5978652.65845  24227474.159    24227484.9324
 00  5  6  0 37 30.0000000  0  9 03 26 17 29 09 23 15 21 31
  21864981.915   -21337990.707 8 -16331739.06347  21864981.728    21864989.3314
  24468668.163    -6028307.992 7  -3556047.66745  24468668.284    24468677.1154
  21549166.593   -23720978.989 8 -18469891.79947  21549166.063    21549173.3434
  21600693.314   -20317930.145 8 -15530234.36647  21600693.301    21600701.2974
  23854509.424   -10098397.302 7  -7855611.61645  23854509.277    23854518.9914
  21190805.841   -22683286.910 9 -17627225.25947  21190805.391    21190811.8764
  23845166.304    -8162024.571 7  -6350146.08745  23845165.636    23845177.7174
  21599419.958   -22076517.545 9 -14781074.06647  21599419.573    21599426.9484
  24211044.553    -7777201.605 7  -6045930.74945  24211044.193    24211054.8984
 00  5  6  0 38  0.0000000  0  9 03 26 17 29 09 23 15 21 31
  21857702.813   -21376242.525 8 -16361545.63647  21857702.607    21857710.2124
  24489109.212    -5920889.932 7  -3472345.36445  24489109.212    24489118.1224
  21558392.603   -23672496.087 8 -18432112.94547  21558392.066    21558399.3754
  21585301.701   -20398813.069 8 -15593259.86647  21585301.687    21585309.6364
  23846248.715   -10141807.043 7  -7889437.27145  23846248.526    23846258.3394
  21197033.093   -22650562.470 9 -17601725.69347  21197032.630    21197039.1164
  23827741.620    -8253591.124 7  -6421496.46445  23827740.888    23827752.9544
  21593329.845   -22108520.935 9 -14806011.70847  21593329.469    21593336.8254
  24194677.180    -7863212.005 7  -6112951.72445  24194676.845    24194687.5524
 00  5  6  0 38 30.0000000  0  9 03 26 17 29 09 23 15 21 31
  21850526.644   -21413953.267 8 -16390930.59247  21850526.436    21850534.0574
  24509581.679    -5813306.644 7  -3388514.30245  24509581.769    24509590.6524
  21567679.472   -23623693.323 8 -18394084.84047  21567678.937    21567686.2414
  21569979.066   -20479333.274 8 -15656002.73547  21569979.075    21569986.9914
  23838062.382   -10184826.216 7  -7922958.59945  23838062.193    23838071.8474
  21203289.704   -22617683.761 9 -17576105.91847  21203289.248    21203295.7374
  23810313.415    -8345176.216 7  -6492861.28845  23810312.804    23810324.7184
  21587276.358   -22140331.994 9 -14830799.48747  21587275.980    21587283.3024
  24178373.320    -7948888.873 7  -6179712.80545  24178373.010    24178383.7234
 00  5  6  0 39  0.0000000  0  9 03 26 17 29 09 23 15 21 31
  21843454.064   -21451119.806 8 -16419891.49647  21843453.842    21843461.4554
  24530085.346    -5705559.341 7  -3304555.42245  24530085.555    24530094.3474
  21577027.579   -23574568.828 8 -18355806.03647  21577027.045    21577034.3594
  21554726.221   -20559486.964 8 -15718460.00447  21554726.224    21554734.1084
  23829951.168   -10227450.558 7  -7956172.27345  23829950.989    23829960.6054
  21209575.790   -22584650.113 9 -17550365.41347  21209575.337    21209581.8184
  23792882.210    -8436777.236 7  -6564238.51445  23792881.592    23792893.4214
  21581259.649   -22171949.775 9 -14855436.65947  21581259.275    21581266.5854
  24162133.708    -8034228.060 7  -6246210.75745  24162133.384    24162143.9894
 00  5  6  0 39 30.0000000  0  9 03 26 17 29 09 23 15 21 31
  21836484.757   -21487743.716 8 -16448429.57047  21836484.537    21836492.1374
  24550619.200    -5597653.664 7  -3220473.15545  24550619.450    24550628.1984
  21586436.421   -23525125.046 8 -18317278.44747  21586435.901    21586443.2264
  21539542.957   -20639274.860 8 -15780632.24247  21539542.945    21539550.8184
  23821915.032   -10269680.458 7  -7989078.58245  23821914.772    23821924.4084
  21215890.572   -22551465.730 9 -17524507.44947  21215890.135    21215896.6024
  23775447.561    -8528396.068 7  -6635629.63345  23775446.941    23775458.8504
  21575279.172   -22203377.181 9 -14879925.48247  21575278.795    21575286.0974
  24145958.321    -8119229.856 7  -6312445.79745  24145958.021    24145968.5854
 00  5  6  0 40  0.0000000  0  9 03 26 17 29 09 23 15 21 31
  21829619.298   -21523821.719 8 -16476542.26447  21829619.069    21829626.6594
  24571183.001    -5489590.226 8  -3136267.95045  24571183.234    24571191.9394
  21595906.491   -23475359.558 8 -18278500.17247  21595905.985    21595913.3194
  21524430.047   -20718693.098 8 -15842516.43947  21524430.048    21524437.8844
  23813954.854   -10311511.197 8  -8021673.86145  23813954.592    23813964.1614
  21222234.224   -22518129.446 9 -17498531.12447  21222233.793    21222240.2594
  23758010.168    -8620029.338 7  -6707031.99545  23758009.572    23758021.4194
  21569335.198   -22234612.802 9 -14904264.86747  21569334.810    21569342.0934
  24129848.010    -8203889.575 7  -6378414.29245  24129847.704    24129858.4174
 00  5  6  0 40 30.0000000  0  9 03 26 17 29 09 23 15 21 31
  21822858.204   -21559351.416 8 -16504227.70147  21822857.990    21822865.5404
  24591776.587    -5381370.737 7  -3051941.14345  24591776.757    24591785.3974
  21605438.036   -23425271.115 8 -18239470.25347  21605437.507    21605444.8734
  21509388.047   -20797738.807 8 -15904110.35247  21509388.041    21509395.8474
  23806071.368   -10352939.034 8  -8053955.18545  23806071.080    23806080.5864
  21228606.791   -22484641.402 9 -17472436.54347  21228606.362    21228612.8344
  23740570.389    -8711675.182 7  -6778444.15545  23740569.766    23740581.4994
  21563427.734   -22265656.454 9 -14928454.66447  21563427.350    21563434.6294
  24113803.405    -8288203.866 7  -6444113.62345  24113803.082    24113813.7494
 00  5  6  0 41  0.0000000  0  8 03 17 29 09 23 15 21 31
  21816201.489   -21594332.367 8 -16531485.55047  21816201.308    21816208.8344
  21615030.963   -23374860.144 8 -18200189.01447  21615030.426    21615037.7834
  21494417.218   -20876410.550 8 -15965412.87647  21494417.215    21494424.9684
  23798264.805   -10393962.263 8  -8085921.23245  23798264.584    23798274.0234
  21235007.921   -22451003.352 9 -17446225.08147  21235007.490    21235013.9414
  23723128.341    -8803333.206 7  -6849865.81645  23723127.780    23723139.4194
  21557556.632   -22296509.150 9 -14952495.67147  21557556.244    21557563.5054
  24097824.956    -8372170.825 7  -6509542.30545  24097824.583    24097835.2384
 00  5  6  0 41 30.0000000  0  8 03 17 29 09 23 15 21 31
  21809649.603   -21628762.778 8 -16558314.39847  21809649.384    21809656.9084
  21624685.389   -23324125.852 8 -18160655.82547  21624684.862    21624692.2074
  21479518.033   -20954705.779 8 -16026422.00847  21479518.009    21479525.7584
  23790535.784   -10434577.981 8  -8117569.73445  23790535.585    23790544.8944
  21241437.442   -22417215.934 9 -17419897.22247  21241437.009    21241443.4614
  23705684.249    -8895001.885 7  -6921295.77345  23705683.677    23705695.2764
  21551721.779   -22327171.377 9 -14976388.26447  21551721.374    21551728.6244
  24081913.157    -8455787.556 7  -6574698.09045  24081912.819    24081923.4574
 00  5  6  0 42  0.0000000  0  8 03 17 29 09 23 15 21 31
  21803202.116   -21662644.365 8 -16584715.59347  21803201.907    21803209.4074
  21634400.852   -23273070.887 8 -18120872.76547  21634400.326    21634407.6794
  21464690.322   -21032625.384 8 -16087138.44947  21464690.304    21464698.0054
  23782884.264   -10474786.324 8  -8148900.81145  23782884.092    23782893.3794
  21247894.651   -22383283.041 9 -17393456.00847  21247894.209    21247900.6844
  23688237.833    -8986682.755 7  -6992735.23045  23688237.175    23688248.8964
  21545922.580   -22357645.979 9 -15000134.65047  21545922.189    21545929.4274
  24066067.940    -8539054.110 7  -6639581.00245  24066067.509    24066078.2624
 00  5  6  0 42 30.0000000  0  8 03 17 29 09 23 15 21 31
  21796859.660   -21695974.033 8 -16610686.71947  21796859.458    21796866.9224
  21644177.766   -23221692.863 8 -18080837.97947  21644177.268    21644184.6004
  21449934.817   -21110165.426 8 -16147559.12347  21449934.790    21449942.4814
  23775311.165   -10514582.810 8  -8179910.95245  23775310.995    23775320.3364
  21254379.711   -22349203.773 9 -17366900.72947  21254379.279    21254385.7474
  23670789.611    -9078372.872 7  -7064181.88845  23670788.984    23670800.5244
  21540159.383   -22387931.676 9 -15023733.83847  21540158.978    21540166.1994
  24050290.244    -8621966.134 7  -6704187.65545  24050289.731    24050300.5434
 00  5  6  0 43  0.0000000  0  8 03 17 29 09 23 15 21 31
  21790622.212   -21728751.962 8 -16636227.93047  21790622.016    21790629.4764
  21654015.948   -23169993.124 8 -18040552.50547  21654015.417    21654022.7834
  21435251.656   -21187325.415 8 -16207683.65847  21435251.624    21435259.2814
  23767816.618   -10553966.377 8  -8210599.34545  23767816.434    23767825.7784
  21260892.175   -22314980.599 9 -17340233.33047  21260891.721    21260898.1984
  23653339.683    -9170072.097 7  -7135635.65245  23653339.074    23653350.5964
  21534431.707   -22418030.559 9 -15047187.45947  21534431.304    21534438.4964
  24034580.252    -8704522.236 7  -6768516.96945  24034579.747    24034590.4934
 00  5  6  0 43 30.0000000  0  8 03 17 29 09 23 15 21 31
  21784490.905   -21760972.087 8 -16661334.49547  21784490.701    21784498.1444
  21663916.326   -23117966.514 8 -18000012.33947  21663915.783    21663923.1654
  21420642.157   -21264098.470 8 -16267506.69247  21420642.118    21420649.7074
  23760402.059   -10592929.640 8  -8240960.22845  23760401.956    23760411.2314
  21267432.781   -22280609.468 9 -17313450.63447  21267432.343    21267438.8164
  23635889.203    -9261774.524 7  -7207091.91545  23635888.595    23635900.1794
  21528740.523   -22447937.764 9 -15070491.72447  21528740.133    21528747.3034
  24018939.375    -8786715.127 7  -6832563.25445  24018938.925    24018949.6054
 00  5  6  0 44  0.0000000  0  8 03 17 29 09 23 15 21 31
  21778464.242   -21792642.126 8 -16686012.40747  21778464.043    21778471.4754
  21673877.220   -23065621.732 8 -17959224.23647  21673876.677    21673884.0874
  21406104.923   -21340491.490 8 -16327033.58647  21406104.882    21406112.4254
  23753066.306   -10631478.997 8  -8270998.56345  23753066.155    23753075.4864
  21273999.599   -22246100.549 9 -17286560.56747  21273999.147    21274005.6214
  23618436.567    -9353487.918 7  -7278556.71945  23618435.967    23618447.4754
  21523083.870   -22477663.373 9 -15093654.48547  21523083.480    21523090.6464
  24003366.363    -8868551.219 7  -6896331.52045  24003365.896    24003376.5464
 00  5  6  0 44 30.0000000  0  8 03 17 29 09 23 15 21 31
  21772543.721   -21823754.653 8 -16710255.90447  21772543.522    21772550.9254
  21683899.915   -23012952.319 8 -17918183.17347  21683899.379    21683906.7954
  21391641.618   -21416496.231 8 -16386257.93147  21391641.585    21391649.0954
  23745810.996   -10669605.571 8  -8300707.48445  23745810.848    23745820.0354
  21280593.674   -22211448.433 9 -17259558.92047  21280593.242    21280599.7144
  23600983.373    -9445204.693 7  -7350024.16945  23600982.760    23600994.1274
  21517462.905   -22507201.523 9 -15116671.17947  21517462.511    21517469.6754
  23987862.955    -8950021.747 7  -6959814.92145  23987862.468    23987873.1064
 00  5  6  0 45  0.0000000  0  8 03 17 29 09 23 15 21 31
  21766729.204   -21854309.961 8 -16734065.20347  21766729.017    21766736.4004
  21693984.184   -22959959.275 8 -17876889.92747  21693983.627    21693991.0594
  21377252.265   -21492112.295 8 -16445179.41347  21377252.226    21377259.6994
  23738636.344   -10707308.269 8  -8330086.10545  23738636.114    23738645.3874
  21287214.519   -22176655.634 9 -17232447.65047  21287214.098    21287220.5564
  23583529.422    -9536925.091 7  -7421494.45245  23583528.823    23583539.9814
  21511877.311   -22536553.774 9 -15139543.01347  21511876.918    21511884.0604
  23972429.376    -9031125.504 7  -7023012.52945  23972428.883    23972439.5044
 00  5  6  0 45 30.0000000  0  8 03 17 29 09 23 15 21 31
  21761020.973   -21884306.775 8 -16757439.31147  21761020.769    21761028.1404
  21704130.144   -22906642.058 8 -17835344.08747  21704129.594    21704137.0144
  21362937.257   -21567337.452 8 -16503796.29247  21362937.247    21362944.6654
  23731542.879   -10744584.399 8  -8359132.34445  23731542.695    23731551.9274
  21293861.963   -22141722.999 9 -17205227.41747  21293861.526    21293867.9974
  23566075.095    -9628647.487 7  -7492966.27645  23566074.507    23566085.7494
  21506327.030   -22565720.484 9 -15162270.27347  21506326.640    21506333.7724
  23957066.035    -9111859.916 7  -7085922.33245  23957065.499    23957076.0744
 00  5  6  0 46  0.0000000  0  8 03 17 29 09 23 15 21 31
  21755418.864   -21913745.927 8 -16780378.87647  21755418.667    21755426.0244
  21714337.428   -22853002.540 8 -17793547.10047  21714336.877    21714344.3124
  21348696.650   -21642171.823 8 -16562108.66247  21348696.645    21348704.0274
  23724530.629   -10781433.672 8  -8387845.95645  23724530.429    23724539.6024
  21300535.491   -22106653.416 9 -17177900.46847  21300535.057    21300541.5304
  23548620.157    -9720372.941 7  -7564440.47945  23548619.570    23548630.7734
  21500811.589   -22594703.938 9 -15184854.73347  21500811.198    21500818.3414
  23941773.108    -9192224.265 7  -7148543.78345  23941772.646    23941783.0954
 00  5  6  0 46 30.0000000  0  8 03 17 29 09 23 15 21 31
  21749923.781   -21942622.673 8 -16802880.21047  21749923.581    21749930.9244
  21724606.846   -22799036.518 8 -17751495.70247  21724606.298    21724613.7224
  21334531.518   -21716609.663 8 -16620112.04947  21334531.521    21334538.8434
  23717600.804   -10817849.724 8  -8416222.00045  23717600.667    23717609.7684
  21307235.623   -22071443.900 9 -17150464.48347  21307235.208    21307241.6604
  23531165.728    -9812096.212 7  -7635912.99245  23531165.154    23531176.2594
  21495331.662   -22623500.982 9 -15207293.94747  21495331.282    21495338.3924
  23926551.864    -9272212.078 7  -7210871.82145  23926551.393    23926561.8234
 00  5  6  0 47  0.0000000  0  8 03 17 29 09 23 15 21 31
  21744535.443   -21970938.370 8 -16824944.36547  21744535.241    21744542.6024
  21734937.962   -22744746.274 8 -17709191.65547  21734937.416    21734944.8354
  21320441.748   -21790651.317 8 -16677806.71647  21320441.755    21320449.0494
  23710753.401   -10853832.617 8  -8444260.50945  23710753.267    23710762.3174
  21313961.786   -22036097.731 9 -17122922.01747  21313961.362    21313967.8214
  23513711.456    -9903818.291 7  -7707384.57045  23513710.867    23513721.9964
  21489886.645   -22652114.545 9 -15229590.18347  21489886.251    21489893.3674
  23911402.237    -9351823.354 7  -7272906.45745  23911401.761    23911412.0404
 00  5  6  0 47 30.0000000  0  8 03 17 29 09 23 15 21 31
  21739253.091   -21998697.187 8 -16846574.58247  21739252.878    21739260.2484
  21745329.798   -22690136.889 8 -17666638.91847  21745329.252    21745336.6824
  21306426.686   -21864300.455 8 -16735195.53547  21306426.698    21306433.9494
  23703987.853   -10889385.007 8  -8471963.56745  23703987.740    23703996.7824
  21320712.744   -22000621.269 9 -17095278.01647  21320712.298    21320718.7754
  23496256.670    -9995543.055 7  -7778858.24845  23496256.080    23496267.1884
  21484475.469   -22680550.245 9 -15251747.82447  21484475.078    21484482.1964
  23896323.729    -9431060.999 7  -7334649.94645  23896323.310    23896333.5384
 00  5  6  0 48  0.0000000  0  8 03 17 29 09 23 15 21 31
  21734077.736   -22025893.775 8 -16867766.70747  21734077.511    21734084.8804
  21755783.221   -22635203.725 8 -17623833.89646  21755782.695    21755790.1204
  21292487.578   -21937550.510 8 -16792273.37547  21292487.578    21292494.8204
  23697305.590   -10924500.039 8  -8499325.82145  23697305.377    23697314.4744
  21327489.163   -21965010.934 9 -17067529.70547  21327488.707    21327495.1954
  23478802.514   -10087264.768 8  -7850329.53845  23478801.904    23478812.9274
  21479098.816   -22708804.550 9 -15273764.12247  21479098.420    21479105.5124
  23881317.639    -9509918.052 7  -7396096.87445  23881317.158    23881327.4014
 00  5  6  0 48 30.0000000  0  8 03 17 29 09 23 15 21 31
  21729010.377   -22052522.820 8 -16888516.58947  21729010.139    21729017.5094
  21766299.185   -22579942.102 8 -17580772.92246  21766298.635    21766306.1004
  21278625.589   -22010395.294 8 -16849035.42047  21278625.594    21278632.7844
  23690707.801   -10959171.251 8  -8526342.26245  23690707.614    23690716.6204
  21334291.712   -21929263.331 9 -17039674.42747  21334291.258    21334297.7584
  23461349.940   -10178977.902 8  -7921794.14145  23461349.297    23461360.2834
  21473757.520   -22736873.040 9 -15295635.62647  21473757.137    21473764.2074
  23866385.304    -9588387.400 7  -7457241.68745  23866384.866    23866395.1284
 00  5  6  0 49  0.0000000  0  8 03 17 29 09 23 15 21 31
  21724050.601   -22078586.545 8 -16908825.96247  21724050.363    21724057.7494
  21776877.069   -22524355.041 8 -17537458.36746  21776876.532    21776884.0124
  21264840.465   -22082836.079 8 -16905482.66147  21264840.458    21264847.6364
  23684194.380   -10993399.019 8  -8553013.13745  23684194.214    23684203.1974
  21341119.608   -21893382.521 9 -17011715.34847  21341119.161    21341125.6574
  23443898.684   -10270684.174 8  -7993253.39445  23443898.058    23443909.0594
  21468450.915   -22764759.282 9 -15317365.11747  21468450.531    21468457.5904
  23851526.683    -9666469.744 7  -7518084.94145  23851526.242    23851536.4964
 00  5  6  0 49 30.0000000  0  8 03 17 29 09 23 15 21 31
  21719198.443   -22104084.604 8 -16928694.56447  21719198.222    21719205.6124
  21787516.781   -22468443.120 8 -17493890.66846  21787516.256    21787523.7594
  21251132.425   -22154871.796 8 -16961614.26647  21251132.427    21251139.5564
  23677765.693   -11027181.745 8  -8579337.24045  23677765.474    23677774.4364
  21347972.504   -21857370.220 9 -16983653.81047  21347972.057    21347978.5484
  23426448.811   -10362383.125 8  -8064706.95645  23426448.178    23426459.0914
  21463178.692   -22792464.830 9 -15338953.80547  21463178.291    21463185.3644
  23836741.974    -9744163.432 7  -7578625.34545  23836741.517    23836751.7204
 00  5  6  0 50  0.0000000  0  8 03 17 29 09 23 15 21 31
  21714453.837   -22129017.609 8 -16948122.85047  21714453.626    21714460.9804
  21798218.099   -22412207.603 8 -17450070.82446  21798217.548    21798225.0704
  21237501.554   -22226502.052 8 -17017429.92547  21237501.544    21237508.6504
  23671421.888   -11060518.375 8  -8605313.73145  23671421.616    23671430.6004
  21354850.034   -21821228.536 9 -16955491.44947  21354849.585    21354856.0794
  23409000.363   -10454074.655 8  -8136154.73245  23408999.787    23409010.5894
  21457940.569   -22819991.214 9 -15360402.88847  21457940.177    21457947.2274
  23822031.448    -9821467.132 7  -7638861.86145  23822031.032    23822041.1594
 00  5  6  0 50 30.0000000  0  8 03 17 29 09 23 15 21 31
  21709817.208   -22153383.195 8 -16967109.00447  21709816.986    21709824.3414
  21808981.288   -22355646.727 8 -17405997.45346  21808980.767    21808988.2664
  21223948.494   -22297723.354 8 -17072926.92247  21223948.486    21223955.5534
  23665163.635   -11093405.354 8  -8630939.85645  23665163.448    23665172.3574
  21361752.267   -21784956.994 9 -16927227.89647  21361751.817    21361758.3054
  23391553.888   -10545755.809 8  -8207594.41845  23391553.314    23391564.0354
  21452736.702   -22847337.431 9 -15381711.58047  21452736.300    21452743.3314
  23807395.948    -9898376.899 7  -7698791.41845  23807395.374    23807405.5134
 00  5  6  0 51  0.0000000  0  8 03 17 29 09 23 15 21 31
  21705288.639   -22177180.964 8 -16985652.69747  21705288.431    21705295.7794
  21819806.393   -22298760.799 8 -17361670.79746  21819805.833    21819813.3644
  21210473.450   -22368534.820 8 -17128104.56847  21210473.445    21210480.4694
  23658991.264   -11125840.888 8  -8656214.20145  23658991.092    23658999.9624
  21368678.960   -21748556.988 9 -16898864.24947  21368678.512    21368684.9984
  23374109.515   -10637425.828 8  -8279025.42945  23374108.981    23374119.5894
  21447566.934   -22874504.582 9 -15402880.73947  21447566.529    21447573.5584
  23792835.703    -9974890.938 8  -7758412.61645  23792835.223    23792845.2344
 00  5  6  0 51 30.0000000  0  8 03 17 29 09 23 15 21 31
  21700868.263   -22200409.946 8 -17003753.17447  21700868.052    21700875.4034
  21830693.344   -22241549.539 8 -17317090.63746  21830692.796    21830700.3324
  21197076.811   -22438934.104 9 -17182961.03247  21197076.819    21197083.8104
  23652905.238   -11157822.854 8  -8681135.11445  23652905.085    23652913.8934
  21375629.949   -21712029.299 9 -16870401.10247  21375629.490    21375635.9724
  23356667.540   -10729083.295 8  -8350446.66745  23356666.876    23356677.6634
  21442431.223   -22901492.778 9 -15423910.45047  21442430.824    21442437.8344
  23778351.214   -10051006.885 8  -7817723.62045  23778350.771    23778360.6834
 00  5  6  0 52  0.0000000  0  8 03 17 29 09 23 15 21 31
  21696556.307   -22223069.286 8 -17021409.78447  21696556.097    21696563.4534
  21841642.217   -22184012.940 8 -17272256.96446  21841641.656    21841649.2144
  21183758.865   -22508919.942 9 -17237495.33747  21183758.859    21183765.8224
  23646906.069   -11189348.403 8  -8705700.36645  23646905.868    23646914.6544
  21382605.043   -21675374.768 9 -16841839.12047  21382604.581    21382611.0754
  23339228.249   -10820726.822 8  -8421857.02945  23339227.649    23339238.1934
  21437329.429   -22928302.752 9 -15444801.29347  21437329.016    21437336.0074
  23763942.976   -10126722.144 8  -7876722.38845  23763942.485    23763952.3814
 00  5  6  0 52 30.0000000  0  8 03 17 29 09 23 15 21 31
  21692352.845   -22245158.541 8 -17038622.16347  21692352.637    21692359.9964
  21852653.028   -22126150.845 8 -17227169.66846  21852652.483    21852660.0484
  21170519.958   -22578490.335 9 -17291705.91847  21170519.954    21170526.8914
  23640994.078   -11220415.463 8  -8729908.36245  23640993.851    23641002.6374
  21389604.087   -21638594.521 9 -16813179.17947  21389603.625    21389610.1004
  23321791.909   -10912354.868 8  -8493255.33045  23321791.270    23321801.7174
  21432261.456   -22954934.823 9 -15465553.50647  21432261.045    21432268.0214
  23749611.445   -10202034.344 7  -7935407.10045  23749610.967    23749620.9064
 00  5  6  0 53  0.0000000  0  8 03 17 29 09 23 15 21 31
  21688257.922   -22266677.540 8 -17055390.19247  21688257.712    21688265.0544
  21863725.665   -22067963.915 8 -17181829.22946  21863725.108    21863732.6764
  21157360.324   -22647644.163 9 -17345591.90447  21157360.314    21157367.2354
  23635169.624   -11251022.623 8  -8753758.00145  23635169.433    23635178.2394
  21396626.804   -21601689.979 9 -16784422.38347  21396626.344    21396632.7974
  23304358.611   -11003966.844 8  -8564641.10545  23304357.979    23304368.3624
  21427227.118   -22981390.238 9 -15486168.06747  21427226.700    21427233.6664
  23735356.924   -10276941.740 8  -7993776.37845  23735356.385    23735366.3974
 00  5  6  0 53 30.0000000  0  8 03 17 29 09 23 15 21 31
  21684271.625   -22287625.483 8 -17071713.22947  21684271.401    21684278.7674
  21874860.085   -22009452.212 8 -17136235.73346  21874859.530    21874867.1044
  21144280.198   -22716380.191 9 -17399152.33247  21144280.190    21144287.0814
  23629433.011   -11281168.165 8  -8777247.92245  23629432.895    23629441.7114
  21403672.936   -21564662.196 9 -16755569.55647  21403672.466    21403678.9204
  23286928.556   -11095561.662 8  -8636013.50845  23286927.945    23286938.2694
  21422226.236   -23007669.867 9 -15506645.65147  21422225.822    21422232.7894
  23721179.878   -10351442.154 8  -8051828.52445  23721179.399    23721189.3394
 00  5  6  0 54  0.0000000  0  8 03 17 29 09 23 15 21 31
  21680394.204   -22308001.317 8 -17087590.47247  21680393.966    21680401.3304
  21886056.381   -21950615.359 8 -17090388.86746  21886055.849    21886063.4324
  21131280.032   -22784696.098 9 -17452385.38947  21131280.019    21131286.8924
  23623784.870   -11310849.181 8  -8800375.88345  23623784.734    23623793.4324
  21410742.448   -21527511.662 9 -16726621.07947  21410741.972    21410748.4484
  23269502.104   -11187137.485 8  -8707371.11245  23269501.440    23269511.8524
  21417258.814   -23033773.531 9 -15526986.11847  21417258.411    21417265.3744
  23707080.877   -10425532.457 8  -8109561.11245  23707080.470    23707090.3264
 00  5  6  0 54 30.0000000  0  8 03 17 29 09 23 15 21 31
  21676625.897   -22327803.725 8 -17103020.89147  21676625.684    21676633.0144
  21897314.774   -21891452.356 8 -17044287.88546  21897314.215    21897321.8184
  21118360.257   -22852589.484 9 -17505289.21447  21118360.234    21118367.0874
  23618225.582   -11340062.802 8  -8823139.64945  23618225.502    23618234.1874
  21417835.284   -21490238.506 9 -16697577.05947  21417834.812    21417841.2804
  23252079.753   -11278691.896 8  -8778712.04945  23252079.101    23252089.5274
  21412325.005   -23059700.744 9 -15547189.09547  21412324.596    21412331.5464
  23693060.464   -10499209.690 8  -8166971.83045  23693060.066    23693069.8604
 00  5  6  0 55  0.0000000  0  8 03 17 29 09 23 15 21 31
  21672966.405   -22347034.454 8 -17118005.84647  21672966.188    21672973.5114
  21908634.761   -21831965.712 8 -16997934.70946  21908634.198    21908641.7844
  21105520.731   -22920061.273 9 -17557864.52747  21105520.702    21105527.5194
  23612755.249   -11368809.306 8  -8845539.41645  23612755.169    23612763.7964
  21424950.812   -21452846.106 9 -16668440.12047  21424950.336    21424956.8184
  23234661.241   -11370225.996 8  -8850037.14845  23234660.639    23234671.0564
  21407424.113   -23085454.932 9 -15567257.25247  21407423.729    21407430.6474
  23679118.575   -10572474.157 8  -8224060.90545  23679118.158    23679127.8854
 00  5  6  0 55 30.0000000  0  8 03 17 29 09 23 15 21 31
  21669416.267   -22365690.291 8 -17132542.82847  21669416.045    21669423.3654
  21920016.886   -21772152.487 8 -16951327.06546  21920016.299    21920023.9164
  21092762.278   -22987106.845 9 -17610107.72147  21092762.255    21092769.0564
  23607374.694   -11397084.004 8  -8867571.54645  23607374.615    23607383.2364
  21432089.418   -21415332.322 9 -16639208.59547  21432088.964    21432095.4244
  23217247.437   -11461735.416 8  -8921343.02545  23217246.845    23217257.1684
  21402556.693   -23111033.141 9 -15587188.27947  21402556.309    21402563.2184
  23665256.300   -10645320.519 8  -8280824.18545  23665255.905    23665265.6434
 00  5  6  0 56  0.0000000  0  8 03 17 29 09 23 15 21 31
  21665975.013   -22383774.141 8 -17146634.10647  21665974.798    21665982.1054
  21931460.420   -21712016.532 8 -16904467.93546  21931459.846    21931467.4794
  21080084.506   -23053728.484 9 -17662020.57847  21080084.491    21080091.2634
  23602083.711   -11424887.972 8  -8889236.87045  23602083.618    23602092.2504
  21439250.251   -21377701.851 9 -16609886.14847  21439249.806    21439256.2754
  23199837.916   -11553222.398 8  -8992631.42245  23199837.318    23199847.6024
  21397721.919   -23136439.922 9 -15606985.73047  21397721.526    21397728.4274
  23651473.229   -10717750.417 8  -8337262.95045  23651472.826    23651482.4174
 00  5  6  0 56 30.0000000  0  8 03 17 29 09 23 15 21 31
  21662643.878   -22401279.361 8 -17160274.49947  21662643.654    21662650.9604
  21942966.602   -21651551.412 8 -16857352.30246  21942966.021    21942973.6544
  21067488.922   -23119918.313 9 -17713596.95947  21067488.911    21067495.6364
  23596883.849   -11452212.970 8  -8910528.97745  23596883.797    23596892.3394
  21446434.315   -21339949.279 9 -16580468.55647  21446433.873    21446440.3364
  23182434.141   -11644679.279 8  -9063896.35645  23182433.496    23182443.7814
  21392920.773   -23161669.791 9 -15626645.32547  21392920.379    21392927.2754
  23637771.123   -10789755.123 8  -8393370.39945  23637770.732    23637780.3044
 00  5  6  0 57  0.0000000  0  8 03 17 29 09 23 15 21 31
  21659421.411   -22418213.308 8 -17173469.74747  21659421.195    21659428.4734
  21954533.817   -21590765.400 8 -16809986.63746  21954533.263    21954540.9074
  21054974.331   -23185682.569 9 -17764841.72847  21054974.315    21054981.0264
  23591773.990   -11479065.094 8  -8931452.61345  23591773.875    23591782.4854
  21453639.976   -21302083.264 9 -16550962.57047  21453639.535    21453646.0104
  23165034.773   -11736112.802 8  -9135143.10045  23165034.151    23165044.3074
  21388151.728   -23186731.166 9 -15646173.62847  21388151.341    21388158.2174
  23624148.824   -10861340.243 8  -8449150.90245  23624148.443    23624158.0334
 00  5  6  0 57 30.0000000  0  8 03 17 29 09 23 15 21 31
  21656308.722   -22434570.679 8 -17186215.71947  21656308.490    21656315.7554
  21966163.059   -21529653.496 8 -16762367.02746  21966162.492    21966170.1704
  21042541.909   -23251014.865 9 -17815749.90147  21042541.882    21042548.5724
  23586755.355   -11505437.781 8  -8952002.65845  23586755.180    23586763.8794
  21460867.956   -21264099.862 9 -16521365.11247  21460867.521    21460873.9894
  23147641.102   -11827516.557 8  -9206366.65145  23147640.463    23147650.6204
  21383415.562   -23211619.683 9 -15665567.24347  21383415.160    21383422.0464
  23610607.729   -10932498.821 8  -8504599.03545  23610607.257    23610616.8374
 00  5  6  0 58  0.0000000  0  8 03 17 29 09 23 15 21 31
  21653305.618   -22450351.854 8 -17198512.70347  21653305.389    21653312.6524
  21977854.117   -21468216.838 8 -16714494.38346  21977853.538    21977861.2354
  21030191.792   -23315914.743 9 -17866321.12847  21030191.751    21030198.4144
  23581828.207   -11531329.678 8  -8972178.07845  23581828.051    23581836.7944
  21468117.942   -21226000.927 9 -16491677.63647  21468117.502    21468123.9554
  23130253.203   -11918889.988 8  -9277566.57845  23130252.550    23130262.5954
  21378712.025   -23236336.657 9 -15684827.18747  21378711.626    21378718.5144
  23597148.026   -11003229.612 8  -8559713.82045  23597147.525    23597157.0504
 00  5  6  0 58 30.0000000  0  8 03 17 29 09 23 15 21 31
  21650412.437   -22465555.534 8 -17210359.69647  21650412.212    21650419.4534
  21989607.174   -21406454.161 8 -16666367.68346  21989606.632    21989614.3554
  21017924.499   -23380379.440 9 -17916553.25547  21017924.474    21017931.0794
  23576993.153   -11556737.602 8  -8991976.36845  23576993.038    23577001.6954
  21475389.988   -21187786.152 9 -16461899.88947  21475389.547    21475395.9834
  23112871.554   -12010230.648 8  -9348740.95445  23112870.873    23112880.8914
  21374041.371   -23260880.913 9 -15703952.54447  21374040.979    21374047.8454
  23583770.469   -11073528.824 8  -8614492.32045  23583769.976    23583779.4694
 00  5  6  0 59  0.0000000  0  8 03 17 29 09 23 15 21 31
  21647628.530   -22480184.881 8 -17221759.15547  21647628.309    21647635.5314
  22001421.575   -21344369.302 8 -16617989.94246  22001421.033    22001428.7544
  21005739.576   -23444411.269 9 -17966448.08547  21005739.559    21005746.1164
  23572249.843   -11581663.204 8  -9011398.80745  23572249.771    23572258.3994
  21482683.174   -21149460.151 9 -16432035.47347  21482682.738    21482689.1684
  23095495.707   -12101540.465 8  -9419891.31045  23095495.032    23095505.0744
  21369402.770   -23285256.753 9 -15722946.67147  21369402.381    21369409.2564
  23570474.696   -11143398.108 8  -8668935.79545  23570474.211    23570483.6704
 00  5  6  0 59 30.0000000  0  8 03 17 29 09 23 15 21 31
  21644954.884   -22494234.948 8 -17232707.23647  21644954.670    21644961.8734
  22013298.156   -21281957.672 8 -16569357.57646  22013297.611    22013305.3554
  20993638.150   -23508004.197 9 -18016000.92047  20993638.157    20993644.6614
  23567599.551   -11606100.279 8  -9030440.58945  23567599.470    23567608.0584
  21489998.261   -21111019.179 9 -16402081.47147  21489997.824    21490004.2594
  23078126.884   -12192813.504 8  -9491013.00345  23078126.236    23078136.2304
  21364796.930   -23309460.431 9 -15741806.64647  21364796.539    21364803.3984
  23557261.964   -11212830.875 8  -8723039.13445  23557261.457    23557270.9244
 00  5  6  1  0  0.0000000  0  8 03 17 29 09 23 15 21 31
  21642390.683   -22507709.709 8 -17243207.02147  21642390.475    21642397.6804
  22025236.052   -21219223.828 8 -16520474.14346  22025235.516    22025243.2474
  20981619.741   -23571161.027 9 -18065213.93447  20981619.737    20981626.2424
  23563041.776   -11630051.375 8  -9049103.69245  23563041.645    23563050.2124
  21497334.250   -21072468.289 9 -16372041.80547  21497333.796    21497340.2634
  23060764.542   -12284052.651 8  -9562108.29545  23060763.875    23060773.8544
  21360222.917   -23333496.826 9 -15760536.26347  21360222.536    21360229.3794
  23544131.983   -11281829.048 8  -8776803.82645  23544131.477    23544140.9154
 00  5  6  1  0 30.0000000  0  8 03 17 29 09 23 15 21 31
  21639936.757   -22520605.108 8 -17253255.36247  21639936.554    21639943.7454
  22037235.978   -21156164.073 8 -16471336.74546  22037235.449    22037243.1594
  20969685.227   -23633876.843 9 -18114083.30647  20969685.239    20969691.7114
  23558577.497   -11653510.816 8  -9067383.68945  23558577.367    23558585.8994
  21504691.643   -21033804.902 9 -16341914.49347  21504691.202    21504697.6674
  23043409.600   -12375252.877 8  -9633173.25645  23043408.959    23043418.8254
  21355681.254   -23357363.247 9 -15779133.43947  21355680.880    21355687.7144
  23531085.800   -11350386.880 8  -8830225.39845  23531085.269    23531094.6914
 00  5  6  1  1  0.0000000  0  8 03 17 29 09 23 15 21 31
  21637592.634   -22532923.420 8 -17262854.02147  21637592.427    21637599.5984
  22049297.407   -21092781.227 8 -16421947.58346  22049296.859    22049304.5854
  20957834.489   -23696152.459 9 -18162609.66347  20957834.483    20957840.9504
  23554206.724   -11676479.240 8  -9085281.08245  23554206.593    23554214.9924
  21512069.850   -20995032.177 9 -16311701.97647  21512069.394    21512075.8714
  23026061.910   -12466414.956 8  -9704208.48945  23026061.250    23026071.0404
  21351171.496   -23381062.023 9 -15797599.97747  21351171.112    21351177.9474
  23518123.246   -11418504.803 8  -8883304.17745  23518122.793    23518132.1844
 00  5  6  1  1 30.0000000  0  8 03 17 29 09 23 15 21 31
  21635358.836   -22544662.044 8 -17272000.98347  21635358.623    21635365.8094
  22061420.713   -21029073.034 8 -16372304.92046  22061420.147    22061427.9414
  20946068.155   -23757984.572 9 -18210790.43747  20946068.159    20946074.5984
  23549930.146   -11698952.469 8  -9102792.60845  23549930.033    23549938.3354
  21519469.145   -20956148.653 9 -16281403.12347  21519468.692    21519475.1764
  23008722.216   -12557535.024 8  -9775210.98145  23008721.574    23008731.3874
  21346694.009   -23404591.321 9 -15815934.45747  21346693.632    21346700.4404
  23505245.327   -11486178.303 8  -8936036.67345  23505244.917    23505254.2694
 00  5  6  1  2  0.0000000  0  8 03 17 29 09 23 15 21 31
  21633234.917   -22555823.113 8 -17280697.90247  21633234.693    21633241.8734
  22073605.477   -20965041.985 8 -16322410.66346  22073604.931    22073612.7144
  20934386.072   -23819373.901 9 -18258626.18547  20934386.066    20934392.4934
  23545747.704   -11720931.122 8  -9119918.76445  23545747.608    23545755.7294
  21526888.910   -20917157.497 9 -16251020.40947  21526888.455    21526894.8984
  22991390.353   -12648614.022 8  -9846181.47645  22991389.682    22991399.5294
  21342248.199   -23427954.033 9 -15834139.13047  21342247.829    21342254.6144
  23492451.970   -11553407.390 8  -8988422.86545  23492451.544    23492460.9214
 00  5  6  1  2 30.0000000  0  8 03 17 29 09 23 15 21 31
  21631221.064   -22566405.924 9 -17288944.23347  21631220.857    21631228.0134
  22085851.772   -20900687.468 8 -16272264.36446  22085851.223    22085859.0454
  20922788.633   -23880318.347 9 -18306115.27047  20922788.625    20922795.0374
  23541659.809   -11742412.818 8  -9136657.68145  23541659.679    23541667.7904
  21534329.169   -20878058.747 9 -16220553.85247  21534328.714    21534335.1504
  22974066.695   -12739649.674 8  -9917118.19745  22974066.055    22974075.8274
  21337834.097   -23451150.126 9 -15852213.96947  21337833.725    21337840.5024
  23479743.693   -11620189.340 8  -9040460.63345  23479743.263    23479752.5734
 00  5  6  1  3  0.0000000  0  8 03 17 29 09 23 15 21 31
  21629317.204   -22576410.696 8 -17296740.14447  21629316.985    21629324.1364
  22098159.512   -20836010.121 8 -16221866.49646  22098158.963    22098166.7984
  20911276.002   -23940817.251 9 -18353257.18747  20911275.985    20911282.4044
  23537666.715   -11763396.282 8  -9153008.35345  23537666.523    23537674.7454
  21541789.624   -20838853.764 9 -16190004.52147  21541789.180    21541795.5984
  22956751.551   -12830640.948 8  -9988020.32845  22956750.842    22956760.6204
  21333451.522   -23474180.532 9 -15870159.70647  21333451.159    21333457.9234
  23467120.794   -11686522.707 8  -9092148.86245  23467120.271    23467129.7114
 00  5  6  1  3 30.0000000  0  8 03 17 29 09 23 15 21 31
  21627523.931   -22585834.209 8 -17304083.12747  21627523.727    21627530.8824
  22110529.234   -20771007.074 8 -16171214.84346  22110528.679    22110536.5334
  20899848.987   -24000866.170 9 -18400048.46047  20899848.966    20899855.3774
  23533769.423   -11783876.514 8  -9168966.90445  23533769.260    23533777.4614
  21549270.722   -20799540.345 9 -16159370.68447  21549270.271    21549276.6944
  22939445.674   -12921583.286 8 -10058884.33545  22939445.073    22939454.6974
  21329100.919   -23497043.033 9 -15887974.60447  21329100.531    21329107.3084
  23454584.240   -11752402.294 8  -9143483.50945  23454583.780    23454593.1794
 00  5  6  1  4  0.0000000  0  8 03 17 29 09 23 15 21 31
  21625840.889   -22594678.611 9 -17310974.85847  21625840.672    21625847.8224
  22122960.486   -20705680.787 8 -16120311.31146  22122959.953    22122967.7964
  20888507.441   -24060466.045 9 -18446489.83047  20888507.437    20888513.8114
  23529967.744   -11803854.177 8  -9184533.83645  23529967.602    23529975.7774
  21556771.867   -20760121.481 9 -16128654.68747  21556771.398    21556777.8484
  22922148.946   -13012477.611 8 -10129710.93145  22922148.287    22922157.9714
  21324781.759   -23519740.169 9 -15905660.65247  21324781.361    21324788.1224
  23442134.035   -11817828.146 8  -9194464.58745  23442133.569    23442142.9284
 00  5  6  1  4 30.0000000  0  8 03 17 29 09 23 15 21 31
  21624267.619   -22602946.277 8 -17317417.18547  21624267.391    21624274.5324
  22135452.618   -20640034.366 8 -16069158.31746  22135452.085    22135459.9574
  20877251.071   -24119618.345 9 -18492582.44647  20877251.060    20877257.4064
  23526261.495   -11823330.368 8  -9199710.01845  23526261.378    23526269.4794
  21564292.436   -20720600.701 9 -16097859.27747  21564291.971    21564298.4164
  22904861.177   -13103324.965 8 -10200500.92445  22904860.495    22904870.1394
  21320493.483   -23542275.003 9 -15923220.22647  21320493.100    21320499.8314
  23429769.971   -11882801.182 8  -9245092.83045  23429769.498    23429778.8344
 00  5  6  1  5  0.0000000  0  8 03 17 29 09 23 15 21 31
  21622804.770   -22610633.430 9 -17323407.16847  21622804.534    21622811.6754
  22148006.393   -20574064.200 8 -16017753.06646  22148005.874    22148013.7314
  20866080.819   -24178318.106 9 -18538322.43547  20866080.803    20866087.1134
  23522651.732   -11842299.383 8  -9214490.98945  23522651.587    23522659.6974
  21571832.960   -20680974.943 9 -16066982.06647  21571832.491    21571838.9194
  22887583.324   -13194119.955 8 -10271250.11145  22887582.676    22887592.2204
  21316236.714   -23564644.350 9 -15940650.85147  21316236.337    21316243.0634
  23417493.249   -11947315.269 8  -9295363.44645  23417492.857    23417502.0614
 00  5  6  1  5 30.0000000  0  8 03 17 29 09 23 15 21 31
  21621452.398   -22617740.157 8 -17328944.87247  21621452.160    21621459.3174
  22160621.742   -20507770.346 8 -15966095.57546  22160621.221    22160629.1154
  20854996.985   -24236563.740 9 -18583708.55947  20854996.966    20855003.2394
  23519138.800   -11860759.713 8  -9228875.59345  23519138.669    23519146.7724
  21579393.289   -20641245.130 9 -16036023.77747  21579392.827    21579399.2424
  22870315.772   -13284861.031 8 -10341957.28245  22870315.160    22870324.5884
  21312011.309   -23586848.878 9 -15957953.04447  21312010.942    21312017.6584
  23405304.249   -12011368.491 8  -9345274.94745  23405303.905    23405312.9944
 00  5  6  1  6  0.0000000  0  8 03 17 29 09 23 15 21 31
  21620210.036   -22624268.687 8 -17334032.03047  21620209.810    21620216.9544
  22173298.122   -20441155.867 8 -15914188.26246  22173297.605    22173305.4894
  20843999.240   -24294357.087 9 -18628742.25347  20843999.220    20844005.4624
  23515722.452   -11878712.500 8  -9242864.71645  23515722.374    23515730.4154
  21586972.796   -20601414.633 9 -16004987.03547  21586972.330    21586978.7594
  22853058.315   -13375548.870 8 -10412622.97845  22853057.728    22853067.1124
  21307816.680   -23608891.549 9 -15975129.11547  21307816.316    21307823.0274
  23393202.847   -12074961.424 8  -9394827.78745  23393202.523    23393211.5604
 00  5  6  1  6 30.0000000  0  8 03 17 29 09 23 15 21 31
  21619077.953   -22630217.672 8 -17338667.59847  21619077.734    21619084.8834
  22186035.789   -20374219.083 8 -15862029.78146  22186035.258    22186043.1774
  20833088.151   -24351694.861 9 -18673420.95947  20833088.123    20833094.3364
  23512403.387   -11896154.220 8  -9256455.60345  23512403.222    23512411.3184
  21594571.710   -20561482.060 9 -15973870.75747  21594571.259    21594577.6824
  22835811.679   -13466180.072 8 -10483244.53745  22835811.047    22835820.4454
  21303653.176   -23630770.741 9 -15992177.79947  21303652.798    21303659.5124
  23381189.747   -12138090.311 8  -9444019.02145  23381189.429    23381198.4124
 00  5  6  1  7  0.0000000  0  8 03 17 29 09 23 15 21 31
  21618056.375   -22635586.034 8 -17342850.73347  21618056.161    21618063.3344
  22198834.939   -20306959.277 8 -15809619.60146  22198834.437    22198842.3474
  20822264.188   -24408574.859 9 -18717742.95147  20822264.167    20822270.3634
  23509182.010   -11913082.187 8  -9269646.17345  23509181.852    23509189.9434
  21602190.075   -20521447.332 9 -15942674.87247  21602189.635    21602196.0404
  22818576.207   -13556752.384 8 -10553820.22145  22818575.569    22818584.9554
  21299520.800   -23652486.444 9 -16009099.09147  21299520.419    21299527.1284
  23369265.506   -12200752.214 8  -9492846.37545  23369265.184    23369274.1474
 00  5  6  1  7 30.0000000  0  8 03 17 29 09 23 15 21 31
  21617144.752   -22640376.600 8 -17346583.63747  21617144.542    21617151.6944
  22211694.978   -20239379.624 8 -15756960.19446  22211694.454    22211702.3774
  20811527.005   -24464998.844 9 -18761709.61147  20811526.980    20811533.1634
  23506058.135   -11929497.931 8  -9282437.60045  23506057.935    23506066.0894
  21609827.203   -20481314.086 9 -15911402.22447  21609826.738    21609833.1754
  22801351.745   -13647266.960 8 -10624350.90245  22801351.074    22801360.4384
  21295418.954   -23674041.614 9 -16025895.28947  21295418.569    21295425.2694
  23357429.949   -12262948.177 8  -9541310.65945  23357429.528    23357438.5414
 00  5  6  1  8  0.0000000  0  8 03 17 29 09 23 15 21 31
  21616342.994   -22644589.928 8 -17349866.75147  21616342.787    21616349.9284
  22224615.719   -20171480.797 8 -15704052.08946  22224615.219    22224623.1634
  20800876.740   -24520965.897 9 -18805320.22747  20800876.713    20800882.8864
  23503031.976   -11945400.133 8  -9294828.87845  23503031.720    23503039.9314
  21617482.857   -20441083.331 9 -15880053.60347  21617482.408    21617488.8134
  22784138.539   -13737722.329 8 -10694835.45546  22784137.869    22784147.2334
  21291347.561   -23695436.929 9 -16042566.92447  21291347.177    21291353.8544
  23345683.483   -12324675.997 8  -9589410.15945  23345683.090    23345691.9594
 00  5  6  1  8 30.0000000  0  8 03 17 29 09 23 15 21 31
  21615651.869   -22648221.655 8 -17352696.66647  21615651.666    21615658.8224
  22237597.985   -20103258.679 8 -15650892.06546  22237597.482    22237605.4444
  20790314.462   -24576470.660 9 -18848570.61147  20790314.445    20790320.5864
  23500104.699   -11960782.739 8  -9306815.27245  23500104.536    23500112.6914
  21625157.704   -20400751.691 9 -15848626.37347  21625157.265    21625163.6674
  22766937.659   -13828112.802 8 -10765269.44246  22766937.018    22766946.3534
  21287307.280   -23716668.452 9 -16059110.93247  21287306.894    21287313.5614
  23334027.139   -12385929.960 8  -9637140.41145  23334026.760    23334035.5904
 00  5  6  1  9  0.0000000  0  8 03 17 29 09 23 15 21 31
  21615071.175   -22651273.337 8 -17355074.60247  21615070.958    21615078.1074
  22250641.537   -20034714.771 8 -15597481.29346  22250641.032    22250649.0224
  20779840.145   -24631513.244 9 -18891460.85647  20779840.116    20779846.2594
  23497276.290   -11975645.690 8  -9318396.73645  23497276.144    23497284.2534
  21632851.461   -20360320.901 9 -15817121.87947  21632851.029    21632857.4234
  22749749.238   -13918437.940 8 -10835652.51446  22749748.597    22749757.9004
  21283297.773   -23737738.487 9 -16075529.10247  21283297.380    21283304.0514
  23322461.178   -12446709.066 8  -9684500.64345  23322460.816    23322469.6014
 00  5  6  1  9 30.0000000  0  8 03 17 29 09 23 15 21 31
  21614600.253   -22653747.992 8 -17357002.90347  21614600.034    21614607.1814
  22263745.658   -19965852.394 8 -15543822.34346  22263745.150    22263753.1404
  20769453.415   -24686095.565 9 -18933992.45347  20769453.397    20769459.5184
  23494546.551   -11989990.564 8  -9329574.51445  23494546.334    23494554.5134
  21640563.328   -20319794.790 9 -15785543.10947  21640562.900    21640569.3074
  22732573.012   -14008699.082 8 -10905985.72546  22732572.398    22732581.5874
  21279318.332   -23758650.441 9 -16091824.09147  21279317.945    21279324.6074
  23310985.341   -12507014.470 8  -9731491.75245  23310984.991    23310993.7854
 00  5  6  1 10  0.0000000  0  8 03 17 29 09 23 15 21 31
  21614239.444   -22655643.962 9 -17358480.28647  21614239.234    21614246.3774
  22276910.630   -19896670.362 8 -15489914.32846  22276910.116    22276918.1124
  20759154.823   -24740214.657 9 -18976163.10147  20759154.816    20759160.9234
  23491915.938   -12003814.185 8  -9340346.13545  23491915.825    23491923.9284
  21648293.575   -20279172.083 9 -15753889.07147  21648293.119    21648299.5494
  22715409.668   -14098892.489 8 -10976266.15946  22715409.020    22715418.2294
  21275369.234   -23779402.872 9 -16107994.78247  21275368.849    21275375.5014
  23299600.384   -12566842.542 8  -9778110.92845  23299600.022    23299608.7284
 00  5  6  1 10 30.0000000  0  8 03 17 29 09 23 15 21 31
  21613989.297   -22656958.598 8 -17359504.67447  21613989.097    21613996.2394
  22290136.933   -19827166.027 8 -15435755.16046  22290136.410    22290144.4224
  20748945.118   -24793866.691 9 -19017969.80547  20748945.104    20748951.1834
  23489385.344   -12017112.345 8  -9350708.29045  23489385.227    23489393.2854
  21656042.627   -20238450.650 9 -15722158.09647  21656042.164    21656048.6124
  22698260.074   -14189013.705 8 -11046490.34446  22698259.432    22698268.5694
  21271450.982   -23799993.347 9 -16124039.26147  21271450.601    21271457.2254
  23288307.137   -12626188.702 8  -9824354.58945  23288306.701    23288315.4384
 00  5  6  1 11  0.0000000  0  8 03 17 29 09 23 15 21 31
  21613848.685   -22657697.478 8 -17360080.42747  21613848.474    21613855.6154
  22303423.496   -19757344.966 8 -15381349.20046  22303422.961    22303431.0144
  20738823.469   -24847055.944 9 -19059415.90247  20738823.451    20738829.5134
  23486954.048   -12029888.821 8  -9360663.95845  23486953.891    23486961.9404
  21663809.278   -20197636.612 9 -15690354.96747  21663808.827    21663815.2554
  22681123.517   -14279066.403 8 -11116661.14146  22681122.916    22681131.9664
  21267562.426   -23820427.571 9 -16139961.99147  21267562.063    21267568.6754
  23277104.941   -12685056.064 8  -9870225.14845  23277104.526    23277113.2934
 00  5  6  1 11 30.0000000  0  8 03 17 29 09 23 15 21 31
  21613817.838   -22657859.522 8 -17360206.69547  21613817.625    21613824.7614
  22316770.548   -19687206.000 8 -15326695.52346  22316769.952    22316778.0724
  20728790.412   -24899779.745 9 -19100499.31047  20728790.397    20728796.4374
  23484622.525   -12042140.686 8  -9370210.84145  23484622.335    23484630.4114
  21671593.713   -20156729.142 9 -15658479.02747  21671593.268    21671599.7074
  22664000.623   -14369047.397 8 -11186776.06846  22664000.010    22664009.0204
  21263703.810   -23840704.683 9 -16155762.29447  21263703.424    21263710.0604
  23265994.529   -12743441.300 8  -9915720.01845  23265994.128    23266002.9174
 00  5  6  1 12  0.0000000  0  8 03 17 29 09 23 15 21 31
  21613897.663   -22657440.027 8 -17359879.81547  21613897.470    21613904.5834
  22330178.885   -19616744.948 8 -15271790.87846  22330178.319    22330186.4294
  20718846.971   -24952032.638 9 -19141215.78447  20718846.961    20718852.9694
  23482391.948   -12053862.223 8  -9379344.46845  23482391.729    23482399.8564
  21679396.702   -20115724.266 9 -15626527.18947  21679396.256    21679402.6814
  22646892.584   -14458950.216 8 -11256830.09546  22646891.994    22646900.8994
  21259875.888   -23860820.422 9 -16171436.85547  21259875.505    21259882.1244
  23254977.033   -12801338.208 8  -9960834.40445  23254976.585    23254985.3934
 00  5  6  1 12 30.0000000  0  8 03 17 29 09 23 15 21 31
  21614086.446   -22656447.964 8 -17359106.76847  21614086.240    21614093.3764
  22343646.883   -19545970.405 8 -15216641.94346  22343646.296    22343654.3954
  20708991.763   -25003821.852 9 -19181570.94247  20708991.733    20708997.7084
  23480260.978   -12065060.261 8  -9388070.18645  23480260.794    23480268.9144
  21687216.504   -20074631.187 9 -15594506.61447  21687216.033    21687222.4564
  22629798.127   -14548781.765 8 -11326828.56846  22629797.507    22629806.4244
  21256076.991   -23880783.449 9 -16186992.41347  21256076.604    21256083.2204
  23244051.175   -12858753.522 8 -10005573.51145  23244050.699    23244059.5164
 00  5  6  1 13  0.0000000  0  8 03 17 29 09 23 15 21 31
  21614385.149   -22654878.253 8 -17357883.61147  21614384.943    21614392.0964
  22357175.485   -19474877.345 8 -15161244.81846  22357174.890    22357183.0154
  20699225.997   -25055141.074 9 -19221559.87847  20699225.974    20699231.9214
  23478230.912   -12075728.008 8  -9396382.68245  23478230.739    23478238.8904
  21695054.001   -20033444.865 9 -15562413.38547  21695053.557    21695059.9634
  22612718.611   -14638534.711 8 -11396765.80346  22612718.011    22612726.8904
  21252308.063   -23900589.151 9 -16202425.38347  21252307.684    21252314.2904
  23233218.385   -12915679.692 8 -10049931.46945  23233217.928    23233226.7304
 00  5  6  1 13 30.0000000  0  8 03 17 29 09 23 15 21 31
  21614793.850   -22652730.506 8 -17356210.03447  21614793.640    21614800.7814
  22370764.679   -19403465.837 8 -15105599.54946  22370764.092    22370772.2464
  20689549.990   -25105988.546 9 -19261181.21447  20689549.973    20689555.8854
  23476302.101   -12085863.820 8  -9404280.68345  23476301.914    23476310.0434
  21702909.168   -19992165.684 9 -15530247.79447  21702908.699    21702915.1374
  22595654.461   -14728206.883 8 -11466640.11146  22595653.875    22595662.7384
  21248569.133   -23920237.192 9 -16217735.50047  21248568.752    21248575.3374
  23222479.135   -12972114.593 8 -10093906.62645  23222478.673    23222487.4144
 00  5  6  1 14  0.0000000  0  8 03 17 29 09 23 15 21 31
  21615312.092   -22650007.062 8 -17354087.85947  21615311.891    21615319.0254
  22384414.044   -19331738.088 8 -15049707.86146  22384413.473    22384421.6634
  20679963.553   -25156365.241 9 -19300435.70847  20679963.539    20679969.4394
  23474474.486   -12095467.879 8  -9411764.34945  23474474.310    23474482.4134
  21710781.597   -19950795.885 8 -15498011.59447  21710781.119    21710787.5554
  22578605.699   -14817798.069 8 -11536451.30046  22578605.138    22578613.9624
  21244859.807   -23939729.672 9 -16232924.39947  21244859.430    21244866.0064
  23211833.394   -13028057.893 8 -10137498.72245  23211832.952    23211841.6604
 00  5  6  1 14 30.0000000  0  8 03 17 29 09 23 15 21 31
  21615939.975   -22646707.533 8 -17351516.79147  21615939.776    21615946.9124
  22398123.636   -19259693.909 8 -14993569.61246  22398123.052    22398131.2584
  20670467.002   -25206269.813 9 -19339322.32147  20670466.984    20670472.8624
  23472748.356   -12104538.558 8  -9418832.38545  23472748.264    23472756.3044
  21718671.292   -19909335.413 9 -15465704.73947  21718670.817    21718677.2594
  22561572.783   -14907306.091 8 -11606197.70446  22561572.169    22561581.0154
  21241180.123   -23959066.380 9 -16247991.92647  21241179.737    21241186.3134
  23201281.647   -13083507.420 8 -10180706.05845  23201281.207    23201289.8574
 00  5  6  1 15  0.0000000  0  8 03 17 29 09 23 15 21 31
  21616677.919   -22642829.654 8 -17348495.06047  21616677.725    21616684.8274
  22411893.911   -19187330.824 8 -14937182.85446  22411893.329    22411901.5154
  20661060.936   -25255698.629 9 -19377838.20947  20661060.915    20661066.7754
  23471124.506   -12113071.957 8  -9425481.74745  23471124.429    23471132.4484
  21726578.579   -19867782.341 9 -15433325.72747  21726578.123    21726584.5204
  22544556.617   -14996726.289 8 -11675875.67546  22544556.009    22544564.8134
  21237530.476   -23978245.238 9 -16262936.44447  21237530.074    21237536.6354
  23190824.689   -13138458.840 8 -10223525.26645  23190824.207    23190832.8394
 00  5  6  1 15 30.0000000  0  8 03 17 29 09 23 15 21 31
  21617524.626   -22638380.191 8 -17345027.94147  21617524.449    21617531.5174
  22425723.690   -19114655.284 8 -14880552.62846  22425723.065    22425731.2584
  20651744.488   -25304656.541 9 -19415987.16947  20651744.495    20651750.3384
  23469601.960   -12121072.943 8  -9431716.26145  23469601.833    23469609.9174
  21734502.248   -19826143.244 9 -15400879.68547  21734501.797    21734508.1894
  22527556.288   -15086063.014 8 -11745488.60046  22527555.718    22527564.4564
  21233909.687   -23997272.549 9 -16277762.88847  21233909.271    21233915.8344
  23180461.628   -13192916.412 8 -10265959.65445  23180461.181    23180469.8294
 00  5  6  1 16  0.0000000  0  8 03 17 29 09 23 15 21 31
  21618480.790   -22633355.459 8 -17341112.55647  21618480.607    21618487.6764
  22439613.542   -19041663.881 8 -14823676.27046  22439612.909    22439621.1194
  20642518.560   -25353138.824 9 -19453765.49747  20642518.562    20642524.4124
  23468181.720   -12128536.147 8  -9437531.71345  23468181.636    23468189.6994
  21742442.951   -19784414.574 8 -15368363.84247  21742442.480    21742448.8914
  22510572.957   -15175310.517 8 -11815031.99346  22510572.425    22510581.0624
  21230318.297   -24016145.179 9 -16292468.79847  21230317.897    21230324.4514
  23170193.744   -13246874.177 8 -10308004.58846  23170193.339    23170201.9384
 00  5  6  1 16 30.0000000  0  8 03 17 29 09 23 15 21 31
  21619545.687   -22627759.338 8 -17336751.93147  21619545.510    21619552.5924
  22453562.752   -18968360.495 8 -14766556.81146  22453562.122    22453570.3784
  20633382.634   -25401148.117 9 -19491175.26947  20633382.637    20633388.4654
  23466863.380   -12135464.039 8  -9442930.04545  23466863.278    23466871.2874
  21750399.924   -19742600.377 8 -15335781.35347  21750399.452    21750405.8684
  22493606.267   -15264470.521 8 -11884507.21646  22493605.741    22493614.3464
  21226755.791   -24034866.061 9 -16307056.46447  21226755.393    21226761.9394
  23160020.566   -13300334.180 8 -10349661.64546  23160020.162    23160028.7784
 00  5  6  1 17  0.0000000  0  8 03 17 29 09 23 15 21 31
  21620720.151   -22621587.501 8 -17331942.70547  21620719.977    21620727.0494
  22467572.155   -18894740.807 8 -14709190.89446  22467571.574    22467579.8174
  20624337.791   -25448678.744 9 -19528212.05647  20624337.798    20624343.6194
  23465647.985   -12141850.601 8  -9447906.56445  23465647.901    23465655.8514
  21758373.955   -19700696.571 8 -15303129.04447  21758373.501    21758379.9144
  22476657.514   -15353536.360 8 -11953909.06946  22476656.985    22476665.5524
  21223222.941   -24053431.155 9 -16321522.73947  21223222.559    21223229.0974
  23149943.357   -13353289.981 8 -10390925.83846  23149942.918    23149951.5024
 00  5  6  1 17 30.0000000  0  8 03 17 29 09 23 15 21 31
  21622003.982   -22614840.756 8 -17326685.49947  21622003.808    21622010.8894
  22481641.639   -18820805.422 8 -14651578.97146  22481641.064    22481649.3094
  20615384.194   -25495730.074 9 -19564875.36647  20615384.206    20615389.9964
  23464535.850   -12147694.818 8  -9452460.46445  23464535.790    23464543.7504
  21766364.871   -19658703.900 8 -15270407.48747  21766364.409    21766370.8444
  22459727.012   -15442506.316 8 -12023236.20046  22459726.456    22459735.0684
  21219719.606   -24071841.279 9 -16335868.25847  21219719.204    21219725.7394
  23139962.348   -13405739.970 8 -10431795.88546  23139961.998    23139970.5374
 00  5  6  1 18  0.0000000  0  8 03 17 29 09 23 15 21 31
  21623396.396   -22607523.598 8 -17320983.81647  21623396.204    21623403.2974
  22495770.337   -18746558.730 8 -14593724.46846  22495769.772    22495778.0654
  20606521.242   -25542304.815 9 -19601167.31247  20606521.242    20606527.0214
  23463526.357   -12152999.716 8  -9456594.13445  23463526.279    23463534.2034
  21774371.936   -19616626.609 9 -15237619.99047  21774371.496    21774377.9034
  22442814.435   -15531382.003 8 -12092489.87146  22442813.884    22442822.4444
  21216244.930   -24090100.654 9 -16350096.31247  21216244.530    21216251.0494
  23130077.247   -13457686.152 8 -10472273.35946  23130076.871    23130085.4264
 00  5  6  1 18 30.0000000  0  8 03 17 29 09 23 15 21 31
  21624897.864   -22599633.256 8 -17314835.49547  21624897.675    21624904.7594
  22509958.776   -18671998.386 8 -14535625.57246  22509958.200    22509966.4914
  20597749.628   -25588399.758 9 -19637085.38547  20597749.635    20597755.3974
  23462620.233   -12157761.330 8  -9460304.44545  23462620.156    23462628.0324
  21782395.506   -19574462.380 9 -15204764.74947  21782395.042    21782401.4774
  22425920.650   -15620158.935 8 -12161666.58946  22425920.118    22425928.6264
  21212799.430   -24108206.606 9 -16364204.81647  21212799.025    21212805.5654
  23120288.861   -13509124.162 8 -10512354.85246  23120288.477    23120297.0434
 00  5  6  1 19  0.0000000  0  8 03 17 29 09 23 15 21 31
  21626507.366   -22591175.262 8 -17308244.84847  21626507.181    21626514.2554
  22524205.926   -18597129.212 8 -14477286.02346  22524205.357    22524213.6824
  20589068.662   -25634018.280 9 -19672632.22247  20589068.664    20589074.4134
  23461816.887   -12161982.948 8  -9463593.99045  23461816.872    23461824.7394
  21790434.696   -19532216.229 9 -15171845.67147  21790434.226    21790440.6764
  22409045.238   -15708839.622 8 -12230768.30046  22409044.662    22409053.1624
  21209382.194   -24126164.255 9 -16378197.75547  21209381.791    21209388.3164
  23110596.655   -13560056.789 8 -10552042.54746  23110596.247    23110604.8254
 00  5  6  1 19 30.0000000  0  8 03 17 29 09 23 15 21 31
  21628225.370   -22582147.054 9 -17301209.88147  21628225.171    21628232.2734
  22538512.435   -18521948.130 8 -14418703.43546  22538511.883    22538520.2364
  20580479.141   -25679156.323 9 -19707804.66347  20580479.141    20580484.8724
  23461117.107   -12165660.297 8  -9466459.43345  23461117.067    23461124.8924
  21798490.022   -19489885.222 8 -15138860.47747  21798489.550    21798495.9814
  22392189.052   -15797418.993 8 -12299791.06946  22392188.451    22392196.9654
  21205993.827   -24143970.001 9 -16392072.33247  21205993.416    21205999.9454
  23101001.518   -13610479.190 8 -10591332.66746  23101001.140    23101009.6654
 00  5  6  1 20  0.0000000  0  8 03 17 29 09 23 15 21 31
  21630052.471   -22572545.709 8 -17293728.31747  21630052.277    21630059.3554
  22552878.801   -18446452.542 8 -14359875.78546  22552878.227    22552886.6154
  20571981.827   -25723809.769 9 -19742599.49747  20571981.813    20571987.5334
  23460521.715   -12168788.851 8  -9468897.23545  23460521.669    23460529.5124
  21806562.017   -19447466.667 8 -15105807.06547  21806561.551    21806567.9874
  22375353.126   -15885891.865 8 -12368730.85146  22375352.556    22375361.0254
  21202634.948   -24161620.927 9 -16405826.27247  21202634.522    21202641.0404
  23091504.422   -13660386.529 8 -10630221.43046  23091504.074    23091512.5564
 00  5  6  1 20 30.0000000  0  8 03 17 29 09 23 15 21 31
  21631987.320   -22562377.943 8 -17285805.38747  21631987.137    21631994.1954
  22567303.743   -18370649.115 8 -14300808.25146  22567303.171    22567311.6254
  20563575.729   -25767984.006 9 -19777020.91847  20563575.723    20563581.4334
  23460029.742   -12171373.875 8  -9470911.50845  23460029.780    23460037.6044
  21814649.419   -19404967.124 8 -15072690.54347  21814648.943    21814655.3814
  22358536.692   -15974262.323 8 -12437590.81746  22358536.088    22358544.5874
  21199304.219   -24179124.028 9 -16419465.02047  21199303.797    21199310.2954
  23082104.483   -13709783.269 8 -10668712.34046  23082104.122    23082112.6084
 00  5  6  1 21  0.0000000  0  8 03 17 29 09 23 15 21 31
  21634030.590   -22551640.383 8 -17277438.46447  21634030.412    21634037.4884
  22581787.926   -18294534.335 8 -14241498.11546  22581787.394    22581795.8444
  20555261.689   -25811674.201 9 -19811065.17047  20555261.688    20555267.3674
  23459642.209   -12173410.157 8  -9472498.20845  23459642.218    23459650.0534
  21822752.934   -19362382.990 8 -15039508.11447  21822752.453    21822758.8874
  22341740.919   -16062524.150 8 -12506366.15446  22341740.325    22341748.7924
  21196002.348   -24196475.225 9 -16432985.40947  21196001.943    21196008.4354
  23072802.845   -13758663.677 8 -10706800.91046  23072802.442    23072810.8954
 00  5  6  1 21 30.0000000  0  8 03 17 29 09 23 15 21 31
  21636181.792   -22540335.828 8 -17268629.72947  21636181.623    21636188.6854
  22596330.939   -18218110.651 8 -14181947.25646  22596330.406    22596338.8554
  20547039.549   -25854881.655 9 -19844733.25447  20547039.541    20547045.2074
  23459358.860   -12174899.143 8  -9473658.44245  23459358.774    23459366.6624
  21830872.048   -19319716.815 9 -15006261.75747  21830871.552    21830877.9804
  22324965.798   -16150677.590 8 -12575057.01846  22324965.178    22324973.5894
  21192728.951   -24213677.052 9 -16446389.40247  21192728.539    21192735.0154
  23063599.344   -13807028.054 8 -10744487.37646  23063598.973    23063607.3444
 00  5  6  1 22  0.0000000  0  8 03 17 29 09 23 15 21 31
  21638440.750   -22528464.810 8 -17259379.58747  21638440.559    21638447.6574
  22610932.651   -18141378.538 8 -14122156.07146  22610932.097    22610940.5694
  20538909.339   -25897605.944 9 -19878024.84347  20538909.319    20538914.9804
  23459179.857   -12175839.688 8  -9474391.31045  23459179.728    23459187.6014
  21839006.666   -19276969.089 8 -14972951.85447  21839006.181    21839012.6254
  22308211.640   -16238720.830 8 -12643662.02046  22308211.047    22308219.3994
  21189483.930   -24230729.604 9 -16459677.07547  21189483.526    21189489.9904
  23054494.324   -13854875.098 8 -10781770.72846  23054493.976    23054502.3384
 00  5  6  1 22 30.0000000  0  8 03 17 29 09 23 15 21 31
  21640807.560   -22516027.216 8 -17249687.96947  21640807.381    21640814.4544
  22625593.145   -18064337.451 8 -14062124.14046  22625592.578    22625601.0894
  20530871.464   -25939844.837 9 -19910938.21247  20530871.453    20530877.1134
  23459105.670   -12176229.549 8  -9474695.07645  23459105.569    23459113.3614
  21847156.954   -19234138.857 8 -14939577.65847  21847156.498    21847162.9334
  22291479.116   -16326650.489 8 -12712178.50446  22291478.481    22291486.8574
  21186267.423   -24247632.294 9 -16472847.97147  21186267.033    21186273.4734
  23045488.161   -13902202.431 8 -10818649.10346  23045487.811    23045496.1884
 00  5  6  1 23  0.0000000  0  8 03 17 29 09 23 15 21 31
  21643281.950   -22503024.205 8 -17239555.76447  21643281.768    21643288.8604
  22640312.248   -17986988.411 8 -14001852.22746  22640311.708    22640320.1954
  20522926.036   -25981598.141 9 -19943473.19647  20522926.034    20522931.6684
  23459136.356   -12176068.273 8  -9474569.38745  23459136.228    23459144.0374
  21855322.787   -19191227.155 8 -14906139.97547  21855322.325    21855328.7584
  22274768.506   -16414464.924 8 -12780605.20446  22274767.860    22274776.1944
  21183079.394   -24264385.352 9 -16485902.27447  21183079.010    21183085.4644
  23036581.253   -13949008.458 8 -10855121.26946  23036580.908    23036589.2434
 00  5  6  1 23 30.0000000  0  8 03 17 29 09 23 15 21 31
  21645863.748   -22489456.864 8 -17228983.82147  21645863.540    21645870.6324
  22655089.733   -17909332.502 8 -13941341.20346  22655089.218    22655097.6774
  20515073.005   -26022865.873 9 -19975629.81747  20515072.981    20515078.6204
  23459271.945   -12175355.724 8  -9474014.13345  23459271.784    23459279.5594
  21863503.956   -19148234.938 8 -14872639.56547  21863503.492    21863509.9364
  22258080.047   -16502162.902 8 -12848941.17046  22258079.422    22258087.6934
  21179919.591   -24280990.049 9 -16498840.97147  21179919.207    21179925.6324
  23027773.666   -13995292.515 8 -10891186.70246  23027773.234    23027781.6104
 00  5  6  1 24  0.0000000  0  8 03 17 29 09 23 15 21 31
  21648552.287   -22475328.564 8 -17217974.76447  21648552.059    21648559.1944
  22669925.043   -17831372.699 8 -13880593.38646  22669924.547    22669932.9544
  20507312.062   -26063649.692 9 -20007409.36147  20507312.044    20507317.6684
  23459512.140   -12174093.666 8  -9473030.69745  23459511.978    23459519.7484
  21871699.887   -19105165.041 8 -14839078.61847  21871699.418    21871705.8634
  22241413.690   -16589744.776 8 -12917186.66346  22241413.050    22241421.2924
  21176787.563   -24297448.900 9 -16511666.02447  21176787.165    21176793.5884
  23019065.224   -14041055.434 8 -10926846.05846  23019064.793    23019073.1324
 00  5  6  1 24 30.0000000  0  8 03 17 29 09 23 15 21 31
  21651348.366   -22460635.044 8 -17206525.28147  21651348.163    21651355.2804
  22684819.108   -17753104.297 8 -13819605.10246  22684818.597    22684827.0764
  20499644.301   -26103943.800 9 -20038807.31547  20499644.292    20499649.8944
  23459857.973   -12172276.027 8  -9471614.33745  23459857.799    23459865.5834
  21879911.526   -19062012.567 8 -14805453.32847  21879911.073    21879917.4814
  22224770.762   -16677203.319 8 -12985336.05246  22224770.152    22224778.3324
  21173684.214   -24313757.082 9 -16524373.67247  21173683.834    21173690.2184
  23010457.179   -14086290.639 8 -10962094.20646  23010456.763    23010465.1104
 00  5  6  1 25  0.0000000  0  8 03 17 29 09 23 15 21 31
  21654250.609   -22445383.590 8 -17194641.04547  21654250.384    21654257.4964
  22699770.506   -17674534.431 8 -13758381.91946  22699769.926    22699778.4274
  20492068.601   -26143754.058 9 -20069828.24247  20492068.586    20492074.1814
  23460308.559   -12169908.152 8  -9469769.22745  23460308.436    23460316.2454
  21888137.584   -19018784.370 8 -14771769.03347  21888137.108    21888143.5534
  22208150.536   -16764542.709 8 -13053392.60846  22208149.938    22208158.0884
  21170608.235   -24329921.361 9 -16536969.19047  21170607.843    21170614.2194
  23001948.646   -14131003.106 8 -10996935.01046  23001948.213    23001956.5404
 00  5  6  1 25 30.0000000  0  8 03 17 29 09 23 15 21 31
  21657259.611   -22429571.194 8 -17182319.70847  21657259.411    21657266.5014
  22714779.885   -17595659.826 8 -13696921.26046  22714779.335    22714787.8144
  20484585.820   -26183076.080 9 -20100468.72347  20484585.806    20484591.3874
  23460864.663   -12166985.515 8  -9467491.83445  23460864.562    23460872.3334
  21896378.701   -18975477.153 8 -14738023.16047  21896378.233    21896384.6724
  22191554.096   -16851757.117 8 -13121351.76546  22191553.438    22191561.6154
  21167560.335   -24345937.927 9 -16549449.60447  21167559.933    21167566.3114
  22993540.595   -14175187.515 8 -11031364.34446  22993540.154    22993548.4394
 00  5  6  1 26  0.0000000  0  8 03 17 29 09 23 15 21 31
  21660375.662   -22413196.338 8 -17169560.09347  21660375.454    21660382.5374
  22729847.638   -17516478.422 8 -13635221.56046  22729847.104    22729855.6094
  20477196.548   -26221906.759 9 -20130726.34747  20477196.542    20477202.1024
  23461527.013   -12163504.820 8  -9464779.58545  23461526.893    23461534.7204
  21904635.260   -18932088.653 8 -14704213.95947  21904634.777    21904641.2084
  22174982.315   -16938842.034 8 -13189210.03146  22174981.670    22174989.8194
  21164540.983   -24361804.716 9 -16561813.31847  21164540.574    21164546.9414
  22985233.667   -14218840.067 8 -11065379.24946  22985233.254    22985241.5264
 00  5  6  1 26 30.0000000  0  8 03 17 29 09 23 15 21 31
  21663597.783   -22396264.094 8 -17156366.15047  21663597.583    21663604.6564
  22744972.873   -17436995.210 8 -13573286.67046  22744972.333    22744980.9224
  20469900.070   -26260249.883 9 -20160604.05247  20469900.063    20469905.6054
  23462294.884   -12159469.908 8  -9461635.48745  23462294.711    23462302.5474
  21912906.433   -18888623.498 8 -14670345.02047  21912905.941    21912912.3984
  22158434.703   -17025799.892 8 -13256969.28746  22158434.046    22158442.1814
  21161549.356   -24377525.730 9 -16574063.43947  21161548.945    21161555.3214
  22977027.419   -14261963.987 8 -11098982.22346  22977026.975    22977035.2654
 00  5  6  1 27  0.0000000  0  8 03 17 29 09 23 15 21 31
  21666925.727   -22378775.696 8 -17142738.84647  21666925.520    21666932.5884
  22760155.340   -17357211.062 8 -13511117.29246  22760154.803    22760163.4174
  20462696.407   -26298105.080 9 -20190101.56347  20462696.400    20462701.9334
  23463168.274   -12154880.314 8  -9458059.16645  23463168.156    23463175.9144
  21921192.021   -18845082.263 8 -14636416.80447  21921191.545    21921198.0324
  22141911.602   -17112628.898 8 -13324628.15146  22141910.944    22141919.0394
  21158585.286   -24393101.916 9 -16586200.70547  21158584.896    21158591.2684
  22968922.055   -14304557.581 8 -11132171.95346  22968921.586    22968929.8404
 00  5  6  1 27 30.0000000  0  8 03 17 29 09 23 15 21 31
  21670359.681   -22360730.034 8 -17128677.31147  21670359.482    21670366.5644
  22775395.364   -17277124.536 8 -13448712.29746  22775394.843    22775403.4794
  20455586.096   -26335469.886 9 -20219216.94947  20455586.072    20455591.5924
  23464147.781   -12149733.103 8  -9454048.33345  23464147.608    23464155.4254
  21929492.467   -18801463.197 8 -14602427.94047  21929491.989    21929498.4994
  22125413.859   -17199324.712 8 -13392183.22846  22125413.195    22125421.2534
  21155649.175   -24408531.109 9 -16598223.43947  21155648.779    21155655.1564
  22960918.261   -14346617.543 8 -11164945.86946  22960917.797    22960925.9754
 00  5  6  1 28  0.0000000  0  8 03 17 29 09 23 15 21 31
  21673899.457   -22342128.495 8 -17114182.61547  21673899.252    21673906.3184
  22790692.691   -17196736.645 8 -13386072.47546  22790692.192    22790700.8314
  20448569.157   -26372343.970 9 -20247949.95247  20448569.150    20448574.6464
  23465233.363   -12144028.088 8  -9449602.85645  23465233.267    23465241.0084
  21937807.514   -18757767.140 8 -14568379.07947  21937807.052    21937813.5884
  22108941.804   -17285885.642 8 -13459633.19646  22108941.148    22108949.1684
  21152740.917   -24423814.016 9 -16610132.17847  21152740.522    21152746.9024
  22953016.151   -14388143.096 8 -11197303.35246  22953015.688    22953023.9124
 00  5  6  1 28 30.0000000  0  8 03 17 29 09 23 15 21 31
  21677544.643   -22322973.001 8 -17099256.27147  21677544.438    21677551.5154
  22806047.136   -17116049.095 8 -13323199.14046  22806046.582    22806055.2454
  20441645.487   -26408727.865 9 -20276300.99547  20441645.473    20441650.9654
  23466425.104   -12137765.463 8  -9444722.88945  23466425.062    23466432.7054
  21946137.051   -18713995.110 8 -14534271.02047  21946136.606    21946143.1374
  22092495.608   -17372310.545 8 -13526977.18046  22092494.945    22092502.9254
  21149860.208   -24438952.188 9 -16621928.14047  21149859.827    21149866.1774
  22945215.760   -14429134.116 8 -11229244.32546  22945215.338    22945223.5164
 00  5  6  1 29  0.0000000  0  8 03 17 29 09 23 15 21 31
  21681295.387   -22303262.643 8 -17083897.56547  21681295.152    21681302.2794
  22821458.822   -17035060.437 8 -13260091.18246  22821458.273    22821466.9744
  20434815.574   -26444619.172 9 -20304268.19847  20434815.552    20434821.0324
  23467723.466   -12130942.620 8  -9439406.36945  23467723.363    23467730.9584
  21954481.330   -18670145.626 8 -14500102.61047  21954480.909    21954487.4224
  22076076.064   -17458595.339 8 -13594211.99046  22076075.401    22076083.3424
  21147007.383   -24453943.789 9 -16633609.89047  21147007.002    21147013.3374
  22937517.789   -14469586.890 8 -11260765.88046  22937517.358    22937525.5604
 00  5  6  1 29 30.0000000  0  8 03 17 29 09 23 15 21 31
  21685150.543   -22283003.742 8 -17068111.42647  21685150.313    21685157.4594
  22836926.612   -16953776.964 8 -13196753.48246  22836926.115    22836934.8124
  20428078.418   -26480022.990 9 -20331855.53847  20428078.396    20428083.8674
  23469127.420   -12123564.772 8  -9433657.39345  23469127.182    23469134.9034
  21962839.249   -18626224.600 8 -14465878.44747  21962838.823    21962845.3324
  22059682.574   -17544743.381 8 -13661340.23846  22059681.911    22059689.8514
  21144181.414   -24468794.356 9 -16645181.74547  21144181.008    21144187.3644
  22929921.449   -14509505.810 8 -11291871.44346  22929920.946    22929929.1924
 00  5  6  1 30  0.0000000  0  8 03 17 29 09 23 15 21 31
  21689111.133   -22262190.806 8 -17051893.56947  21689110.891    21689118.0454
  22852451.707   -16872192.497 8 -13133181.25246  22852451.187    22852459.9014
  20421435.408   -26514932.097 9 -20359057.39447  20421435.384    20421440.8504
  23470638.360   -12115624.386 8  -9427470.07345  23470638.125    23470645.8594
  21971212.056   -18582225.532 8 -14431593.47847  21971211.597    21971218.0924
  22043316.772   -17630745.788 8 -13728355.00746  22043316.100    22043324.0254
  21141383.540   -24483497.097 9 -16656638.41647  21141383.135    21141389.4944
  22922428.129   -14548883.048 8 -11322554.93146  22922427.624    22922435.8604
 00  5  6  1 30 30.0000000  0  8 03 17 29 09 23 15 21 31
  21693175.989   -22240829.750 8 -17035248.60947  21693175.777    21693182.9084
  22868033.116   -16790312.089 8 -13069378.41546  22868032.601    22868041.3004
  20414885.767   -26549350.426 9 -20385876.82647  20414885.739    20414891.2064
  23472255.659   -12107125.408 8  -9420847.47745  23472255.415    23472263.2494
  21979598.751   -18538153.204 8 -14397251.42347  21979598.291    21979604.7744
  22026978.319   -17716604.604 8 -13795257.88646  22026977.641    22026985.5204
  21138612.942   -24498056.633 9 -16667983.49847  21138612.543    21138618.9194
  22915037.325   -14587721.701 8 -11352818.73046  22915036.850    22915045.0274
 00  5  6  1 31  0.0000000  0  8 03 17 29 09 23 15 21 31
  21697344.719   -22218922.911 8 -17018178.35947  21697344.521    21697351.6454
  22883670.446   -16708137.831 8 -13005346.59746  22883669.875    22883678.6154
  20408429.311   -26583278.997 9 -20412314.62847  20408429.288    20408434.7394
  23473979.084   -12098068.684 8  -9413790.28845  23473978.833    23473986.7174
  21987999.095   -18494009.090 8 -14362853.42747  21987998.635    21988005.1264
  22010667.336   -17802319.060 8 -13862048.27546  22010666.653    22010674.5094
  21135869.201   -24512475.056 9 -16679218.61447  21135868.812    21135875.1724
  22907748.990   -14626021.889 8 -11382662.95846  22907748.496    22907756.6824
 00  5  6  1 31 30.0000000  0  8 03 17 29 09 23 15 21 31
  21701618.273   -22196465.286 8 -17000678.92747  21701618.082    21701625.2204
  22899364.677   -16625664.412 8 -12941081.67246  22899364.110    22899372.8524
  20402067.314   -26616711.433 9 -20438365.83447  20402067.283    20402072.7244
  23475809.956   -12088447.564 8  -9406293.30645  23475809.695    23475817.5494
  21996414.258   -18449787.275 8 -14328394.88847  21996413.789    21996420.3054
  21994385.376   -17887880.804 8 -13928719.66746  21994384.734    21994392.5594
  21133153.485   -24526746.141 9 -16690338.92947  21133153.083    21133159.4214
  22900564.482   -14663776.435 8 -11412082.00946  22900564.000    22900572.0964
 00  5  6  1 32  0.0000000  0  8 03 17 29 09 23 15 21 31
  21705995.461   -22173463.084 8 -16982755.15347  21705995.262    21706002.4134
  22915114.808   -16542897.181 8 -12876587.79846  22915114.247    22915123.0144
  20395798.867   -26649652.142 9 -20464033.87747  20395798.832    20395804.2574
  23477747.369   -12078266.626 8  -9398360.09145  23477747.113    23477754.9364
  22004843.208   -18405492.851 8 -14293879.76647  22004842.744    22004849.2574
  21978131.953   -17973292.642 8 -13995274.26146  21978131.327    21978139.1094
  21130464.858   -24540874.909 9 -16701348.34747  21130464.464    21130470.7914
  22893483.077   -14700989.092 8 -11441078.80446  22893482.632    22893490.6694
 00  5  6  1 32 30.0000000  0  8 03 17 29 09 23 15 21 31
  21710476.169   -22149916.946 8 -16964407.53047  21710475.980    21710483.1134
  22930920.745   -16459836.693 8 -12811865.41846  22930920.194    22930928.9684
  20389624.127   -26682100.549 9 -20489318.30447  20389624.087    20389629.5074
  23479791.398   -12067525.116 8  -9389990.07345  23479791.188    23479798.9604
  22013285.962   -18361125.836 8 -14259308.07847  22013285.509    22013292.0144
  21961907.523   -18058552.080 8 -14061710.08946  21961906.918    21961914.6834
  21127803.323   -24554861.349 9 -16712246.85347  21127802.917    21127809.2334
  22886505.065   -14737658.413 8 -11469652.21646  22886504.603    22886512.6224
 00  5  6  1 33  0.0000000  0  8 03 17 29 09 23 15 21 31
  21715060.099   -22125828.304 8 -16945637.18147  21715059.897    21715067.0624
  22946782.292   -16376483.909 8 -12746915.26346  22946781.773    22946790.5304
  20383543.030   -26714056.657 9 -20514219.12947  20383543.007    20383548.4044
  23481942.074   -12056223.160 8  -9381183.34245  23481941.891    23481949.5784
  22021742.405   -18316686.916 8 -14224680.35947  22021741.935    22021748.4704
  21945712.484   -18143657.281 8 -14128025.73746  21945711.870    21945719.6014
  21125168.792   -24568705.785 9 -16723034.71447  21125168.400    21125174.7084
  22879630.617   -14773783.430 8 -11497801.51546  22879630.182    22879638.1884
 00  5  6  1 33 30.0000000  0  8 03 17 29 09 23 15 21 31
  21719747.551   -22101195.538 8 -16926442.83747  21719747.372    21719754.5344
  22962699.904   -16292836.574 8 -12681735.59146  22962699.413    22962708.2324
  20377556.292   -26745516.935 9 -20538733.59147  20377556.271    20377561.6514
  23484200.110   -12044357.020 8  -9371936.99845  23484199.927    23484207.6004
  22030213.101   -18272173.227 8 -14189994.38747  22030212.631    22030219.1634
  21929547.745   -18228603.091 8 -14194217.18546  21929547.141    21929554.8454
  21122561.864   -24582405.310 9 -16733709.65247  21122561.485    21122567.7704
  22872860.562   -14809360.130 8 -11525523.54046  22872860.089    22872868.0784
 00  5  6  1 34  0.0000000  0  8 03 17 29 09 23 15 21 31
  21724537.748   -22076022.946 8 -16906827.85647  21724537.556    21724544.7194
  22978672.869   -16208898.326 8 -12616329.24146  22978672.356    22978681.2174
  20371663.349   -26776484.457 9 -20562864.08347  20371663.341    20371668.6894
  23486565.020   -12031929.273 8  -9362253.03345  23486564.839    23486572.5474
  22038697.430   -18227587.940 8 -14155252.61547  22038696.947    22038703.4884
  21913413.137   -18313390.532 8 -14260285.21946  21913412.530    21913420.2394
  21119981.864   -24595963.275 9 -16744274.27947  21119981.471    21119987.7574
  22866194.431   -14844390.523 8 -11552819.88746  22866193.944    22866201.9674
 00  5  6  1 34 30.0000000  0  8 03 17 29 09 23 15 21 31
  21729430.194   -22050313.141 8 -16886794.26947  21729429.989    21729437.1564
  22994700.756   -16124671.484 8 -12550698.02846  22994700.250    22994709.1654
  20365863.926   -26806960.286 9 -20586611.44047  20365863.916    20365869.2634
  23489036.476   -12018941.497 8  -9352132.67945  23489036.289    23489044.0194
  22047194.966   -18182933.002 8 -14120456.57947  22047194.505    22047201.0604
  21897308.875   -18398018.641 8 -14326229.11446  21897308.249    21897315.9604
  21117428.508   -24609381.185 9 -16754729.78447  21117428.129    21117434.3994
  22859632.099   -14878875.405 8 -11579691.15646  22859631.636    22859639.6514
 00  5  6  1 35  0.0000000  0  8 03 17 29 09 23 15 21 31
  21734425.366   -22024063.324 8 -16866339.89147  21734425.151    21734432.3464
  23010784.279   -16040152.247 8 -12484838.97746  23010783.746    23010792.6814
  20360159.023   -26836939.662 9 -20609971.94747  20360159.005    20360164.3584
  23491615.474   -12005388.730 8  -9341572.06645  23491615.303    23491623.0314
  22055706.653   -18138203.950 8 -14085602.78347  22055706.182    22055712.7384
  21881236.238   -18482480.547 8 -14392043.49346  21881235.626    21881243.3174
  21114902.605   -24622654.812 9 -16765072.84847  21114902.217    21114908.4874
  22853174.708   -14912808.898 8 -11606132.78046  22853174.277    22853182.2494
 00  5  6  1 35 30.0000000  0  8 03 17 29 09 23 15 21 31
  21739522.432   -21997278.062 8 -16845468.28847  21739522.232    21739529.4384
  23026922.591   -15955345.156 8 -12418755.59846  23026922.004    23026931.0364
  20354547.953   -26866425.869 9 -20632948.17047  20354547.930    20354553.2674
  23494301.361   -11991274.238 8  -9330573.75645  23494301.184    23494308.9034
  22064231.674   -18093404.644 8 -14050694.24647  22064231.210    22064237.7464
  21865194.933   -18566777.672 8 -14457729.47546  21865194.321    21865202.0054
  21112403.514   -24635787.492 9 -16775306.08847  21112403.118    21112409.3904
  22846821.810   -14946193.260 8 -11632146.50946  22846821.385    22846829.3454
 00  5  6  1 36  0.0000000  0  8 03 17 29 09 23 15 21 31
  21744721.263   -21969958.064 8 -16824180.01047  21744721.073    21744728.2564
  23043115.613   -15870250.505 8 -12352448.17545  23043115.024    23043124.0604
  20349030.787   -26895418.476 9 -20655539.77547  20349030.769    20349036.0924
  23497094.364   -11976597.026 8  -9319136.96445  23497094.140    23497101.7674
  22072770.148   -18048534.654 8 -14015730.63047  22072769.690    22072776.2254
  21849185.574   -18650907.072 8 -14523284.76346  21849184.974    21849192.6144
  21109931.248   -24648779.240 9 -16785429.51247  21109930.869    21109937.1214
  22840573.653   -14979027.345 8 -11657731.46546  22840573.250    22840581.1714
 00  5  6  1 36 30.0000000  0  8 03 17 29 09 23 15 21 31
  21750021.312   -21942106.159 8 -16802477.26547  21750021.124    21750028.3134
  23059363.042   -15784870.054 8 -12285918.05145  23059362.476    23059371.5474
  20343607.485   -26923918.052 9 -20677747.19947  20343607.464    20343612.7824
  23499994.130   -11961358.312 8  -9307262.63745  23499993.972    23500001.6354
  22081321.823   -18003595.365 8 -13980713.01447  22081321.369    22081327.8934
  21833208.295   -18734867.898 8 -14588708.68946  21833207.695    21833215.3144
  21107485.601   -24661631.109 9 -16795443.93347  21107485.222    21107491.4904
  22834430.174   -15011311.262 8 -11682887.72146  22834429.744    22834437.7124
 00  5  6  1 37  0.0000000  0  8 03 17 29 09 23 15 21 31
  21755423.210   -21913719.269 8 -16780357.64747  21755423.014    21755430.2204
  23075665.574   -15699200.114 8 -12219162.33445  23075664.999    23075674.0344
  20338278.842   -26951920.102 9 -20699566.94047  20338278.823    20338284.1264
  23503001.706   -11945553.208 8  -9294946.96945  23503001.541    23503009.2194
  22089887.539   -17958582.379 8 -13945637.97247  22089887.079    22089893.5864
  21817264.417   -18818653.243 8 -14653995.88246  21817263.783    21817271.4114
  21105067.428   -24674338.637 9 -16805345.88847  21105067.036    21105073.2974
  22828392.464   -15043039.430 8 -11707610.92346  22828392.033    22828399.9624
 00  5  6  1 37 30.0000000  0  8 03 17 29 09 23 15 21 31
  21760925.334   -21884805.435 8 -16757827.42447  21760925.125    21760932.3614
  23092021.645   -15613248.500 8 -12152187.15245  23092021.086    23092030.1934
  20333043.627   -26979431.134 9 -20721004.06547  20333043.587    20333048.8924
  23506115.771   -11929188.359 8  -9282195.13045  23506115.685    23506123.3074
  22098465.924   -17913502.655 8 -13910510.92447  22098465.461    22098471.9674
  21801353.071   -18902267.522 8 -14719149.78146  21801352.428    21801360.0324
  21102675.436   -24686908.560 9 -16815140.61547  21102675.052    21102681.3154
  22822459.372   -15074217.697 8 -11731905.64446  22822458.961    22822466.8864
 00  5  6  1 38  0.0000000  0  8 03 17 29 09 23 15 21 31
  21766528.481   -21855360.827 8 -16734883.61347  21766528.296    21766535.5124
  23108432.156   -15527010.958 8 -12084989.16645  23108431.626    23108440.7274
  20327902.836   -27006446.062 9 -20742054.62647  20327902.816    20327908.0944
  23509337.368   -11912258.633 8  -9269003.12645  23509337.295    23509344.9264
  22107057.921   -17868351.448 8 -13875328.18547  22107057.463    22107063.9774
  21785475.655   -18985703.587 8 -14784164.81446  21785475.030    21785482.5954
  21100310.521   -24699336.062 9 -16824824.36747  21100310.129    21100316.4094
  22816632.045   -15104840.374 8 -11755767.44146  22816631.625    22816639.5284
 00  5  6  1 38 30.0000000  0  8 03 17 29 09 23 15 21 31
  21772231.802   -21825389.785 8 -16711529.58547  21772231.608    21772238.8424
  23124896.457   -15440490.922 8 -12017571.05745  23124895.927    23124905.0404
  20322855.954   -27032967.452 9 -20762720.60947  20322855.930    20322861.2024
  23512666.089   -11894766.282 8  -9255372.72845  23512665.980    23512673.5564
  22115663.034   -17823131.310 8 -13840091.72347  22115662.575    22115669.1074
  21769632.099   -19068961.725 8 -14849041.20046  21769631.458    21769639.0054
  21097972.157   -24711624.216 9 -16834399.53347  21097971.778    21097978.0434
  22810910.160   -15134908.899 8 -11779197.42846  22810909.776    22810917.6474
 00  5  6  1 39  0.0000000  0  8 03 17 29 09 23 15 21 31
  21778035.417   -21794891.757 8 -16687764.92147  21778035.190    21778042.4534
  23141414.713   -15353687.296 8 -11949931.96045  23141414.162    23141423.2964
  20317903.416   -27058993.174 9 -20783000.35247  20317903.378    20317908.6474
  23516102.173   -11876709.568 8  -9241302.55045  23516102.041    23516109.6764
  22124281.544   -17777840.585 8 -13804800.26047  22124281.089    22124287.6464
  21753823.247   -19152037.514 8 -14913775.49546  21753822.582    21753830.1294
  21095660.743   -24723770.758 9 -16843864.35247  21095660.358    21095666.6264
  22805294.174   -15164420.774 8 -11802193.67146  22805293.804    22805301.6824
 00  5  6  1 39 30.0000000  0  8 03 17 29 09 23 15 21 31
  21783938.598   -21763870.446 8 -16663592.50547  21783938.393    21783945.6614
  23157986.392   -15266603.052 8 -11882074.20345  23157985.890    23157995.0384
  20313044.767   -27084525.297 9 -20802895.48147  20313044.722    20313049.9984
  23519645.261   -11858090.638 8  -9226794.29145  23519645.059    23519652.6804
  22132913.084   -17732481.576 8 -13769455.59447  22132912.624    22132919.2144
  21738049.061   -19234930.992 8 -14978367.73046  21738048.432    21738055.9174
  21093375.862   -24735777.788 9 -16853220.46747  21093375.480    21093381.7404
  22799783.913   -15193377.432 8 -11824757.27446  22799783.518    22799791.3854
 00  5  6  1 40  0.0000000  0  8 03 17 29 09 23 15 21 31
  21789940.902   -21732328.205 8 -16639014.16447  21789940.708    21789947.9604
  23174611.149   -15179239.603 8 -11813998.88745  23174610.700    23174619.7354
  20308279.950   -27109564.362 9 -20822406.40547  20308279.930    20308285.2004
  23523295.304   -11838909.757 8  -9211848.14545  23523295.042    23523302.6874
  22141557.494   -17687054.972 8 -13734058.25047  22141557.049    22141563.6534
  21722309.864   -19317640.541 8 -15042816.64146  21722309.248    21722316.7164
  21091117.297   -24747646.491 9 -16862468.78647  21091116.904    21091123.1664
  22794379.332   -15221778.488 8 -11846887.93346  22794378.950    22794386.8074
 00  5  6  1 40 30.0000000  0  8 03 17 29 09 23 15 21 31
  21796042.436   -21700264.647 8 -16614029.60047  21796042.224    21796049.5004
  23191289.249   -15091596.010 8 -11745705.27145  23191288.785    23191297.8284
  20303609.283   -27134108.706 9 -20841531.83247  20303609.264    20303614.5184
  23527052.545   -11819165.333 8  -9196462.86445  23527052.280    23527059.8844
  22150215.087   -17641559.019 8 -13698606.87447  22150214.625    22150221.2514
  21706606.498   -19400161.981 8 -15107118.97646  21706605.920    21706613.3294
  21088885.437   -24759374.983 9 -16871607.85047  21088885.059    21088891.3154
  22789080.943   -15249621.510 8 -11868583.77046  22789080.538    22789088.3884
 00  5  6  1 41  0.0000000  0  8 03 17 29 09 23 15 21 31
  21802242.759   -21667681.926 8 -16588640.49847  21802242.532    21802249.8024
  23208020.371   -15003673.793 8 -11677194.55045  23208019.842    23208028.9664
  20299032.639   -27158158.913 9 -20860272.22047  20299032.622    20299037.8744
  23530916.937   -11798857.758 8  -9180638.77745  23530916.625    23530924.3684
  22158885.740   -17595994.426 8 -13663102.00447  22158885.303    22158891.9234
  21690939.227   -19482493.571 8 -15171273.37646  21690938.626    21690946.0394
  21086680.072   -24770964.094 9 -16880638.30247  21086679.685    21086685.9364
  22783888.838   -15276906.190 8 -11889844.54246  22783888.453    22783896.2784
 00  5  6  1 41 30.0000000  0  8 03 17 29 09 23 15 21 31
  21808541.862   -21634579.981 8 -16562846.79747  21808541.681    21808548.9084
  23224804.636   -14915472.308 8 -11608466.21045  23224804.133    23224813.2704
  20294550.351   -27181713.277 9 -20878626.23447  20294550.335    20294555.5814
  23534888.736   -11777985.694 8  -9164374.82345  23534888.426    23534896.1634
  22167569.740   -17550359.935 8 -13627542.67446  22167569.291    22167575.9204
  21675308.879   -19564631.454 8 -15235276.83046  21675308.237    21675315.6484
  21084501.587   -24782412.128 9 -16889558.82947  21084501.194    21084507.4334
  22778803.361   -15303630.538 8 -11910668.68446  22778802.933    22778810.7544
 00  5  6  1 42  0.0000000  0  8 03 17 29 09 23 15 21 31
  21814938.722   -21600964.518 8 -16536652.96147  21814938.522    21814945.7484
  23241641.024   -14826996.601 8 -11539524.20945  23241640.497    23241649.7094
  20290161.659   -27204775.944 9 -20896597.10947  20290161.653    20290166.8904
  23538967.167   -11756553.144 8  -9147674.12245  23538966.912    23538974.6704
  22176266.213   -17504659.615 8 -13591932.04646  22176265.771    22176272.4044
  21659715.025   -19646577.280 8 -15299130.63046  21659714.402    21659721.8024
  21082349.167   -24793723.151 9 -16898372.59147  21082348.784    21082355.0054
  22773823.901   -15329797.650 8 -11931058.60946  22773823.490    22773831.2704
 00  5  6  1 42 30.0000000  0  8 03 17 29 09 23 15 21 31
  21821433.708   -21566833.275 8 -16510057.21647  21821433.486    21821440.7364
  23258530.192   -14738243.486 8 -11470366.03045  23258529.695    23258538.8934
  20285867.244   -27227343.106 9 -20914181.88347  20285867.236    20285872.4634
  23543152.947   -11734556.453 8  -9130533.83845  23543152.754    23543160.5854
  22184975.965   -17458889.653 8 -13556267.16646  22184975.521    22184982.1634
  21644158.928   -19728324.657 8 -15362829.80046  21644158.321    21644165.6814
  21080223.664   -24804892.687 9 -16907076.10647  21080223.285    21080229.4984
  22768951.374   -15355402.955 8 -11951010.76946  22768950.953    22768958.7094
 00  5  6  1 43  0.0000000  0  8 03 17 29 09 23 15 21 31
  21828025.819   -21532191.478 8 -16483063.63447  21828025.593    21828032.8424
  23275471.323   -14649217.456 7 -11400995.19745  23275470.817    23275480.0614
  20281666.481   -27249418.003 9 -20931383.07647  20281666.485    20281671.6944
  23547445.494   -11711998.819 8  -9112956.45945  23547445.293    23547453.1434
  22193698.278   -17413053.641 8 -13520550.80846  22193697.833    22193704.4564
  21628640.407   -19809874.736 8 -15426375.23346  21628639.784    21628647.1454
  21078124.292   -24815924.787 9 -16915672.52747  21078123.918    21078130.1064
  22764185.284   -15380448.912 8 -11970527.06946  22764184.843    22764192.5844
 00  5  6  1 43 30.0000000  0  8 03 17 29 09 23 15 21 31
  21834715.017   -21497039.788 8 -16455672.74247  21834714.791    21834722.0544
  23292464.443   -14559918.439 7 -11331411.63645  23292463.932    23292473.2374
  20277559.520   -27271000.132 9 -20948200.29147  20277559.518    20277564.7144
  23551844.914   -11688879.625 8  -9094941.48745  23551844.717    23551852.5354
  22202433.317   -17367150.654 8 -13484782.26146  22202432.866    22202439.4984
  21613159.995   -19891224.367 8 -15489764.47946  21613159.401    21613166.7164
  21076051.256   -24826818.567 9 -16924161.16547  21076050.874    21076057.0564
  22759525.849   -15404934.220 8 -11989606.50246  22759525.408    22759533.1414
 00  5  6  1 44  0.0000000  0  8 03 17 29 09 23 15 21 31
  21841501.343   -21461377.376 8 -16427883.88247  21841501.143    21841508.3954
  23309509.754   -14470344.969 7 -11261614.21645  23309509.202    23309518.6094
  20273546.843   -27292086.781 9 -20964631.41547  20273546.836    20273552.0174
  23556351.574   -11665196.779 8  -9076487.31645  23556351.437    23556359.1434
  22211181.565   -17321178.316 8 -13448959.67146  22211181.109    22211187.7574
  21597718.697   -19972368.631 8 -15552993.69646  21597718.081    21597725.3974
  21074005.028   -24837571.653 9 -16932540.16847  21074004.630    21074010.8214
  22754973.634   -15428856.227 8 -12008247.00446  22754973.180    22754980.8984
 00  5  6  1 44 30.0000000  0  8 03 17 29 09 23 15 21 31
  21848383.824   -21425209.916 8 -16399701.47147  21848383.599    21848390.8784
  23326606.380   -14380501.940 7 -11191606.76645  23326605.866    23326615.2774
  20269627.653   -27312682.242 9 -20980679.79147  20269627.629    20269632.8154
  23560964.748   -11640954.441 8  -9057597.16445  23560964.613    23560972.3544
  22219942.258   -17275140.591 8 -13413086.12646  22219941.794    22219948.4664
  21582316.209   -20053308.921 8 -15616063.97747  21582315.624    21582322.8974
  21071984.822   -24848187.739 9 -16940812.41347  21071984.419    21071990.6064
  22750528.056   -15452217.781 8 -12026450.78146  22750527.607    22750535.3074
 00  5  6  1 45  0.0000000  0  8 03 17 29 09 23 15 21 31
  21855362.420   -21388537.251 8 -16371125.40647  21855362.198    21855369.4844
  23343754.537   -14290388.337 7 -11121388.46945  23343753.935    23343763.4834
  20265802.295   -27332784.397 9 -20996343.78147  20265802.277    20265807.4424
  23565684.770   -11616150.439 8  -9038269.35845  23565684.626    23565692.3954
  22228715.794   -17229035.455 8 -13377160.05946  22228715.321    22228721.9734
  21566953.313   -20134041.093 8 -15678972.09047  21566952.700    21566959.9674
  21069991.039   -24858664.942 9 -16948976.44847  21069990.629    21069996.8244
  22746189.554   -15475016.585 8 -12044216.06846  22746189.091    22746196.8314
 00  5  6  1 45 30.0000000  0  8 03 17 29 09 23 15 21 31
  21862436.758   -21351361.451 8 -16342157.28447  21862436.550    21862443.8204
  23360953.804   -14200005.666 7 -11050960.53045  23360953.229    23360962.8044
  20262070.648   -27352394.223 9 -21011624.13947  20262070.641    20262075.7914
  23570511.539   -11590785.545 8  -9018504.51145  23570511.375    23570519.1744
  22237502.037   -17182863.571 8 -13341181.98046  22237501.538    22237508.2254
  21551630.416   -20214563.203 8 -15741716.52147  21551629.817    21551637.0594
  21068023.577   -24869003.933 9 -16957032.78047  21068023.171    21068029.3674
  22741958.177   -15497252.473 8 -12061542.70446  22741957.720    22741965.4704
 00  5  6  1 46  0.0000000  0  8 03 17 29 09 23 15 21 31
  21869606.721   -21313683.166 8 -16312797.61647  21869606.497    21869613.8154
  23378204.323   -14109354.040 7 -10980323.01045  23378203.697    23378213.2944
  20258432.921   -27371510.578 9 -21026519.97547  20258432.919    20258438.0444
  23575445.165   -11564859.109 8  -8998302.08245  23575445.029    23575452.8244
  22246301.162   -17136623.867 8 -13305151.05646  22246300.656    22246307.3644
  21536348.169   -20294871.745 8 -15804294.53747  21536347.557    21536354.8014
  21066082.646   -24879203.495 9 -16964980.46847  21066082.245    21066088.4334
  22737834.158   -15518924.133 8 -12078429.68946  22737833.686    22737841.4504
 00  5  6  1 46 30.0000000  0  8 03 17 29 09 23 15 21 31
  21876871.344   -21275507.295 8 -16283050.20747  21876871.147    21876878.4584
  23395505.289   -14018437.157 7 -10909478.77745  23395504.669    23395514.2594
  20254888.477   -27390136.545 9 -21041033.68147  20254888.462    20254893.5874
  23580485.130   -11538373.979 8  -8977664.31745  23580484.960    23580492.7484
  22255112.662   -17090319.177 8 -13269069.49246  22255112.166    22255118.8684
  21521106.506   -20374966.891 8 -15866706.27147  21521105.908    21521113.1434
  21064167.677   -24889266.584 9 -16972821.81547  21064167.271    21064173.4504
  22733817.181   -15540033.306 8 -12094878.36746  22733816.726    22733824.4394
 00  5  6  1 47  0.0000000  0  8 03 17 29 09 23 15 21 31
  21884230.935   -21236832.417 8 -16252913.96747  21884230.723    21884238.0684
  23412857.204   -13927252.703 7 -10838426.06745  23412856.636    23412866.2014
  20251437.914   -27408269.328 9 -21055163.09347  20251437.881    20251443.0204
  23585631.937   -11511327.447 8  -8956589.09945  23585631.797    23585639.4944
  22263937.084   -17043946.585 8 -13232935.02346  22263936.587    22263943.3154
  21505906.451   -20454843.291 8 -15928947.55447  21505905.851    21505913.0664
  21062279.322   -24899189.910 9 -16980554.26247  21062278.908    21062285.0844
  22729907.848   -15560576.708 8 -12110886.19046  22729907.403    22729915.1514
 00  5  6  1 47 30.0000000  0  8 03 17 29 09 23 15 21 31
  21891684.681   -21197662.870 8 -16222392.28347  21891684.492    21891691.8334
  23430259.273   -13835804.291 7 -10767167.68045  23430258.759    23430268.3404
  20248080.720   -27425911.348 9 -21068910.09547  20248080.706    20248085.8384
  23590884.942   -11483722.608 8  -8935078.83545  23590884.830    23590892.5504
  22272773.960   -16997508.432 8 -13196749.45246  22272773.480    22272780.2034
  21490747.997   -20534501.414 8 -15991018.75147  21490747.375    21490754.5814
  21060417.071   -24908975.916 9 -16988179.70347  21060416.657    21060422.8204
  22726105.758   -15580556.671 8 -12126454.96646  22726105.315    22726113.0524
 00  5  6  1 48  0.0000000  0  8 03 17 29 09 23 15 21 31
  21899232.384   -21157999.477 8 -16191485.78247  21899232.187    21899239.5544
  23447711.683   -13744091.833 7 -10695703.53145  23447711.197    23447720.8814
  20244816.996   -27443062.146 9 -21082274.32547  20244816.975    20244822.1144
  23596244.324   -11455558.652 8  -8913132.89945  23596244.270    23596251.9744
  22281623.516   -16951003.694 8 -13160512.00146  22281623.043    22281629.7754
  21475631.761   -20613937.470 8 -16052916.91047  21475631.130    21475638.3164
  21058581.159   -24918623.699 9 -16995697.44047  21058580.758    21058586.9234
  22722411.216   -15599971.453 8 -12141583.34846  22722410.842    22722418.5274
 00  5  6  1 48 30.0000000  0  8 03 17 29 09 23 15 21 31
  21906873.205   -21117846.870 8 -16160198.07547  21906873.027    21906880.3694
  23465213.595   -13652119.086 7 -10624036.57145  23465213.061    23465222.7354
  20241646.255   -27459724.403 9 -21095257.87847  20241646.240    20241651.3784
  23601709.511   -11426838.723 8  -8890753.72545  23601709.447    23601717.1294
  22290485.259   -16904435.027 8 -13124224.74046  22290484.798    22290491.5154
  21460557.730   -20693151.673 8 -16114642.20447  21460557.116    21460564.2834
  21056771.103   -24928135.543 9 -17003109.25147  21056770.701    21056776.8684
  22718823.815   -15618823.264 8 -12156273.04146  22718823.417    22718831.1624
 00  5  6  1 49  0.0000000  0  8 03 17 29 09 23 15 21 31
  21914607.646   -21077202.266 8 -16128527.00046  21914607.443    21914614.7934
  23482765.752   -13559882.427 7 -10552163.96045  23482765.230    23482774.7604
  20238569.276   -27475893.834 9 -21107857.40947  20238569.260    20238574.3994
  23607281.341   -11397558.538 8  -8867938.00345  23607281.239    23607288.9774
  22299360.033   -16857797.648 8 -13087883.93346  22299359.585    22299366.2864
  21445527.314   -20772136.744 8 -16176188.94547  21445526.701    21445533.8564
  21054987.702   -24937507.178 9 -17010411.80647  21054987.306    21054993.4594
  22715344.517   -15637107.075 8 -12170520.14146  22715344.074    22715351.8414
 00  5  6  1 49 30.0000000  0  8 03 17 29 09 23 15 21 31
  21922434.613   -21036071.380 8 -16096477.00146  21922434.414    21922441.7464
  23500367.185   -13467386.776 7 -10480089.55545  23500366.624    23500376.2104
  20235585.357   -27491574.356 9 -21120075.97347  20235585.346    20235590.4784
  23612958.991   -11367722.192 8  -8844688.89945  23612958.868    23612966.6714
  22308247.168   -16811095.421 8 -13051492.59946  22308246.722    22308253.4074
  21430540.194   -20850894.224 8 -16237558.34547  21430539.596    21430546.7254
  21053230.361   -24946742.137 9 -17017607.86347  21053229.952    21053236.1144
  22711972.641   -15654826.408 8 -12184327.39546  22711972.219    22711979.9404
 00  5  6  1 50  0.0000000  0  8 03 17 29 09 23 15 21 31
  21930353.930   -20994455.253 8 -16064048.89146  21930353.742    21930361.0844
  23518017.870   -13374632.409 7 -10407813.54545  23518017.275    23518026.9024
  20232694.462   -27506765.960 9 -21131913.56547  20232694.447    20232699.5674
  23618742.575   -11337329.379 8  -8821006.20045  23618742.435    23618750.1594
  22317146.783   -16764327.750 8 -13015050.26946  22317146.341    22317153.0004
  21415596.962   -20929421.148 8 -16298748.09247  21415596.361    21415603.4674
  21051499.102   -24955839.731 9 -17024696.88547  21051498.701    21051504.8544
  22708708.374   -15671980.217 8 -12197693.96646  22708707.929    22708715.6604
 00  5  6  1 50 30.0000000  0  8 03 17 29 09 23 15 21 31
  21938365.377   -20952355.209 8 -16031243.70246  21938365.166    21938372.5114
  23535717.648   -13281619.992 8 -10335336.44245  23535717.002    23535726.6874
  20229896.684   -27521468.306 9 -21143369.91247  20229896.664    20229901.7794
  23624631.973   -11306380.319 8  -8796890.06445  23624631.778    23624639.6034
  22326058.887   -16717494.314 8 -12978556.69446  22326058.431    22326065.0934
  21400698.203   -21007714.403 8 -16359755.75547  21400697.595    21400704.6934
  21049794.184   -24964799.076 9 -17031678.18347  21049793.781    21049799.9234
  22705551.776   -15688568.044 8 -12210619.52446  22705551.344    22705559.0414
 00  5  6  1 51  0.0000000  0  8 03 17 29 09 23 15 21 31
  21946468.293   -20909774.082 8 -15998063.65146  21946468.086    21946475.4574
  23553466.160   -13188351.245 7 -10262659.62045  23553465.555    23553475.3284
  20227191.780   -27535682.599 9 -21154445.96247  20227191.757    20227196.8674
  23630627.065   -11274876.143 8  -8772341.36645  23630626.847    23630634.6754
  22334983.430   -16670595.629 8 -12942012.27746  22334982.953    22334989.6574
  21385844.243   -21085772.105 8 -16420579.86847  21385843.629    21385850.7214
  21048115.320   -24973621.446 9 -17038552.75347  21048114.923    21048121.0784
  22702502.782   -15704590.414 8 -12223104.46746  22702502.335    22702510.0414
 00  5  6  1 51 30.0000000  0  8 03 17 29 09 23 15 21 31
  21954662.512   -20866713.271 8 -15964509.81646  21954662.343    21954669.6774
  23571263.434   -13094826.513 7 -10189783.32045  23571262.764    23571272.6514
  20224579.845   -27549408.341 9 -21165141.32347  20224579.815    20224584.9154
  23636727.782   -11242816.692 8  -8747359.97445  23636727.634    23636735.4064
  22343920.493   -16623630.963 8 -12905416.44846  22343920.036    22343926.7204
  21371035.689   -21163591.307 8 -16481218.13547  21371035.081    21371042.1604
  21046462.719   -24982305.804 9 -17045319.77947  21046462.327    21046468.4674
  22699561.586   -15720046.297 8 -12235147.98746  22699561.141    22699568.8704
 00  5  6  1 52  0.0000000  0  8 03 17 29 09 23 15 21 31
  21962947.738   -20823174.372 8 -15930583.44546  21962947.548    21962954.8884
  23589109.279   -13001046.429 7 -10116708.05645  23589108.680    23589118.4394
  20222060.872   -27562645.485 9 -21175455.95947  20222060.849    20222065.9294
  23642934.140   -11210202.069 8  -8721945.99845  23642933.928    23642941.7094
  22352870.275   -16576599.732 8 -12868768.75146  22352869.810    22352876.5014
  21356273.036   -21241169.271 8 -16541668.42047  21356272.420    21356279.5044
  21044836.537   -24990851.502 9 -17051978.75247  21044836.143    21044842.2904
  22696728.379   -15734934.835 8 -12246749.41646  22696727.952    22696735.6604
 00  5  6  1 52 30.0000000  0  8 03 17 29 09 23 15 21 31
  21971323.022   -20779162.133 8 -15896288.23146  21971322.830    21971330.1824
  23607002.894   -12907015.321 8 -10043437.18745  23607002.402    23607011.9944
  20219634.259   -27575397.383 9 -21185392.48147  20219634.229    20219639.3004
  23649245.432   -11177035.913 8  -8696102.25145  23649245.308    23649252.9854
  22361832.089   -16529504.973 8 -12832071.54546  22361831.646    22361838.2884
  21341556.174   -21318506.600 8 -16601931.18947  21341555.569    21341562.6334
  21043236.099   -24999261.714 9 -17058532.15247  21043235.691    21043241.8534
  22694002.573   -15749258.842 8 -12257910.94846  22694002.129    22694009.8304
 00  5  6  1 53  0.0000000  0  8 03 17 29 09 23 15 21 31
  21979788.540   -20734675.733 8 -15861623.54846  21979788.339    21979795.7164
  23624944.681   -12812731.173 7  -9969969.13445  23624944.082    23624953.8054
  20217300.469   -27587661.503 9 -21194948.91547  20217300.444    20217305.5084
  23655662.228   -11143315.485 8  -8669826.61045  23655662.076    23655669.7744
  22370806.675   -16482343.366 8 -12795322.26046  22370806.223    22370812.8924
  21326886.227   -21395597.472 8 -16662001.92547  21326885.615    21326892.6654
  21041662.110   -25007532.971 9 -17064977.27747  21041661.711    21041667.8534
  22691384.806   -15763015.043 8 -12268630.03346  22691384.362    22691392.0904
 00  5  6  1 53 30.0000000  0  8 03 17 29 09 23 15 21 31
  21988343.509   -20689719.253 8 -15826592.56646  21988343.297    21988350.6944
  23642933.936   -12718197.450 8  -9896306.61645  23642933.258    23642943.0504
  20215058.963   -27599440.445 9 -21204127.28847  20215058.966    20215063.9964
  23662183.940   -11109043.816 8  -8643121.42045  23662183.772    23662191.5004
  22379793.504   -16435117.316 8 -12758522.75046  22379793.022    22379799.6964
  21312263.200   -21472441.714 8 -16721880.47947  21312262.598    21312269.6384
  21040114.163   -25015667.528 9 -17071315.88147  21040113.782    21040119.9014
  22688874.716   -15776205.540 8 -12278908.32346  22688874.259    22688882.0044
 00  5  6  1 54  0.0000000  0  8 03 17 29 09 23 15 21 31
  21996987.656   -20644294.216 8 -15791196.47846  21996987.442    21996994.8474
  23660970.600   -12623414.521 7  -9822449.89945  23660969.941    23660979.8184
  20212909.824   -27610734.149 9 -21212927.55247  20212909.814    20212914.8634
  23668810.569   -11074220.766 8  -8615986.59345  23668810.433    23668818.1054
  22388792.745   -16387826.167 8 -12721672.52946  22388792.272    22388798.9724
  21297687.685   -21549036.155 8 -16781564.38447  21297687.058    21297694.1164
  21038592.353   -25023664.695 9 -17077547.43047  21038591.956    21038598.0924
  22686472.454   -15788829.587 8 -12288745.20846  22686472.022    22686479.7524
 00  5  6  1 54 30.0000000  0  8 03 17 29 09 23 15 21 31
  22005720.719   -20598401.675 8 -15755436.10546  22005720.527    22005727.9354
  23679054.710   -12528382.299 7  -9748398.95245  23679054.101    23679063.9604
  20210853.180   -27621541.823 9 -21221349.09547  20210853.158    20210858.2184
  23675542.134   -11038846.197 8  -8588422.01145  23675541.973    23675549.6694
  22397804.610   -16340468.513 8 -12684770.47846  22397804.123    22397810.8264
  21283160.435   -21625377.157 8 -16841050.80447  21283159.795    21283166.8204
  21037096.899   -25031523.280 9 -17083670.98947  21037096.511    21037102.6444
  22684178.163   -15800886.045 8 -12298139.82046  22684177.721    22684185.4564
 00  5  6  1 55  0.0000000  0  8 03 17 29 09 23 15 21 31
  22014541.830   -20552046.573 8 -15719315.29246  22014541.630    22014549.0704
  23697185.555   -12433104.522 8  -9674156.64445  23697185.040    23697194.8504
  20208888.405   -27631866.625 9 -21229394.37047  20208888.388    20208893.4484
  23682378.032   -11002923.362 8  -8560430.20645  23682377.891    23682385.5574
  22406828.631   -16293046.872 8 -12647818.56846  22406828.146    22406834.8464
  21268681.360   -21701464.808 8 -16900339.81247  21268680.749    21268687.7314
  21035627.400   -25039245.462 9 -17089688.26447  21035627.009    21035633.1264
  22681991.436   -15812377.375 8 -12307094.07846  22681990.994    22681998.7074
 00  5  6  1 55 30.0000000  0  8 03 17 29 09 23 15 21 31
  22023450.946   -20505229.027 8 -15682834.13846  22023450.742    22023458.2094
  23715363.279   -12337580.588 7  -9599722.53445  23715362.756    23715372.6074
  20207015.814   -27641707.038 9 -21237062.20147  20207015.804    20207020.8624
  23689318.480   -10966451.205 8  -8532010.36345  23689318.366    23689326.0984
  22415865.186   -16245559.505 8 -12610815.44846  22415864.720    22415871.4254
  21254251.315   -21777294.966 8 -16959428.17047  21254250.699    21254257.6514
  21034184.208   -25046829.389 9 -17095597.80847  21034183.827    21034189.9344
  22679912.527   -15823301.882 8 -12315606.65946  22679912.083    22679919.8064
 00  5  6  1 56  0.0000000  0  8 03 17 29 09 23 15 21 31
  22032447.404   -20457952.404 8 -15645995.25746  22032447.184    22032454.6844
  23733587.312   -12241813.095 7  -9525098.64545  23733586.770    23733596.6314
  20205234.959   -27651065.392 9 -21244354.40547  20205234.947    20205240.0094
  23696363.037   -10929431.735 8  -8503164.05645  23696362.929    23696370.5884
  22424914.030   -16198007.599 8 -12573762.03746  22424913.595    22424920.2714
  21239870.531   -21852866.260 8 -17018314.82147  21239869.904    21239876.8614
  21032767.062   -25054276.558 9 -17101400.78547  21032766.669    21032772.7894
  22677941.282   -15833660.747 8 -12323678.48546  22677940.858    22677948.5254
 00  5  6  1 56 30.0000000  0  8 03 17 29 09 23 15 21 31
  22041531.145   -20410217.358 8 -15608799.17146  22041530.925    22041538.4114
  23751857.794   -12145801.417 7  -9450284.45145  23751857.261    23751867.2014
  20203546.106   -27659940.227 9 -21251269.83947  20203546.086    20203551.1414
  23703511.985   -10891863.890 8  -8473890.41745  23703511.961    23703519.5184
  22433975.483   -16150389.394 8 -12536656.97346  22433975.042    22433981.7304
  21225539.775   -21928174.633 8 -17076996.59747  21225539.145    21225546.0594
  21031376.267   -25061585.153 9 -17107095.78647  21031375.862    21031382.0084
  22676077.961   -15843452.550 8 -12331308.44046  22676077.529    22676085.1774
 00  5  6  1 57  0.0000000  0  8 03 17 29 09 23 15 21 31
  22050701.445   -20362027.260 8 -15571248.49946  22050701.237    22050708.7114
  23770174.327   -12049548.250 7  -9375282.11545  23770173.761    23770183.6194
  20201948.949   -27668333.317 9 -21257809.88747  20201948.922    20201953.9874
  23710764.890   -10853749.770 8  -8444191.12145  23710764.809    23710772.3734
  22443049.355   -16102705.988 8 -12499501.09546  22443048.891    22443055.5864
  21211259.277   -22003218.872 8 -17135472.55747  21211258.651    21211265.5494
  21030011.707   -25068755.896 9 -17112683.36347  21030011.316    21030017.4564
  22674322.378   -15852678.099 8 -12338497.17546  22674321.933    22674329.5604
 00  5  6  1 57 30.0000000  0  8 03 17 29 09 23 15 21 31
  22059957.782   -20313384.970 8 -15533345.46946  22059957.559    22059965.0434
  23788536.372   -11953055.468 7  -9300093.04945  23788535.759    23788545.6884
  20200443.124   -27676246.326 9 -21263975.84347  20200443.104    20200448.1554
  23718121.387   -10815091.418 8  -8414067.74145  23718121.247    23718128.8414
  22452135.480   -16054958.109 8 -12462294.97746  22452135.020    22452141.7134
  21197029.353   -22077997.320 8 -17193741.40947  21197028.733    21197035.6184
  21028673.172   -25075789.845 9 -17118164.34747  21028672.783    21028678.9224
  22672674.345   -15861338.669 8 -12345245.65646  22672673.904    22672681.5624
 00  5  6  1 58  0.0000000  0  8 03 17 29 09 23 15 21 31
  22069300.032   -20264291.209 8 -15495090.65746  22069299.852    22069307.3104
  23806944.069   -11856322.823 7  -9224717.07645  23806943.596    23806953.3684
  20199028.843   -27683678.352 9 -21269767.01347  20199028.833    20199033.8894
  23725581.572   -10775887.932 8  -8383519.60545  23725581.402    23725589.0624
  22461234.193   -16007144.233 8 -12425037.43546  22461233.751    22461240.4484
  21182850.745   -22152505.995 8 -17251800.05447  21182850.118    21182857.0074
  21027361.048   -25082685.080 9 -17123537.24547  21027360.671    21027366.7964
  22671133.993   -15869433.144 8 -12351553.03246  22671133.541    22671141.1874
 00  5  6  1 58 30.0000000  0  8 03 17 29 09 23 15 21 31
  22078727.517   -20214749.558 8 -15456486.82546  22078727.325    22078734.8304
  23825396.972   -11759352.918 7  -9149156.23445  23825396.471    23825406.4204
  20197705.724   -27690631.253 9 -21275184.83647  20197705.719    20197710.7484
  23733145.134   -10736141.463 8  -8352548.34245  23733144.895    23733152.6074
  22470345.259   -15959265.362 8 -12387729.24346  22470344.794    22470351.5144
  21168723.741   -22226743.618 8 -17309647.48647  21168723.118    21168729.9754
  21026075.131   -25089442.583 9 -17128802.81547  21026074.751    21026080.8814
  22669701.211   -15876962.386 8 -12357419.98146  22669700.802    22669708.4064
 00  5  6  1 59  0.0000000  0  8 03 17 29 09 23 15 21 31
  22088239.965   -20164761.604 8 -15417535.23246  22088239.769    22088247.3064
  23843894.929   -11662145.917 7  -9073410.63645  23843894.475    23843904.3304
  20196473.885   -27697104.477 9 -21280228.88347  20196473.882    20196478.9104
  23740811.968   -10695852.060 8  -8321154.01545  23740811.718    23740819.4544
  22479468.869   -15911320.440 8 -12350369.58446  22479468.418    22479475.1694
  21154649.005   -22300706.648 9 -17367280.95647  21154648.402    21154655.2434
  21024815.548   -25096061.589 9 -17133960.47047  21024815.173    21024821.2774
  22668376.160   -15883925.563 8 -12362845.83946  22668375.760    22668383.3244
 00  5  6  1 59 30.0000000  0  8 03 17 29 09 23 15 21 31
  22097836.746   -20114330.424 8 -15378238.26446  22097836.536    22097844.1124
  23862437.532   -11564704.268 7  -8997482.19245  23862437.098    23862447.0504
  20195332.907   -27703100.284 9 -21284900.92047  20195332.902    20195337.9264
  23748581.746   -10655021.509 8  -8289338.02145  23748581.509    23748589.2204
  22488604.841   -15863310.653 8 -12312959.37846  22488604.373    22488611.1604
  21140626.791   -22374393.674 8 -17424699.35447  21140626.169    21140633.0264
  21023582.224   -25102542.782 9 -17139010.73647  21023581.837    21023587.9484
  22667158.541   -15890324.302 8 -12367831.86046  22667158.103    22667165.6884
 00  5  6  2  0  0.0000000  0  8 03 17 29 09 23 15 21 31
  22107517.297   -20063458.872 8 -15338598.16046  22107517.094    22107524.6784
  23881024.521   -11467029.548 7  -8921372.13945  23881024.031    23881034.0674
  20194282.625   -27708619.457 9 -21289201.55248  20194282.619    20194287.6394
  23756454.291   -10613651.082 8  -8257101.35045  23756454.089    23756461.7864
  22497753.149   -15815236.059 8 -12275498.67846  22497752.710    22497759.4624
  21126657.458   -22447802.604 9 -17481901.05447  21126656.840    21126663.6674
  21022374.918   -25108887.177 9 -17143954.40947  21022374.543    21022380.6244
  22666048.230   -15896159.116 8 -12372378.47446  22666047.792    22666055.3534
 00  5  6  2  0 30.0000000  0  8 03 17 29 09 23 15 21 31
  22117281.689   -20012146.964 8 -15298614.92146  22117281.485    22117289.0784
  23899655.963   -11369121.029 7  -8845079.89545  23899655.463    23899665.5264
  20193323.290   -27713660.650 9 -21293129.73648  20193323.283    20193328.3074
  23764429.711   -10571740.049 8  -8224443.41245  23764429.597    23764437.1774
  22506914.213   -15767094.582 8 -12237985.86646  22506913.758    22506920.5124
  21112741.910   -22520929.031 9 -17538882.62847  21112741.303    21112748.1034
  21021194.151   -25115092.062 9 -17148789.37447  21021193.770    21021199.8424
  22665045.501   -15901428.399 8 -12376484.41446  22665045.076    22665052.6304
 00  5  6  2  1  0.0000000  0  8 03 17 29 09 23 15 21 31
  22127129.229   -19960398.060 8 -15258291.17346  22127128.987    22127136.6274
  23918331.597   -11270980.515 7  -8768606.88545  23918331.034    23918341.1104
  20192454.713   -27718225.054 9 -21296686.39448  20192454.714    20192459.7234
  23772507.691   -10529289.941 8  -8191365.42145  23772507.526    23772515.2584
  22516087.873   -15718886.580 8 -12200421.20746  22516087.447    22516094.1934
  21098880.490   -22593771.056 9 -17595642.58447  21098879.870    21098886.6714
  21020039.922   -25121157.554 9 -17153515.71647  21020039.540    21020045.6104
  22664150.272   -15906132.916 8 -12380150.26946  22664149.805    22664157.4044
 00  5  6  2  1 30.0000000  0  8 03 17 29 09 23 15 21 31
  22137059.537   -19908214.099 8 -15217628.41946  22137059.283    22137066.9424
  23937051.135   -11172609.167 7  -8691953.99345  23937050.635    23937060.7264
  20191676.680   -27722313.468 9 -21299872.14848  20191676.673    20191681.6704
  23780688.152   -10486301.487 8  -8157867.94845  23780687.972    23780695.6424
  22525274.279   -15670611.914 8 -12162804.60746  22525273.847    22525280.5564
  21085073.693   -22666326.105 9 -17652178.92547  21085073.048    21085079.8424
  21018912.274   -25127083.280 9 -17158133.14447  21018911.890    21018917.9474
  22663362.540   -15910272.486 8 -12383375.94446  22663362.081    22663369.6594
 00  5  6  2  2  0.0000000  0  8 03 17 29 09 23 15 21 31
  22147071.542   -19855600.971 8 -15176631.25646  22147071.282    22147078.9834
  23955813.596   -11074012.037 7  -8615125.16645  23955813.006    23955823.2144
  20190988.391   -27725930.446 9 -21302690.55348  20190988.390    20190993.3784
  23788970.085   -10442779.480 8  -8123954.72045  23788969.969    23788977.6044
  22534472.652   -15622274.214 8 -12125138.88746  22534472.210    22534478.9314
  21071321.307   -22738595.117 9 -17708492.38847  21071320.678    21071327.4574
  21017810.496   -25132873.056 9 -17162644.64647  21017810.113    21017816.1764
  22662681.468   -15913851.371 8 -12386164.66246  22662681.032    22662688.6054
 00  5  6  2  2 30.0000000  0  8 03 17 29 09 23 15 21 31
  22157165.521   -19802556.887 8 -15135298.28146  22157165.293    22157172.9874
  23974619.628   -10975186.125 7  -8538118.07745  23974619.006    23974629.3234
  20190390.490   -27729072.378 9 -21305138.79048  20190390.493    20190395.4804
  23797354.124   -10398721.039 8  -8089623.49845  23797353.995    23797361.7814
  22543683.888   -15573868.891 8 -12087420.47846  22543683.442    22543690.1474
  21057624.615   -22810571.479 9 -17764577.81047  21057624.000    21057630.7504
  21016735.493   -25138522.267 9 -17167046.61247  21016735.097    21016741.1724
  22662107.891   -15916865.568 8 -12388513.37846  22662107.489    22662115.0454
 00  5  6  2  3  0.0000000  0  8 03 17 29 09 23 15 21 31
  22167340.265   -19749088.411 8 -15093634.61846  22167340.050    22167347.7394
  23993468.124   -10876136.742 7  -8460936.85345  23993467.489    23993478.0134
  20189882.061   -27731743.979 9 -21307220.53848  20189882.046    20189887.0434
  23805839.366   -10354130.963 8  -8054878.00345  23805839.210    23805846.9794
  22552907.231   -15525399.910 8 -12049652.46146  22552906.748    22552913.4824
  21043983.319   -22882256.670 9 -17820436.35247  21043982.704    21043989.4264
  21015686.471   -25144034.854 9 -17171342.11947  21015686.073    21015692.1354
  22661640.903   -15919319.480 8 -12390425.51646  22661640.513    22661648.0494
 00  5  6  2  3 30.0000000  0  8 03 17 29 09 23 15 21 31
  22177595.813   -19695195.405 8 -15051640.15146  22177595.580    22177603.2914
  24012359.373   -10776862.852 7  -8383580.68545  24012358.660    24012369.1704
  20189463.484   -27733943.615 9 -21308934.51948  20189463.465    20189468.4534
  23814425.965   -10309008.121 8  -8019717.38045  23814425.856    23814433.6334
  22562143.228   -15476864.629 8 -12011832.78446  22562142.734    22562149.4474
  21030398.398   -22953645.684 9 -17876064.10847  21030397.799    21030404.4964
  21014663.902   -25149408.488 9 -17175529.34847  21014663.511    21014669.5724
  22661280.921   -15921211.079 8 -12391899.48646  22661280.542    22661288.0864
 00  5  6  2  4  0.0000000  0  8 03 17 29 09 23 15 21 31
  22187931.245   -19640882.497 8 -15009318.48246  22187931.065    22187938.7724
  24031292.685   -10677367.993 7  -8306052.33445  24031292.161    24031302.6064
  20189134.081   -27735674.516 9 -21310283.25148  20189134.073    20189139.0504
  23823113.359   -10263355.742 8  -7984144.12345  23823113.232    23823121.1194
  22571391.369   -15428265.285 8 -11973963.19446  22571390.872    22571397.6354
  21016869.843   -23024738.421 9 -17931460.99947  21016869.254    21016875.9384
  21013667.413   -25154644.979 9 -17179609.71447  21013667.031    21013673.0944
  22661027.426   -15922543.161 8 -12392937.47046  22661027.067    22661034.5954
 00  5  6  2  4 30.0000000  0  8 03 17 29 09 23 15 21 31
  22198347.342   -19586145.887 8 -14966666.61046  22198347.134    22198354.8604
  24050268.967   -10577647.391 7  -8228348.08945  24050268.426    24050278.9544
  20188894.910   -27736931.202 9 -21311262.46648  20188894.899    20188899.8704
  23831902.416   -10217168.784 8  -7948154.32745  23831902.218    23831910.2354
  22580652.965   -15379595.318 8 -11936038.56646  22580652.479    22580659.2394
  21003399.379   -23095526.080 9 -17986620.17847  21003398.770    21003405.4484
  21012698.304   -25159737.593 9 -17183577.97047  21012697.922    21012703.9724
  22660881.591   -15923309.666 8 -12393534.74946  22660881.188    22660888.7284
 00  5  6  2  5  0.0000000  0  8 03 17 29 09 23 15 21 31
  22208841.651   -19530998.277 8 -14923694.49546  22208841.429    22208849.1834
  24069285.974   -10477712.638 7  -8150476.96045  24069285.310    24069295.9244
  20188743.888   -27737724.751 9 -21311880.79348  20188743.884    20188748.8474
  23840791.106   -10170458.742 8  -7911756.90745  23840790.933    23840798.8984
  22589926.120   -15330864.726 8 -11898066.70346  22589925.650    22589932.4034
  20989985.496   -23166016.228 9 -18041547.52347  20989984.876    20989991.5584
  21011754.592   -25164696.681 9 -17187442.18147  21011754.205    21011760.2654
  22660841.319   -15923521.414 8 -12393699.74446  22660840.886    22660848.4694
 00  5  6  2  5 30.0000000  0  8 03 17 29 09 23 15 21 31
  22219415.499   -19475432.528 8 -14880396.56846  22219415.288    22219423.0834
  24088345.330   -10377555.419 7  -8072432.50545  24088344.715    24088355.3404
  20188682.670   -27738046.416 9 -21312131.42048  20188682.676    20188687.6284
  23849780.931   -10123216.976 8  -7874945.16345  23849780.751    23849788.6054
  22599212.648   -15282063.784 8 -11860040.01946  22599212.171    22599218.9274
  20976630.532   -23236196.905 9 -18096233.72747  20976629.911    20976636.5754
  21010838.171   -25169512.459 9 -17191194.71047  21010837.780    21010843.8354
  22660908.394   -15923169.025 8 -12393425.15046  22660907.960    22660915.5214
 00  5  6  2  6  0.0000000  0  8 03 17 29 09 23 15 21 31
  22230067.603   -19419455.615 8 -14836778.23546  22230067.385    22230075.1874
  24107445.906   -10277181.681 7  -7994219.30945  24107445.323    24107455.7554
  20188710.198   -27737901.698 9 -21312018.63148  20188710.187    20188715.1384
  23858870.794   -10075449.564 8  -7837723.82745  23858870.638    23858878.4914
  22608511.718   -15233196.811 8 -11821961.87346  22608511.273    22608518.0534
  20963334.078   -23306070.199 9 -18150680.41647  20963333.456    20963340.1104
  21009948.357   -25174188.453 9 -17194838.32147  21009947.956    21009954.0084
  22661081.748   -15922257.978 8 -12392715.23046  22661081.330    22661088.8604
 00  5  6  2  6 30.0000000  0  8 03 17 29 09 23 15 21 31
  22240797.291   -19363071.018 8 -14792842.25646  22240797.067    22240804.8994
  24126587.195   -10176594.011 7  -7915839.42845  24126586.652    24126597.1474
  20188826.092   -27737292.627 9 -21311544.01148  20188826.097    20188831.0094
  23868060.229   -10027158.880 8  -7800094.74245  23868060.087    23868067.9484
  22617823.206   -15184264.872 8 -11783833.11646  22617822.728    22617829.5344
  20950096.404   -23375634.341 9 -18204886.20747  20950095.781    20950102.4354
  21009084.915   -25178725.747 9 -17198373.85847  21009084.524    21009090.5764
  22661361.101   -15920789.911 8 -12391571.27446  22661360.656    22661368.2184
 00  5  6  2  7  0.0000000  0  9 03 25 17 29 09 23 15 21 31
  22251604.110   -19306280.912 8 -14748590.29146  22251603.885    22251611.7274
  24661968.671    -6350276.664 7  -4938233.33845  24661968.845    24661983.8664
  24145768.952   -10075793.395 7  -7837293.60945  24145768.422    24145778.9564
  20189030.236   -27736219.825 9 -21310708.04148  20189030.225    20189035.1484
  23877349.053    -9978345.849 7  -7762058.64545  23877348.875    23877356.7404
  22627147.139   -15135267.316 8 -11745653.23146  22627146.682    22627153.4534
  20936918.113   -23444886.544 9 -18258848.93047  20936917.504    20936924.1294
  21008247.804   -25183124.751 9 -17201801.63047  21008247.403    21008253.4604
  22661746.487   -15918764.732 8 -12389993.19846  22661746.069    22661753.6284
 00  5  6  2  7 30.0000000  0  9 03 25 17 29 09 23 15 21 31
  22262487.342   -19249089.342 8 -14704025.50346  22262487.111    22262494.9854
  24643369.161    -6448015.934 7  -5014393.41245  24643369.331    24643383.9854
  24164990.723    -9974782.576 7  -7758584.01245  24164990.166    24165000.7804
  20189322.220   -27734685.312 9 -21309512.30048  20189322.203    20189327.1014
  23886736.822    -9929012.879 8  -7723617.38445  23886736.666    23886744.6034
  22636483.397   -15086205.134 8 -11707422.98646  22636482.919    22636489.7204
  20923799.432   -23513825.451 9 -18312567.52847  20923798.816    20923805.4424
  21007436.858   -25187386.161 9 -17205122.19247  21007436.464    21007442.4964
  22662237.436   -15916184.803 8 -12387982.85746  22662236.990    22662244.5504
 00  5  6  2  8  0.0000000  0  9 03 25 17 29 09 23 15 21 31
  22273446.953   -19191496.499 8 -14659148.03146  22273446.704    22273454.6524
  24624755.703    -6545828.487 8  -5090610.57045  24624755.767    24624770.5754
  24184252.699    -9873560.591 7  -7679709.85445  24184252.021    24184262.7544
  20189702.305   -27732687.952 9 -21307955.89648  20189702.280    20189707.1824
  23896223.661    -9879159.173 7  -7684770.37145  23896223.578    23896231.4044
  22645832.335   -15037076.173 8 -11669140.69546  22645831.877    22645838.6474
  20910741.211   -23582446.701 9 -18366038.59847  20910740.596    20910747.2124
  21006652.614   -25191507.231 9 -17208333.39847  21006652.247    21006658.2764
  22662834.255   -15913048.400 8 -12385538.89446  22662833.817    22662841.3644
 00  5  6  2  8 30.0000000  0  9 03 25 17 29 09 23 15 21 31
  22284483.353   -19133500.090 8 -14613956.09446  22284483.103    22284491.0554
  24606129.636    -6643707.443 8  -5166879.49145  24606129.692    24606144.1734
  24203555.524    -9772123.987 7  -7600668.46545  24203554.708    24203565.7494
  20190171.198   -27730223.681 9 -21306035.67048  20190171.185    20190176.0704
  23905810.302    -9828781.147 7  -7645514.79345  23905810.232    23905818.0854
  22655194.980   -14987875.141 8 -11630802.25346  22655194.535    22655201.3204
  20897744.855   -23650742.853 9 -18419256.34847  20897744.233    20897750.8414
  21005896.146   -25195482.546 9 -17211431.03647  21005895.771    21005901.7684
  22663537.833   -15909350.998 8 -12382657.79346  22663537.419    22663544.9364
 00  5  6  2  9  0.0000000  0  9 03 25 17 29 09 23 15 21 31
  22295594.878   -19075108.861 8 -14568456.50946  22295594.651    22295602.6114
  24587490.414    -6741655.555 7  -5243202.29345  24587490.365    24587504.8254
  24222897.749    -9670480.273 7  -7521465.68445  24222897.067    24222907.9864
  20190727.587   -27727299.766 9 -21303757.27948  20190727.570    20190732.4604
  23915495.314    -9777886.254 7  -7605856.46945  23915495.267    23915503.1894
  22664570.229   -14938607.889 8 -11592412.21046  22664569.785    22664576.5594
  20884809.701   -23718717.328 9 -18472223.43147  20884809.098    20884815.6844
  21005166.130   -25199318.646 9 -17214420.19347  21005165.746    21005171.7544
  22664346.950   -15905099.078 8 -12379344.60046  22664346.530    22664354.0264
 00  5  6  2  9 30.0000000  0  9 03 25 17 29 09 23 15 21 31
  22306781.144   -19016324.841 8 -14522650.84646  22306780.927    22306788.8924
  24568838.479    -6839670.366 8  -5319577.05445  24568838.437    24568852.7454
  24242279.165    -9568630.812 7  -7442102.57045  24242278.530    24242289.4194
  20191371.296   -27723917.002 9 -21301121.34548  20191371.265    20191376.1734
  23925278.499    -9726475.576 7  -7565796.22645  23925278.384    23925286.3344
  22673958.150   -14889274.126 8 -11553970.34046  22673957.686    22673964.4884
  20871936.285   -23786367.446 9 -18524937.76947  20871935.690    20871942.2684
  21004462.804   -25203014.695 9 -17217300.21647  21004462.413    21004468.4204
  22665261.356   -15900293.672 8 -12375600.12446  22665260.916    22665268.4434
 00  5  6  2 10  0.0000000  0  9 03 25 17 29 09 23 15 21 31
  22318042.006   -18957148.992 8 -14476539.86346  22318041.791    22318049.7504
  24550174.691    -6937747.815 7  -5396000.63545  24550174.668    24550188.9024
  24261699.840    -9466574.981 7  -7362578.65845  24261699.285    24261710.1304
  20192102.521   -27720074.295 9 -21298127.01448  20192102.498    20192107.3964
  23935159.853    -9674548.802 7  -7525333.84045  23935159.723    23935167.7474
  22683359.134   -14839871.674 8 -11515474.93146  22683358.677    22683365.5214
  20859125.474   -23853688.639 9 -18577395.79747  20859124.878    20859131.4594
  21003786.519   -25206568.410 9 -17220069.33047  21003786.142    21003792.1494
  22666281.368   -15894933.345 8 -12371423.23046  22666280.940    22666288.4764
 00  5  6  2 10 30.0000000  0  9 03 25 17 29 09 23 15 21 31
  22329376.753   -18897584.718 8 -14430126.22246  22329376.564    22329384.5144
  24531499.308    -7035885.807 7  -5472471.37345  24531499.227    24531513.4314
  24281159.354    -9364315.197 7  -7282895.79045  24281158.813    24281169.5384
  20192920.871   -27715773.745 9 -21294775.92248  20192920.852    20192925.7344
  23945138.950    -9622108.242 7  -7484471.10445  23945138.756    23945146.7474
  22692773.066   -14790401.205 8 -11476926.52946  22692772.590    22692779.4844
  20846377.491   -23920679.568 9 -18629596.47547  20846376.874    20846383.4524
  21003137.245   -25209980.428 9 -17222728.04147  21003136.861    21003142.8704
  22667406.616   -15889019.855 8 -12366815.30746  22667406.231    22667413.7844
 00  5  6  2 11  0.0000000  0  9 03 25 17 29 09 23 15 21 31
  22340784.823   -18837635.141 8 -14383412.33146  22340784.617    22340792.6054
  24512812.696    -7134082.807 8  -5548988.10945  24512812.693    24512826.8224
  24300657.231    -9261853.623 7  -7203055.69145  24300656.736    24300667.5334
  20193826.019   -27711017.214 9 -21291069.52348  20193826.005    20193830.8944
  23955215.481    -9569155.918 7  -7443209.57145  23955215.240    23955223.2954
  22702199.827   -14740863.163 8 -11438325.46646  22702199.355    22702206.2714
  20833692.735   -23987338.273 9 -18681538.27647  20833692.105    20833698.6994
  21002514.781   -25213251.330 9 -17225276.78847  21002514.412    21002520.4144
  22668636.828   -15882554.977 8 -12361777.74946  22668636.429    22668644.0264
 00  5  6  2 11 30.0000000  0  9 03 25 17 29 09 23 15 21 31
  22352265.701   -18777302.981 8 -14336400.33846  22352265.478    22352273.4684
  24494115.454    -7232335.951 7  -5625548.59845  24494115.528    24494129.5464
  24320193.281    -9159191.648 7  -7123059.45945  24320192.761    24320203.4604
  20194817.754   -27705805.499 9 -21287008.43748  20194817.729    20194822.6224
  23965389.053    -9515693.321 7  -7401550.43145  23965388.926    23965396.8874
  22711639.512   -14691257.348 8 -11399671.59346  22711639.059    22711645.9314
  20821071.698   -24053662.075 9 -18733219.10447  20821071.082    20821077.6394
  21001919.318   -25216380.513 9 -17227715.10847  21001918.934    21001924.9394
  22669971.887   -15875539.118 8 -12356310.85946  22669971.455    22669979.0594
 00  5  6  2 12  0.0000000  0  9 03 25 17 29 09 23 15 21 31
  22363818.946   -18716590.563 8 -14289092.02846  22363818.750    22363826.7304
  24475407.976    -7330642.749 7  -5702150.84945  24475408.058    24475421.9244
  24339767.169    -9056330.409 7  -7042907.92945  24339766.750    24339777.3994
  20195895.937   -27700139.531 9 -21282593.38048  20195895.902    20195900.8054
  23975659.539    -9461721.788 7  -7359494.73145  23975659.366    23975667.3764
  22721092.164   -14641583.405 8 -11360964.63746  22721091.685    22721098.5934
  20808514.869   -24119648.415 9 -18784636.97147  20808514.265    20808520.8174
  21001350.993   -25219367.065 9 -17230042.27947  21001350.617    21001356.6234
  22671411.710   -15867972.827 8 -12350415.04446  22671411.289    22671418.8814
 00  5  6  2 12 30.0000000  0  9 03 25 17 29 09 23 15 21 31
  22375444.046   -18655500.468 8 -14241489.42846  22375443.803    22375451.8524
  24456690.759    -7429000.536 7  -5778792.83845  24456690.657    24456704.6104
  24359378.801    -8953271.157 7  -6962602.11145  24359378.274    24359389.1064
  20197060.397   -27694020.101 9 -21277824.97948  20197060.366    20197065.2604
  23986026.596    -9407242.478 7  -7317043.35045  23986026.409    23986034.5284
  22730557.903   -14591840.621 8 -11322204.03746  22730557.432    22730564.3344
  20796022.815   -24185294.455 9 -18835789.66747  20796022.214    20796028.7524
  21000809.791   -25222210.919 9 -17232258.25647  21000809.412    21000815.4244
  22672956.144   -15859856.808 8 -12344090.87646  22672955.719    22672963.3134
 00  5  6  2 13  0.0000000  0  9 03 25 17 29 09 23 15 21 31
  22387140.250   -18594036.863 8 -14193595.77546  22387140.035    22387148.1004
  24437963.981    -7527408.651 7  -5855474.07045  24437964.010    24437977.7984
  24379027.505    -8850016.954 7  -6882144.36745  24379026.911    24379037.9084
  20198310.649   -27687449.986 9 -21272705.39248  20198310.601    20198315.5054
  23996489.744    -9352258.582 7  -7274198.80245  23996489.586    23996497.5794
  22740036.507   -14542030.389 8 -11283390.88046  22740036.021    22740042.9394
  20783595.649   -24250599.398 9 -18886676.57647  20783595.037    20783601.5704
  21000295.519   -25224913.359 9 -17234364.04247  21000295.128    21000301.1654
  22674604.683   -15851193.586 8 -12337340.32246  22674604.258    22674611.8994
 00  5  6  2 13 30.0000000  0  9 03 25 17 29 09 23 15 21 31
  22398907.647   -18532198.924 8 -14145410.44246  22398907.449    22398915.5244
  24419228.890    -7625860.616 7  -5932189.47345  24419228.871    24419242.5064
  24398713.664    -8746566.020 7  -6801533.33845  24398713.062    24398724.1034
  20199647.073   -27680426.826 9 -21267232.78748  20199647.055    20199651.9264
  24007049.238    -9296768.269 7  -7230959.62345  24007049.016    24007057.0574
  22749528.623   -14492148.952 8 -11244522.24146  22749528.159    22749535.0284
  20771234.554   -24315557.266 9 -18937293.03147  20771233.944    20771240.4644
  20999808.899   -25227470.568 9 -17236356.66047  20999808.515    20999814.5374
  22676357.867   -15841980.520 8 -12330161.32046  22676357.454    22676365.0974
 00  5  6  2 14  0.0000000  0  9 03 25 17 29 09 23 15 21 31
  22410745.055   -18469993.221 8 -14096938.52546  22410744.854    22410752.9294
  24400485.143    -7724357.886 7  -6008940.19645  24400485.126    24400498.6384
  24418436.171    -8642923.934 7  -6720773.36145  24418435.548    24418446.7524
  20201068.793   -27672955.628 9 -21261411.06348  20201068.761    20201073.6464
  24017703.974    -9240777.149 7  -7187330.21945  24017703.730    24017711.7824
  22759033.609   -14442199.948 8 -11205600.94846  22759033.149    22759040.0564
  20758939.268   -24380169.190 9 -18987639.92447  20758938.646    20758945.1604
  20999349.225   -25229886.119 9 -17238238.89547  20999348.853    20999354.8684
  22678214.818   -15832222.318 8 -12322557.54446  22678214.408    22678222.0454
 00  5  6  2 14 30.0000000  0  9 03 25 17 29 09 23 15 21 31
  22422652.242   -18407420.917 8 -14048180.95046  22422652.051    22422660.1274
  24381733.563    -7822896.495 7  -6085723.11145  24381733.619    24381746.9994
  24438195.027    -8539090.477 7  -6639864.25545  24438194.469    24438205.5734
  20202575.852   -27665036.006 9 -21255239.91048  20202575.818    20202580.6914
  24028454.092    -9184285.067 7  -7143310.45545  24028453.788    24028461.9174
  22768551.779   -14392181.633 8 -11166625.65246  22768551.320    22768558.2344
  20746710.529   -24444431.303 9 -19037714.23147  20746709.912    20746716.3874
  20998916.895   -25232157.911 9 -17240009.10847  20998916.513    20998922.5174
  22680175.531   -15821918.716 8 -12314528.77246  22680175.131    22680182.7324
 00  5  6  2 15  0.0000000  0  9 03 25 17 29 09 23 15 21 31
  22434628.355   -18344486.323 8 -13999141.07346  22434628.170    22434636.2494
  24362974.327    -7921475.379 7  -6162537.41245  24362974.255    24362987.7104
  24457989.739    -8435068.906 7  -6558808.56245  24457989.385    24458000.1094
  20204167.642   -27656670.901 9 -21248721.63148  20204167.616    20204172.4734
  24039298.873    -9127295.226 7  -7098902.83145  24039298.680    24039306.7714
  22778082.867   -14342095.456 8 -11127597.46446  22778082.392    22778089.3314
  20734548.569   -24508342.729 9 -19087515.27547  20734547.961    20734554.4144
  20998511.672   -25234287.315 9 -17241668.37147  20998511.283    20998517.2984
  22682239.594   -15811072.024 8 -12306076.80646  22682239.232    22682246.7484
 00  5  6  2 15 30.0000000  0  9 03 25 17 29 09 23 15 21 31
  22446673.745   -18281187.551 8 -13949817.42346  22446673.521    22446681.6634
  24344208.802    -8020087.037 7  -6239377.27645  24344208.696    24344222.1114
  24477820.863    -8330855.944 7  -6477603.72045  24477820.528    24477831.1514
  20205844.959   -27647856.462 9 -21241853.22048  20205844.945    20205849.7804
  24050239.025    -9069804.464 7  -7054104.87245  24050238.856    24050246.8974
  22787627.803   -14291936.415 8 -11088512.50946  22787627.324    22787634.2704
  20722454.695   -24571896.128 9 -19137037.33947  20722454.064    20722460.5174
  20998134.427   -25236269.707 9 -17243213.07647  20998134.034    20998140.0404
  22684407.709   -15799678.597 8 -12297198.82246  22684407.342    22684414.8324
 00  5  6  2 16  0.0000000  0  9 03 25 17 29 09 23 15 21 31
  22458786.860   -18217533.058 8 -13900216.57946  22458786.636    22458794.7834
  24325436.426    -8118734.794 7  -6316245.26645  24325436.352    24325449.6824
  24497687.047    -8226458.957 7  -6396255.50545  24497686.524    24497697.4054
  20207606.402   -27638599.953 9 -21234640.34148  20207606.385    20207611.2374
  24061273.075    -9011820.377 7  -7008922.50345  24061272.897    24061280.9164
  22797185.618   -14241709.831 8 -11049374.92546  22797185.137    22797192.0964
  20710428.354   -24635094.845 9 -19186283.02847  20710427.709    20710434.1524
  20997784.135   -25238110.448 9 -17244647.40547  20997783.757    20997789.7544
  22686678.541   -15787745.352 8 -12287900.19046  22686678.150    22686685.6654
 00  5  6  2 16 30.0000000  0  8 03 25 29 09 23 15 21 31
  22470967.554   -18153523.378 8 -13850338.97646  22470967.323    22470975.4984
  24306657.984    -8217414.209 7  -6393137.92245  24306657.992    24306671.1954
  20209452.226   -27628900.160 9 -21227082.04948  20209452.207    20209457.0384
  24072401.043    -8953342.605 7  -6963355.44745  24072400.874    24072408.8814
  22806756.692   -14191413.512 8 -11010183.00046  22806756.211    22806763.1594
  20698470.313   -24697934.459 9 -19235248.90247  20698469.678    20698476.1164
  20997461.263   -25239806.975 9 -17245969.36147  20997460.900    20997466.8864
  22689052.312   -15775271.236 8 -12278180.10446  22689051.886    22689059.3964
 00  5  6  2 17  0.0000000  0  8 03 25 29 09 23 15 21 31
  22483215.415   -18089160.650 8 -13800186.26246  22483215.174    22483223.3674
  24287874.246    -8316121.902 7  -6470052.61345  24287874.115    24287887.4534
  20211382.156   -27618758.149 9 -21219179.16848  20211382.131    20211386.9674
  24083622.714    -8894372.210 7  -6917404.53845  24083622.425    24083630.6734
  22816341.183   -14141046.592 8 -10970936.07146  22816340.735    22816347.6554
  20686581.165   -24760412.041 9 -19283932.67747  20686580.528    20686586.9554
  20997166.098   -25241358.033 9 -17247177.96047  20997165.725    20997171.7264
  22691528.866   -15762256.834 8 -12268039.01846  22691528.442    22691535.9814
 00  5  6  2 17 30.0000000  0  8 03 25 29 09 23 15 21 31
  22495529.919   -18024447.735 8 -13749760.69246  22495529.709    22495537.8644
  24269085.609    -8414855.161 7  -6546987.22345  24269085.522    24269098.7844
  20213396.049   -27608174.972 9 -21210932.53248  20213396.027    20213400.8624
  24094937.943    -8834910.792 7  -6871071.00645  24094937.681    24094945.9134
  22825939.179   -14090608.800 8 -10931633.91446  22825938.702    22825945.6374
  20674761.418   -24822524.979 9 -19332332.31747  20674760.791    20674767.1824
  20996898.659   -25242763.304 9 -17248272.96647  20996898.280    20996904.2904
  22694108.067   -15748703.087 8 -12257477.66646  22694107.636    22694115.1674
 00  5  6  2 18  0.0000000  0  8 03 25 29 09 23 15 21 31
  22507910.663   -17959386.687 8 -13699063.84646  22507910.438    22507918.6394
  24250292.625    -8513611.330 7  -6623939.71545  24250292.583    24250305.6894
  20215493.763   -27597151.413 9 -21202342.73648  20215493.745    20215498.5724
  24106346.282    -8774959.655 7  -6824355.88945  24106346.134    24106354.1304
  22835550.801   -14040099.386 8 -10892275.95046  22835550.328    22835557.2644
  20663011.688   -24884270.109 9 -19380445.35147  20663011.055    20663017.4354
  20996659.088   -25244022.242 9 -17249253.94647  20996658.706    20996664.7034
  22696789.763   -15734610.535 8 -12246496.46646  22696789.310    22696796.8994
 00  5  6  2 18 30.0000000  0  8 03 25 29 09 23 15 21 31
  22520356.908   -17893981.563 8 -13648098.88946  22520356.681    22520364.8544
  24231495.615    -8612388.711 7  -6700908.72445  24231495.705    24231508.5104
  20217674.837   -27585689.703 9 -21193411.52348  20217674.815    20217679.6264
  24117847.317    -8714521.623 7  -6777261.37145  24117847.022    24117855.2394
  22845175.929   -13989519.163 8 -10852862.80646  22845175.474    22845182.3884
  20651332.095   -24945646.439 9 -19428271.01447  20651331.471    20651337.8314
  20996447.291   -25245135.282 9 -17250121.24247  20996446.912    20996452.9154
  22699573.585   -15719981.489 8 -12235097.21746  22699573.122    22699580.7154
 00  5  6  2 19  0.0000000  0  8 03 25 29 09 23 15 21 31
  22532868.096   -17828235.247 8 -13596868.06946  22532867.850    22532876.0634
  24212695.032    -8711184.692 7  -6777892.22145  24212695.041    24212707.9224
  20219939.021   -27573791.409 9 -21184140.11548  20219938.997    20219943.8054
  24129440.579    -8653598.552 7  -6729788.90145  24129440.366    24129448.5054
  22854814.535   -13938867.971 8 -10813394.36546  22854814.081    22854821.0404
  20639723.221   -25006651.360 9 -19475807.26447  20639722.597    20639728.9404
  20996263.234   -25246102.471 9 -17250874.89047  20996262.850    20996268.8374
  22702459.237   -15704817.454 8 -12223281.10246  22702458.765    22702466.3434
 00  5  6  2 19 30.0000000  0  8 03 25 29 09 23 15 21 31
  22545443.746   -17762149.938 8 -13545373.09846  22545443.524    22545451.7584
  24193891.563    -8809996.187 7  -6854887.87245  24193891.518    24193904.2654
  20222286.167   -27561457.039 9 -21174528.91148  20222286.133    20222290.9404
  24141125.957    -8592191.385 7  -6681939.20245  24141125.816    24141134.0034
  22864466.877   -13888144.629 8 -10773869.70946  22864466.399    22864473.3874
  20628185.624   -25067281.508 9 -19523051.49247  20628185.015    20628191.3364
  20996107.210   -25246922.396 9 -17251513.79147  20996106.838    20996112.8164
  22705446.636   -15689118.615 8 -12211048.26346  22705446.176    22705453.7344
 00  5  6  2 20  0.0000000  0  8 03 25 29 09 23 15 21 31
  22558083.304   -17695728.874 8 -13493616.49746  22558083.084    22558091.3354
  24175085.547    -8908821.176 7  -6931893.98045  24175085.408    24175098.1344
  20224715.955   -27548688.307 9 -21164579.23648  20224715.921    20224720.7364
  24152903.001    -8530302.765 7  -6633714.36545  24152902.873    24152910.9994
  22874132.923   -13837349.331 8 -10734288.98746  22874132.428    22874139.4224
  20616719.666   -25127535.348 9 -19570002.49247  20616719.063    20616725.3704
  20995979.093   -25247595.567 9 -17252038.33447  20995978.716    20995984.6824
  22708535.512   -15672886.636 8 -12198399.97046  22708535.028    22708542.6084
 00  5  6  2 20 30.0000000  0  8 03 25 29 09 23 15 21 31
  22570786.280   -17628974.446 8 -13441600.14446  22570786.070    22570794.3954
  24156277.495    -9007656.561 7  -7008908.20745  24156277.368    24156289.9124
  20227228.207   -27535486.262 9 -21154291.92048  20227228.171    20227232.9794
  24164771.389    -8467934.029 7  -6585115.40445  24164771.267    24164779.5504
  22883812.749   -13786481.519 8 -10694651.75446  22883812.257    22883819.2614
  20605325.858   -25187409.938 9 -19616657.97547  20605325.250    20605331.5624
  20995879.105   -25248121.061 9 -17252447.80747  20995878.706    20995884.6734
  22711725.567   -15656122.812 8 -12185337.27746  22711725.100    22711732.6464
 00  5  6  2 21  0.0000000  0  8 03 25 29 09 23 15 21 31
  22583551.656   -17561892.123 8 -13389328.28446  22583551.442    22583559.7824
  24137467.537    -9106501.958 7  -7085930.22945  24137467.390    24137479.9224
  20229822.235   -27521854.447 9 -21143669.71648  20229822.206    20229827.0314
  24176730.401    -8405089.100 7  -6536145.38445  24176730.228    24176738.6854
  22893505.984   -13735543.278 8 -10654959.64246  22893505.526    22893512.4824
  20594004.318   -25246904.933 9 -19663017.67147  20594003.718    20594010.0044
  20995806.854   -25248500.689 9 -17252743.61747  20995806.456    20995812.4284
  22715016.207   -15638830.405 8 -12171862.69846  22715015.742    22715023.2654
 00  5  6  2 21 30.0000000  0  8 03 25 29 09 23 15 21 31
  22596379.865   -17494479.838 8 -13336799.31146  22596379.621    22596388.0064
  24118657.046    -9205350.475 7  -7162954.68445  24118656.952    24118669.2844
  20232498.593   -27507790.034 9 -21132710.42548  20232498.563    20232503.3794
  24188780.443    -8341766.003 7  -6486802.75245  24188780.286    24188788.7884
  22903213.529   -13684529.837 8 -10615208.93346  22903213.065    22903220.0234
  20582756.303   -25306013.385 9 -19709076.16847  20582755.695    20582761.9764
  20995763.173   -25248730.139 9 -17252922.40947  20995762.776    20995768.7554
  22718407.974   -15621006.399 8 -12157973.89446  22718407.533    22718415.0534
 00  5  6  2 22  0.0000000  0  8 03 25 29 09 23 15 21 31
  22609269.291   -17426745.755 8 -13284019.59346  22609269.059    22609277.4494
  24099845.406    -9304204.938 7  -7239983.75245  24099845.385    24099857.5354
  20235256.061   -27493299.421 9 -21121419.02548  20235256.024    20235260.8634
  24200920.194    -8277971.345 7  -6437092.68045  24200919.982    24200928.4734
  22912934.456   -13633446.012 8 -10575403.38846  22912933.996    22912941.0074
  20571581.342   -25364738.069 9 -19754835.62447  20571580.721    20571587.0104
  20995747.357   -25248813.291 9 -17252987.19647  20995746.957    20995752.9464
  22721899.690   -15602657.471 8 -12143676.05146  22721899.266    22721906.7814
 00  5  6  2 22 30.0000000  0  8 03 25 29 09 23 15 21 31
  22622220.447   -17358687.350 8 -13230987.15346  22622220.192    22622228.6044
  24081034.334    -9403056.459 8  -7317010.55445  24081034.268    24081046.3534
  20238095.463   -27478378.234 9 -21109792.11948  20238095.428    20238100.2614
  24213150.415    -8213701.418 7  -6387012.28245  24213150.175    24213158.5974
  22922669.914   -13582285.854 8 -10535538.35746  22922669.436    22922676.4494
  20560480.921   -25423070.988 9 -19800289.81347  20560480.306    20560486.5844
  20995760.418   -25248744.606 9 -17252933.67347  20995760.018    20995766.0144
  22725492.105   -15583779.137 8 -12128965.69746  22725491.679    22725499.2254
 00  5  6  2 23  0.0000000  0  8 03 25 29 09 23 15 21 31
  22635231.799   -17290312.649 8 -13177708.24746  22635231.535    22635239.9474
  24062223.182    -9501908.221 7  -7394037.53145  24062223.130    24062235.0684
  20241015.488   -27463033.189 9 -21097834.93048  20241015.447    20241020.2964
  24225469.685    -8148963.690 7  -6336567.33845  24225469.466    24225477.8234
  22932418.947   -13531054.520 8 -10495617.86146  22932418.457    22932425.5104
  20549454.494   -25481015.141 9 -19845441.06347  20549453.869    20549460.1344
  20995801.416   -25248529.154 9 -17252765.78047  20995801.009    20995807.0044
  22729184.043   -15564378.052 8 -12113847.99146  22729183.604    22729191.1704
 00  5  6  2 23 30.0000000  0  8 03 25 29 09 23 15 21 31
  22648303.188   -17221622.177 8 -13124183.28846  22648302.926    22648311.3434
  24043412.907    -9600755.396 8  -7471060.95245  24043412.802    24043424.7074
  20244016.354   -27447263.574 9 -21085546.91348  20244016.319    20244021.1814
  24237878.037    -8083757.492 7  -6285757.36645  24237877.876    24237886.0224
  22942182.026   -13479749.205 8 -10455639.72446  22942181.558    22942188.6184
  20538502.939   -25538565.793 9 -19890285.69347  20538502.311    20538508.5724
  20995870.753   -25248164.564 9 -17252481.68247  20995870.371    20995876.3634
  22732975.563   -15544453.521 8 -12098322.41846  22732975.159    22732982.6954
 00  5  6  2 24  0.0000000  0  8 03 25 29 09 23 15 21 31
  22661434.269   -17152618.328 8 -13070414.14746  22661433.985    22661442.4234
  24024604.113    -9699594.864 8  -7548078.36445  24024604.083    24024615.8364
  20247097.818   -27431070.225 9 -21072928.70848  20247097.796    20247102.6424
  24250375.223    -8018084.428 7  -6234583.60145  24250374.985    24250383.3204
  22951959.358   -13428369.067 8 -10415603.27346  22951958.909    22951965.9614
  20527626.830   -25595720.019 9 -19934821.42047  20527626.200    20527632.4464
  20995968.912   -25247648.856 9 -17252079.82547  20995968.514    20995974.4984
  22736866.552   -15524006.260 8 -12082389.52846  22736866.125    22736873.6844
 00  5  6  2 24 30.0000000  0  8 03 25 29 09 23 15 21 31
  22674624.105   -17083305.516 8 -13016404.24246  22674623.824    22674632.3104
  24005797.042    -9798425.326 8  -7625088.74545  24005796.943    24005808.6744
  20250259.331   -27414456.329 9 -21059982.80648  20250259.297    20250264.1404
  24262960.553    -7951948.240 7  -6183048.95645  24262960.322    24262968.6774
  22961750.668   -13376915.584 8 -10375509.66946  22961750.221    22961757.2644
  20516826.266   -25652477.133 9 -19979047.70347  20516825.647    20516831.8764
  20996095.530   -25246983.446 9 -17251561.31247  20996095.136    20996101.1114
  22740856.476   -15503039.295 8 -12066051.66546  22740856.053    22740863.5724
 00  5  6  2 25  0.0000000  0  8 03 25 29 09 23 15 21 31
  22687872.682   -17013684.122 8 -12962153.89946  22687872.422    22687880.9174
  23986992.621    -9897241.658 8  -7702088.17845  23986992.541    23987004.2204
  20253501.171   -27397420.429 9 -21046708.07248  20253501.133    20253505.9764
  24275634.133    -7885348.236 7  -6131152.90645  24275633.978    24275642.3314
  22971556.491   -13325385.774 8 -10335356.59446  22971555.983    22971563.0834
  20506102.205   -25708832.190 9 -20022960.70147  20506101.591    20506107.8214
  20996251.118   -25246165.724 9 -17250924.12047  20996250.718    20996256.7084
  22744945.507   -15481551.443 8 -12049307.92346  22744945.062    22744952.6164
 00  5  6  2 25 30.0000000  0  9 03 25 29 09 23 15 11 21 31
  22701178.620   -16943761.252 8 -12907668.63246  22701178.401    22701186.8684
  23968190.639    -9996045.515 8  -7779077.88945  23968190.657    23968202.1344
  20256822.171   -27379968.312 9 -21033109.00848  20256822.134    20256826.9854
  24288394.849    -7818290.434 7  -6078900.12745  24288394.635    24288403.0644
  22981376.098   -13273783.533 8 -10295147.07646  22981375.614    22981382.6754
  20495454.401   -25764786.681 9 -20066561.56547  20495453.793    20495460.0174
  24624991.404    -6610729.043 7  -4853274.07145  24624991.044    24625000.6064
  20996435.007   -25245199.337 9 -17250171.08047  20996434.601    20996440.6024
  22749132.566   -15459548.409 8 -12032162.73746  22749132.113    22749139.7054
 00  5  6  2 26  0.0000000  0  9 03 25 29 09 23 15 11 21 31
  22714541.214   -16873540.728 8 -12852951.42246  22714540.951    22714549.4924
  23949391.407   -10094834.850 8  -7856056.19245  23949391.342    23949402.7814
  20260221.958   -27362102.355 9 -21019187.47048  20260221.930    20260226.7664
  24301242.067    -7750778.035 7  -6026293.11045  24301241.830    24301250.2694
  22991209.369   -13222109.516 8 -10254881.63046  22991208.887    22991215.9674
  20484883.083   -25820339.251 9 -20109849.25047  20484882.471    20484888.6834
  24605439.733    -6713473.014 7  -4933334.14945  24605439.369    24605448.8184
  20996647.060   -25244084.829 9 -17249302.62047  20996646.674    20996652.6614
  22753417.133   -15437032.901 8 -12014618.22146  22753416.688    22753424.3114
 00  5  6  2 26 30.0000000  0  9 03 25 29 09 23 15 11 21 31
  22727961.100   -16803019.220 8 -12797999.68446  22727960.830    22727969.4014
  23930596.492   -10193601.500 8  -7933016.88245  23930596.504    23930607.7524
  20263701.344   -27343817.976 9 -21004939.89148  20263701.311    20263706.1514
  24314176.580    -7682806.855 7  -5973328.60945  24314176.376    24314184.6974
  23001057.500   -13170357.273 8 -10214555.22746  23001057.020    23001064.0954
  20474389.838   -25875481.355 9 -20152817.08847  20474389.225    20474395.4264
  24585898.179    -6816164.024 7  -5013352.97145  24585897.697    24585907.2884
  20996888.644   -25242815.360 9 -17248313.41547  20996888.267    20996894.2414
  22757800.101   -15414000.363 8 -11996670.81246  22757799.683    22757807.2714
 00  5  6  2 27  0.0000000  0  9 03 25 29 09 23 15 11 21 31
  22741437.341   -16732201.428 8 -12742817.07346  22741437.051    22741445.6604
  23911806.096   -10292344.253 8  -8009958.94445  23911806.141    23911817.2594
  20267259.796   -27325118.065 9 -20990368.51648  20267259.768    20267264.5994
  24327197.750    -7614380.524 7  -5920009.44045  24327197.472    24327205.8684
  23010920.323   -13118528.065 8 -10174168.84846  23010919.842    23010926.9104
  20463974.841   -25930212.435 9 -20195464.64447  20463974.235    20463980.4064
  24566366.742    -6918801.903 7  -5093330.40645  24566366.289    24566375.7994
  20997159.448   -25241392.240 9 -17247204.47547  20997159.059    20997165.0434
  22762280.917   -15390453.714 8 -11978322.81446  22762280.511    22762288.0514
 00  5  6  2 27 30.0000000  0  9 03 25 29 09 23 15 11 21 31
  22754969.291   -16661090.818 8 -12687406.29546  22754969.052    22754977.6134
  23893020.745   -10391060.644 8  -8086880.41945  23893020.707    23893031.8274
  20270896.944   -27306004.703 9 -20975474.97948  20270896.930    20270901.7384
  24340305.080    -7545501.425 7  -5866337.45545  24340304.797    24340313.1684
  23020797.715   -13066621.940 8 -10133722.54546  23020797.244    23020804.2784
  20453638.531   -25984530.082 9 -20237790.04947  20453637.921    20453644.0844
  24546845.759    -7021384.857 7  -5173265.06145  24546845.104    24546854.7794
  20997459.466   -25239815.593 9 -17245975.90747  20997459.082    20997465.0614
  22766859.202   -15366394.860 8 -11959575.68246  22766858.752    22766866.3624
 00  5  6  2 28  0.0000000  0  9 03 25 29 09 23 15 11 21 31
  22768556.309   -16589690.971 8 -12631770.14046  22768556.027    22768564.6644
  23874240.730   -10489748.763 8  -8163779.90945  23874240.707    23874251.7614
  20274612.351   -27286480.157 9 -20960261.03848  20274612.328    20274617.1494
  24353498.010    -7476172.344 7  -5812314.83845  24353497.674    24353506.1294
  23030689.690   -13014639.410 8 -10093216.70046  23030689.226    23030696.2714
  20443381.133   -26038432.919 9 -20279792.22547  20443380.502    20443386.6784
  24527335.447    -7123911.593 7  -5253155.93045  24527334.780    24527344.6754
  20997788.652   -25238085.704 9 -17244627.92547  20997788.264    20997794.2464
  22771534.514   -15341826.148 8 -11940431.26246  22771534.045    22771541.6684
 00  5  6  2 28 30.0000000  0  9 03 25 29 09 23 15 11 21 31
  22782197.902   -16518004.171 8 -12575910.38446  22782197.632    22782206.2104
  23855466.657   -10588405.589 8  -8240655.02345  23855466.695    23855477.6044
  20278405.827   -27266545.227 9 -20944727.31548  20278405.792    20278410.6244
  24366776.195    -7406395.093 7  -5757942.98045  24366775.942    24366784.4004
  23040596.377   -12962579.397 8 -10052650.46846  23040595.907    23040602.9854
  20433203.214   -26091918.067 9 -20321468.93047  20433202.588    20433208.7684
  24507836.336    -7226379.497 7  -5333000.94845  24507835.808    24507845.5294
  20998147.240   -25236201.205 9 -17243159.47047  20998146.835    20998152.8344
  22776306.594   -15316748.788 8 -11920890.49246  22776306.171    22776313.7954
 00  5  6  2 29  0.0000000  0  9 03 25 29 09 23 15 11 21 31
  22795893.498   -16446033.736 8 -12519829.60846  22795893.192    22795901.8044
  23836698.998   -10687028.935 8  -8317504.05045  23836699.027    23836709.8774
  20282277.011   -27246201.943 9 -20928875.39248  20282276.982    20282281.8064
  24380139.161    -7336172.269 7  -5703223.95245  24380139.061    24380147.4344
  23050517.773   -12910442.205 8 -10012024.10746  23050517.319    23050524.3864
  20423105.142   -26144983.616 9 -20362818.66947  20423104.529    20423110.6914
  24488348.776    -7328786.891 7  -5412798.81145  24488348.329    24488357.9264
  20998535.283   -25234162.024 9 -17241570.48447  20998534.897    20998540.8544
  22781175.076   -15291164.891 8 -11900955.01846  22781174.651    22781182.2684
 00  5  6  2 29 30.0000000  0  9 03 25 29 09 23 15 11 21 31
  22809642.421   -16373782.841 8 -12463530.29846  22809642.153    22809650.7794
  23817938.245   -10785615.931 8  -8394324.74745  23817938.236    23817949.0494
  20286225.610   -27225451.884 9 -20912706.50348  20286225.578    20286230.3924
  24393586.624    -7265505.698 7  -5648159.11845  24393586.501    24393594.8784
  23060453.959   -12858227.322 8  -9971337.20946  23060453.530    23060460.5654
  20413087.369   -26197627.145 9 -20403839.56347  20413086.774    20413092.9254
  24468873.114    -7431131.689 7  -5492547.91245  24468872.762    24468882.3514
  20998952.788   -25231967.986 9 -17239860.82847  20998952.388    20998958.3694
  22786139.654   -15265075.896 8 -11880625.96246  22786139.195    22786146.8484
 00  5  6  2 30  0.0000000  0  9 03 25 29 09 23 15 11 21 31
  22823444.101   -16301254.880 8 -12407015.10146  22823443.828    22823452.4784
  23799184.818   -10884164.696 8  -8471115.67145  23799184.748    23799195.4984
  20290251.284   -27204296.835 9 -20896222.03848  20290251.251    20290256.0784
  24407117.975    -7194398.041 7  -5592750.60545  24407117.954    24407126.2444
  23070404.913   -12805934.804 8  -9930589.82246  23070404.481    23070411.4924
  20403150.309   -26249846.687 9 -20444530.07847  20403149.713    20403155.8394
  24449409.699    -7533412.131 7  -5572246.87845  24449409.366    24449419.0704
  20999399.782   -25229618.822 9 -17238030.29747  20999399.378    20999405.3544
  22791199.939   -15238483.966 8 -11859905.00746  22791199.481    22791207.1154
 00  5  6  2 30 30.0000000  0  9 03 25 29 09 23 15 11 21 31
  22837297.901   -16228453.126 8 -12350286.55446  22837297.638    22837306.3034
  23780439.024   -10982673.036 8  -8547875.10245  23780438.956    23780449.6024
  20294353.540   -27182739.255 9 -20879423.91348  20294353.511    20294358.3334
  24420732.745    -7122851.966 7  -5537000.46445  24420732.768    24420741.0224
  23080370.595   -12753564.921 8  -9889782.14446  23080370.172    23080377.1634
  20393294.168   -26301640.919 9 -20484889.18347  20393293.577    20393299.6794
  24429958.708    -7635627.018 7  -5651894.76845  24429958.302    24429967.9664
  20999876.249   -25227114.968 9 -17236079.23147  20999875.849    20999881.8344
  22796355.458   -15211391.626 8 -11838794.11446  22796355.002    22796362.6744
 00  5  6  2 31  0.0000000  0  9 03 25 29 09 23 15 11 21 31
  22851203.669   -16155378.054 8 -12293345.02546  22851203.451    22851212.0874
  23761702.014   -11081135.430 8  -8624598.73945  23761701.947    23761712.4764
  20298532.631   -27160777.797 9 -20862311.07848  20298532.618    20298537.4244
  24434431.038    -7050866.993 7  -5480908.32745  24434431.065    24434439.3854
  23090351.566   -12701114.678 8  -9848911.85646  23090351.132    23090358.1504
  20383519.928   -26353004.688 9 -20524912.86647  20383519.323    20383525.4254
  24410521.248    -7737771.434 7  -5731487.73445  24410520.828    24410530.4474
  21000382.810   -25224452.786 9 -17234004.79347  21000382.418    21000388.3864
  22801606.428   -15183797.723 8 -11817292.40446  22801605.987    22801613.6704
 00  5  6  2 31 30.0000000  0  9 03 25 29 09 23 15 11 21 31
  22865160.498   -16082034.833 8 -12236194.55746  22865160.269    22865168.9724
  23742973.794   -11179551.630 8  -8701286.39345  23742973.722    23742984.2014
  20302787.877   -27138416.354 9 -20844886.56248  20302787.872    20302792.6514
  24448212.017    -6978447.542 8  -5424477.61145  24448212.005    24448220.3524
  23100347.461   -12648586.037 8  -9807980.46646  23100347.042    23100354.1044
  20373827.623   -26403937.896 9 -20564601.04547  20373827.023    20373833.1254
  24391097.137    -7839845.370 7  -5811025.77745  24391096.675    24391106.2644
  21000919.172   -25221634.316 9 -17231808.56647  21000918.786    21000924.7314
  22806952.072   -15155706.348 8 -11795403.04246  22806951.646    22806959.3164
 00  5  6  2 32  0.0000000  0  9 03 25 29 09 23 15 11 21 31
  22879167.574   -16008427.458 8 -12178838.25246  22879167.352    22879176.1104
  23724254.664   -11277920.052 8  -8777936.83145  23724254.582    23724265.0524
  20307118.661   -27115657.807 9 -20827152.61748  20307118.634    20307123.4434
  24462075.004    -6905597.501 7  -5367711.38245  24462074.998    24462083.3514
  23110358.054   -12595979.991 8  -9766988.76946  23110357.592    23110364.7034
  20364217.422   -26454439.767 9 -20603953.12147  20364216.816    20364222.9174
  24371686.498    -7941848.205 7  -5890508.44545  24371686.093    24371695.5744
  21001485.031   -25218660.657 9 -17229491.41647  21001484.625    21001490.5724
  22812391.778   -15127120.648 8 -11773128.50546  22812391.310    22812399.0184
 00  5  6  2 32 30.0000000  0  9 03 25 29 09 23 15 11 21 31
  22893225.106   -15934554.709 8 -12121275.17646  22893224.880    22893233.6734
  23705546.042   -11376233.302 8  -8854544.27045  23705545.893    23705556.3204
  20311525.669   -27092498.906 9 -20809106.71048  20311525.663    20311530.4374
  24476020.404    -6832314.069 8  -5310607.45345  24476020.324    24476028.8464
  23120384.386   -12543291.367 8  -9725932.72646  23120383.961    23120391.0364
  20354690.679   -26504502.973 9 -20642963.37947  20354690.091    20354696.1734
  24352290.758    -8043773.071 7  -5969930.35245  24352290.420    24352299.7704
  21002081.404   -25215526.575 9 -17227049.26647  21002081.002    21002086.9454
  22817926.123   -15098037.410 8 -11750466.27146  22817925.679    22817933.3864
 00  5  6  2 33  0.0000000  0  9 03 25 29 09 23 15 11 21 31
  22907331.700   -15860424.519 8 -12063511.48946  22907331.475    22907340.2994
  23686847.431   -11474493.782 8  -8931110.58845  23686847.357    23686857.6404
  20316007.514   -27068946.486 9 -20790754.16148  20316007.491    20316012.2794
  24490046.977    -6758604.202 8  -5253171.23545  24490046.863    24490055.3324
  23130425.525   -12490524.725 8  -9684815.87646  23130425.100    23130432.2034
  20345246.957   -26554129.881 9 -20681633.66547  20345246.359    20345252.4524
  24332909.427    -8145622.525 7  -6049293.49245  24332909.037    24332918.2814
  21002707.594   -25212235.964 9 -17224485.14247  21002707.188    21002713.1124
  22823553.850   -15068463.605 8 -11727421.78046  22823553.363    22823561.1254
 00  5  6  2 33 30.0000000  0  9 03 25 29 09 23 15 11 21 31
  22921486.869   -15786038.961 8 -12005548.81046  22921486.655    22921495.5054
  23668159.557   -11572697.930 8  -9007633.03245  23668159.555    23668169.7344
  20320564.198   -27045000.911 9 -20772095.25548  20320564.166    20320568.9564
  24504154.364    -6684469.596 8  -5195404.06145  24504154.217    24504162.7904
  23140481.815   -12437678.696 8  -9643637.17046  23140481.348    23140488.5274
  20335886.817   -26603317.600 9 -20719961.72347  20335886.209    20335892.2914
  24313542.960    -8247393.680 7  -6128595.60945  24313542.604    24313551.8924
  21003363.768   -25208787.550 9 -17221798.05447  21003363.364    21003369.3114
  22829274.729   -15038400.191 8 -11703995.76546  22829274.222    22829282.0174
 00  5  6  2 34  0.0000000  0  8 03 25 29 23 15 11 21 31
  22935690.554   -15711398.268 8 -11947387.33646  22935690.322    22935699.2094
  23649483.461   -11670840.387 8  -9084107.40045  23649483.424    23649493.5764
  20325195.835   -27020661.407 9 -20753129.40048  20325195.810    20325200.6034
  23150553.792   -12384750.265 8  -9602394.26846  23150553.366    23150560.5244
  20326611.220   -26652061.085 9 -20757943.63147  20326610.620    20326616.6934
  24294192.295    -8349081.709 7  -6207832.92045  24294191.991    24294201.1994
  21004050.569   -25205178.360 9 -17218985.69047  21004050.169    21004056.0974
  22835089.024   -15007845.906 8 -11680187.27346  22835088.587    22835096.3164
 00  5  6  2 34 30.0000000  0  8 03 25 29 23 15 11 21 31
  22949941.786   -15636508.045 8 -11889031.42746  22949941.546    22949950.4474
  23630819.085   -11768921.310 8  -9160533.83945  23630819.035    23630829.1374
  20329901.660   -26995932.075 9 -20733859.77948  20329901.622    20329906.4354
  23160640.988   -12331741.769 8  -9561088.95846  23160640.593    23160647.7164
  20317420.044   -26700360.885 9 -20795579.81047  20317419.433    20317425.4984
  24274857.396    -8450687.072 7  -6287005.80945  24274857.126    24274866.2334
  21004767.687   -25201409.941 9 -17216049.24947  21004767.292    21004773.2244
  22840995.877   -14976805.453 8 -11655999.94546  22840995.428    22841003.1554
 00  5  6  2 35  0.0000000  0  8 03 25 29 23 15 11 21 31
  22964240.209   -15561369.662 8 -11830482.13546  22964239.978    22964248.8964
  23612167.189   -11866936.638 8  -9236909.15545  23612167.107    23612177.1564
  20334681.634   -26970813.016 9 -20714286.47748  20334681.603    20334686.4164
  23170743.793   -12278651.364 8  -9519719.82346  23170743.398    23170750.4964
  20308313.995   -26748213.380 9 -20832867.43847  20308313.377    20308319.4264
  24255538.829    -8552206.215 7  -6366111.49545  24255538.560    24255547.6704
  21005515.297   -25197481.135 9 -17212987.83247  21005514.895    21005520.8324
  22846995.108   -14945279.369 8 -11631434.19246  22846994.634    22847002.4204
 00  5  6  2 35 30.0000000  0  8 03 25 29 23 15 11 21 31
  22978585.131   -15485987.183 8 -11771742.64946  22978584.896    22978593.8354
  23593528.220   -11964884.056 8  -9313231.58145  23593528.191    23593538.1024
  20339535.292   -26945306.902 9 -20694411.57148  20339535.273    20339540.0574
  23180862.049   -12225479.611 8  -9478287.30746  23180861.623    23180868.7924
  20299293.308   -26795617.258 9 -20869805.49547  20299292.692    20299298.7224
  24236236.987    -8653637.703 7  -6445148.88245  24236236.813    24236245.7914
  21006293.456   -25193391.883 9 -17209801.39047  21006293.066    21006298.9874
  22853086.158   -14913270.707 8 -11606492.42346  22853085.748    22853093.5004
 00  5  6  2 36  0.0000000  0  8 03 25 29 23 15 11 21 31
  22992976.029   -15410362.915 8 -11712814.75546  22992975.783    22992984.7554
  23574902.795   -12062760.460 8  -9389498.67945  23574902.745    23574912.5874
  20344462.377   -26919414.674 9 -20674235.80448  20344462.352    20344467.1624
  23190995.995   -12172225.505 8  -9436790.62046  23190995.518    23191002.6714
  20290358.681   -26842569.094 9 -20906391.31547  20290358.057    20290364.0794
  24216952.309    -8754978.874 7  -6524115.87445  24216952.013    24216961.0674
  21007102.443   -25189140.602 9 -17206488.69747  21007102.046    21007107.9814
  22859268.892   -14880780.444 8 -11581175.37046  22859268.478    22859276.2424
 00  5  6  2 36 30.0000000  0  8 03 25 29 23 15 11 21 31
  23007412.343   -15334499.963 8 -11653700.87546  23007412.120    23007421.0894
  23556291.344   -12160563.278 8  -9465708.43345  23556291.290    23556301.0364
  20349462.708   -26893137.712 9 -20653760.24248  20349462.700    20349467.5124
  23201145.702   -12118888.414 8  -9395229.26546  23201145.251    23201152.4264
  20281510.399   -26889066.909 9 -20942623.35247  20281509.783    20281515.7964
  24197685.299    -8856227.204 7  -6603010.52645  24197685.032    24197694.1684
  21007942.408   -25184726.468 9 -17203049.10647  21007942.014    21007947.9224
  22865542.905   -14847810.532 8 -11555484.56746  22865542.474    22865550.2524
 00  5  6  2 37  0.0000000  0  8 03 25 29 23 15 11 21 31
  23021893.131   -15258403.330 8 -11594404.90446  23021892.895    23021901.8544
  23537694.122   -12258291.556 8  -9541860.12045  23537694.074    23537703.7744
  20354535.477   -26866480.025 9 -20632988.01048  20354535.468    20354540.2604
  23211310.840   -12065470.246 8  -9353604.73546  23211310.374    23211317.5914
  20272748.517   -26935110.782 9 -20978501.66347  20272747.889    20272753.8934
  24178435.939    -8957382.737 7  -6681832.86045  24178435.628    24178444.7194
  21008812.904   -25180152.036 9 -17199484.60647  21008812.512    21008818.4034
  22871907.377   -14814365.144 8 -11529423.26646  22871906.998    22871914.7534
 00  5  6  2 37 30.0000000  0  8 03 25 29 23 15 11 21 31
  23036418.739   -15182071.295 8 -11534925.50346  23036418.479    23036427.4654
  23519112.365   -12355938.189 8  -9617948.18445  23519112.308    23519122.0284
  20359681.323   -26839438.525 9 -20611916.69848  20359681.316    20359686.1044
  23221492.393   -12011965.789 8  -9311912.96646  23221491.945    23221499.1554
  20264074.416   -26980693.388 9 -21014020.53847  20264073.794    20264079.7974
  24159205.519    -9058438.606 7  -6760577.53345  24159205.081    24159214.3254
  21009714.927   -25175411.745 9 -17195790.85947  21009714.547    21009720.4294
  22878362.960   -14780441.027 8 -11502988.92646  22878362.520    22878370.3374
 00  5  6  2 38  0.0000000  0  8 03 25 29 23 15 11 21 31
  23050987.607   -15105511.682 8 -11475268.76946  23050987.343    23050996.3674
  23500545.842   -12453505.069 8  -9693974.10245  23500545.781    23500555.3854
  20364899.018   -26812019.344 9 -20590551.08948  20364899.004    20364903.8044
  23231689.567   -11958379.205 8  -9270157.19246  23231689.147    23231696.3694
  20255487.579   -27025817.358 9 -21049182.03547  20255486.958    20255492.9674
  24139993.609    -9159397.215 7  -6839246.39745  24139993.251    24140002.4864
  21010647.835   -25170509.282 9 -17191970.74547  21010647.431    21010653.3354
  22884908.303   -14746045.069 8 -11476186.92046  22884907.868    22884915.6764
 00  5  6  2 38 30.0000000  0  8 03 25 29 23 15 11 21 31
  23065599.552   -15028725.877 8 -11415435.78846  23065599.328    23065608.3664
  23481995.260   -12550987.935 8  -9769934.54545  23481995.263    23482004.8054
  20370188.486   -26784222.869 9 -20568891.49148  20370188.492    20370193.2634
  23241902.764   -11904708.602 8  -9228335.94646  23241902.326    23241909.6014
  20246988.697   -27070479.064 9 -21083983.33047  20246988.082    20246994.0894
  24120800.980    -9260254.638 7  -6917836.42545  24120800.638    24120809.8344
  21011611.991   -25165442.501 9 -17188022.59547  21011611.594    21011617.5014
  22891543.361   -14711177.827 8 -11449017.68146  22891542.944    22891550.6924
 00  5  6  2 39  0.0000000  0  8 03 25 29 23 15 11 21 31
  23080254.026   -14951716.406 8 -11355428.51346  23080253.813    23080262.9154
  23463461.274   -12648383.638 8  -9845827.06745  23463461.244    23463470.7294
  20375549.536   -26756050.324 9 -20546938.84648  20375549.541    20375554.3174
  23252132.030   -11850953.398 8  -9186448.78446  23252131.584    23252138.8404
  20238578.279   -27114675.962 9 -21118422.42947  20238577.664    20238583.6534
  24101628.044    -9361008.528 7  -6996345.76045  24101627.651    24101636.7764
  21012607.515   -25160210.887 9 -17183945.99747  21012607.145    21012613.0394
  22898267.700   -14675841.385 8 -11421482.83146  22898267.259    22898275.0614
 00  5  6  2 39 30.0000000  0  8 03 25 29 23 15 11 21 31
  23094950.452   -14874486.539 8 -11295249.51046  23094950.238    23094959.3604
  23444944.414   -12745689.544 8  -9921649.61745  23444944.313    23444953.7964
  20380981.803   -26727503.560 9 -20524694.60448  20380981.780    20380986.5604
  23262377.486   -11797113.128 8  -9144495.34246  23262377.052    23262384.2714
  20230256.750   -27158405.872 9 -21152497.64347  20230256.145    20230262.1094
  24082475.258    -9461656.752 7  -7074772.77145  24082474.890    24082483.9154
  21013634.543   -25154813.841 9 -17179740.49547  21013634.164    21013640.0354
  22905080.989   -14640037.401 8 -11393583.66346  22905080.533    22905088.3644
 00  5  6  2 40  0.0000000  0  8 03 25 29 23 15 11 21 31
  23109688.092   -14797040.190 8 -11234901.80046  23109687.836    23109697.0174
  23426444.959   -12842904.011 8  -9997400.91445  23426444.840    23426454.2534
  20386484.794   -26698585.155 9 -20502160.76948  20386484.780    20386489.5454
  23272638.990   -11743188.598 8  -9102476.22846  23272638.607    23272645.7424
  20222024.240   -27201667.790 9 -21186208.18447  20222023.614    20222029.5664
  24063342.729    -9562198.005 7  -7153116.42545  24063342.455    24063351.4374
  21014692.993   -25149251.646 9 -17175406.29947  21014692.621    21014698.4704
  22911982.638   -14603769.093 8 -11365322.68046  22911982.174    22911989.9934
 00  5  6  2 40 30.0000000  0  8 03 25 29 23 15 11 21 31
  23124466.582   -14719379.083 8 -11174386.76146  23124466.355    23124475.5144
  23407963.629   -12940022.939 8 -10073077.76145  23407963.554    23407972.9204
  20392058.438   -26669295.451 9 -20479337.61648  20392058.402    20392063.1784
  23282916.897   -11689177.947 8  -9060390.01046  23282916.502    23282923.6674
  20213881.512   -27244457.909 9 -21219551.08947  20213880.892    20213886.8314
  24044231.298    -9662628.634 7  -7231373.88845  24044231.076    24044239.9214
  21015783.338   -25143521.771 9 -17170941.44847  21015782.966    21015788.8184
  22918972.566   -14567036.954 8 -11336700.28246  22918972.126    22918979.9674
 00  5  6  2 41  0.0000000  0  8 03 25 29 23 15 11 21 31
  23139285.616   -14641505.135 8 -11113705.85546  23139285.366    23139294.5764
  23389501.205   -13037042.707 8 -10148677.34646  23389501.126    23389510.3634
  20397702.621   -26639635.081 9 -20456225.63148  20397702.594    20397707.3544
  23293211.513   -11635079.547 8  -9018235.44046  23293211.115    23293218.2704
  20205829.185   -27286773.008 9 -21252523.84947  20205828.566    20205834.4904
  24025141.581    -9762945.242 7  -7309542.49145  24025141.261    24025150.0574
  21016905.807   -25137623.185 9 -17166345.12447  21016905.419    21016911.2774
  22926050.549   -14529841.948 8 -11307717.19446  22926050.105    22926057.9564
 00  5  6  2 41 30.0000000  0  8 03 25 29 23 15 11 21 31
  23154143.661   -14563426.032 8 -11052865.10746  23154143.450    23154152.6024
  23371057.306   -13133965.006 8 -10224200.98446  23371057.214    23371066.4044
  20403416.115   -26609610.355 9 -20432829.73048  20403416.099    20403420.8544
  23303522.027   -11580897.468 8  -8976015.64646  23303521.548    23303528.7864
  20197866.725   -27328615.813 9 -21285128.58847  20197866.118    20197872.0164
  24006073.076    -9863150.235 7  -7387624.12445  24006072.722    24006081.5904
  21018059.568   -25131559.902 9 -17161620.47347  21018059.181    21018065.0404
  22933215.303   -14492191.109 8 -11278378.90546  22933214.846    22933222.7064
 00  5  6  2 42  0.0000000  0  8 03 25 29 23 15 11 21 31
  23169041.007   -14485140.555 8 -10991863.53546  23169040.777    23169049.9984
  23352633.324   -13230782.901 8 -10299643.25346  23352633.269    23352642.4144
  20409199.370   -26579219.047 9 -20409148.18548  20409199.335    20409204.1004
  23313849.302   -11526627.387 8  -8933727.29646  23313848.808    23313856.0424
  20189995.353   -27369980.065 9 -21317360.42647  20189994.728    20190000.6454
  23987027.044    -9963237.196 7  -7465613.79945  23987026.667    23987035.5284
  21019245.747   -25125326.502 9 -17156763.26147  21019245.359    21019251.2084
  22940467.194   -14454082.409 8 -11248683.85246  22940466.775    22940474.6324
 00  5  6  2 42 30.0000000  0  8 03 25 29 23 15 11 21 31
  23183976.686   -14406653.121 8 -10930704.59446  23183976.458    23183985.7194
  23334229.395   -13327495.193 8 -10375003.24846  23334229.340    23334238.4134
  20415051.875   -26548463.983 9 -20385183.19148  20415051.844    20415056.6194
  23324193.176   -11472270.087 8  -8891370.95646  23324192.727    23324199.9114
  20182215.204   -27410864.920 9 -21349218.69548  20182214.574    20182220.4834
  23968003.621   -10063205.289 7  -7543510.85145  23968003.357    23968012.0574
  21020464.050   -25118924.174 9 -17151774.41147  21020463.656    21020469.5164
  22947805.500   -14415519.410 8 -11218634.79246  22947805.066    22947812.9254
 00  5  6  2 43  0.0000000  0  8 03 25 29 23 15 11 21 31
  23198950.259   -14327966.885 8 -10869390.75346  23198950.021    23198959.3014
  23315846.101   -13424099.070 8 -10450278.76046  23315846.066    23315855.0524
  20420973.278   -26517346.753 9 -20360935.99548  20420973.264    20420978.0234
  23334553.726   -11417825.064 8  -8848946.29446  23334553.315    23334560.4234
  20174526.681   -27451268.159 9 -21380701.70148  20174526.066    20174531.9584
  23949003.271   -10163051.940 7  -7621313.27945  23949002.970    23949011.6564
  21021714.643   -25112352.090 9 -17146653.29147  21021714.260    21021720.0964
  22955229.942   -14376503.821 8 -11188233.05946  22955229.525    22955237.4054
 00  5  6  2 43 30.0000000  0  8 03 25 29 23 15 11 21 31
  23213961.059   -14249084.814 8 -10807924.29545  23213960.820    23213970.0864
  23297483.942   -13520591.912 8 -10525467.75046  23297483.928    23297492.8804
  20426963.230   -26485869.334 9 -20336408.12448  20426963.198    20426967.9644
  23344930.980   -11363292.081 8  -8806453.08746  23344930.541    23344937.7094
  20166930.166   -27491187.880 9 -21411807.93948  20166929.555    20166935.4384
  23930026.463   -10262775.229 8  -7699019.56545  23930026.138    23930034.8434
  21022997.630   -25105609.843 9 -17141399.57247  21022997.242    21023003.0804
  22962740.023   -14337038.138 8 -11157480.61146  22962739.556    22962747.5004
 00  5  6  2 44  0.0000000  0  8 03 25 29 23 15 11 21 31
  23229008.608   -14170009.871 8 -10746307.54845  23229008.392    23229017.7004
  23279143.434   -13616970.930 8 -10600568.04846  23279143.396    23279152.3174
  20433021.363   -26454033.506 9 -20311600.97948  20433021.334    20433026.1004
  23355325.126   -11308670.693 8  -8763890.99646  23355324.686    23355331.8994
  20159426.069   -27530621.931 9 -21442535.73948  20159425.450    20159431.3184
  23911073.570   -10362372.649 8  -7776627.78745  23911073.229    23911081.8454
  21024313.095   -25098696.929 9 -17136012.86347  21024312.711    21024318.5634
  22970335.367   -14297124.487 8 -11126379.09346  22970334.917    22970342.8274
 00  5  6  2 44 30.0000000  0  8 03 25 29 23 15 11 21 31
  23244092.319   -14090744.712 8 -10684542.59445  23244092.100    23244101.5024
  23260825.224   -13713232.704 8 -10675576.99346  23260825.196    23260834.0554
  20439147.513   -26421840.418 9 -20286515.44648  20439147.493    20439152.2334
  23365736.200   -11253960.045 8  -8721259.35746  23365735.787    23365743.0234
  20152014.891   -27569567.804 9 -21472883.13748  20152014.281    20152020.1244
  23892145.160   -10461841.422 8  -7854135.75845  23892144.863    23892153.4724
  21025661.301   -25091611.980 9 -17130492.10647  21025660.938    21025666.7634
  22978015.624   -14256764.576 8 -11094929.84346  22978015.211    22978023.1014
 00  5  6  2 45  0.0000000  0  8 03 25 29 23 15 11 21 31
  23259211.487   -14011293.306 8 -10622632.50945  23259211.253    23259220.6614
  23242529.649   -13809375.798 8 -10750493.45946  23242529.612    23242538.4144
  20445341.124   -26389292.730 9 -20261153.60048  20445341.095    20445345.8434
  23376164.254   -11199160.505 8  -8678558.44146  23376163.829    23376171.0874
  20144696.849   -27608024.277 9 -21502849.18148  20144696.247    20144702.0664
  23873241.521   -10561180.139 8  -7931542.40245  23873241.199    23873249.7504
  21027042.120   -25084355.635 9 -17124837.78647  21027041.742    21027047.5864
  22985780.245   -14215961.402 8 -11063135.18846  22985779.826    22985787.6784
 00  5  6  2 45 30.0000000  0  8 03 25 29 23 15 11 21 31
  23274365.659   -13931658.217 8 -10560579.30045  23274365.422    23274374.8644
  23224257.293   -13905396.868 8 -10825314.85846  23224257.251    23224265.9964
  20451601.999   -26356391.589 9 -20235516.33948  20451601.961    20451606.7364
  23386609.356   -11144271.225 8  -8635787.60546  23386608.957    23386616.2104
  20137472.356   -27645988.983 9 -21532432.04148  20137471.748    20137477.5534
  23854363.109   -10660386.094 8  -8008845.59345  23854362.768    23854371.3164
  21028455.806   -25076926.600 9 -17119048.91647  21028455.413    21028461.2684
  22993628.887   -14174716.793 8 -11030996.56046  22993628.422    22993636.3174
 00  5  6  2 46  0.0000000  0  8 03 25 29 23 15 11 21 31
  23289554.226   -13851842.275 8 -10498385.16645  23289553.957    23289563.5104
  23206008.711   -14001293.044 8 -10900038.92746  23206008.615    23206017.3524
  20457929.750   -26323138.894 9 -20209605.13948  20457929.710    20457934.4694
  23397071.616   -11089291.715 8  -8592946.44945  23397071.165    23397078.4864
  20130341.881   -27683459.769 9 -21561630.03248  20130341.265    20130347.0534
  23835510.497   -10759456.691 8  -8086043.31445  23835510.091    23835518.5884
  21029902.587   -25069323.592 9 -17113124.47747  21029902.212    21029908.0444
  23001561.052   -14133033.101 8 -10998515.80346  23001560.581    23001568.4734
 00  5  6  2 46 30.0000000  0  8 03 25 29 23 15 11 21 31
  23304776.575   -13771848.733 8 -10436052.64545  23304776.329    23304785.8214
  23187784.341   -14097061.852 8 -10974663.76546  23187784.232    23187792.8784
  20464324.064   -26289536.569 9 -20183421.50148  20464324.033    20464328.7904
  23407551.058   -11034221.837 8  -8550034.87845  23407550.610    23407557.9074
  20123305.731   -27720434.957 9 -21590441.84548  20123305.126    20123310.9084
  23816683.964   -10858390.050 8  -8163134.10245  23816683.473    23816691.9324
  21031382.579   -25061546.225 9 -17107064.16647  21031382.187    21031388.0274
  23009576.265   -14090912.967 8 -10965694.95446  23009575.792    23009583.6944
 00  5  6  2 47  0.0000000  0  8 03 25 29 23 15 11 21 31
  23320032.125   -13691680.788 8 -10373584.22545  23320031.878    23320041.4304
  23169584.708   -14192700.666 8 -11049187.30646  23169584.611    23169593.1694
  20470784.583   -26255586.323 9 -20156966.75347  20470784.541    20470789.3094
  23418047.856   -10979060.979 8  -8507052.42745  23418047.383    23418054.6664
  20116364.307   -27756912.273 9 -21618865.70348  20116363.701    20116369.4824
  23797884.105   -10957183.646 8  -8240115.99545  23797883.638    23797892.0054
  21032895.749   -25053594.273 9 -17100867.82647  21032895.350    21032901.1904
  23017674.154   -14048358.282 8 -10932535.49546  23017673.716    23017681.6304
 00  5  6  2 47 30.0000000  0  8 03 25 29 23 15 11 21 31
  23335320.163   -13611341.819 8 -10310982.54645  23335320.004    23335329.5434
  23151410.255   -14288207.041 8 -11123607.64846  23151410.222    23151418.7024
  20477310.895   -26221290.262 9 -20130242.53747  20477310.853    20477315.6124
  23428561.910   -10923809.169 8  -8463999.09645  23428561.455    23428568.7474
  20109517.874   -27792890.327 9 -21646900.51948  20109517.271    20109523.0544
  23779111.203   -11055835.331 8  -8316987.30545  23779110.754    23779119.0804
  21034442.328   -25045467.088 9 -17094534.93747  21034441.919    21034447.7484
  23025854.214   -14005371.867 8 -10899039.62746  23025853.773    23025861.6764
 00  5  6  2 48  0.0000000  0  8 03 25 29 23 15 11 21 31
  23350640.341   -13530834.180 8 -10248249.44045  23350640.178    23350649.7774
  23133261.748   -14383577.289 8 -11197921.92146  23133261.697    23133270.1334
  20483902.801   -26186649.380 9 -20103249.63347  20483902.769    20483907.5274
  23439093.517   -10868465.339 8  -8420874.05745  23439093.093    23439100.3794
  20102767.018   -27828366.135 9 -21674543.97848  20102766.414    20102772.1934
  23760365.759   -11154342.497 8  -8393746.00845  23760365.341    23760373.6094
  21036022.344   -25037163.799 9 -17088064.82847  21036021.935    21036027.7764
  23034116.096   -13961955.448 8 -10865208.70446  23034115.693    23034123.5434
 00  5  6  2 48 30.0000000  0  8 03 25 29 23 15 11 21 31
  23365992.002   -13450161.041 8 -10185387.36545  23365991.821    23366001.4884
  23115139.500   -14478809.432 8 -11272128.58346  23115139.432    23115147.7874
  20490559.869   -26151666.199 9 -20075989.99747  20490559.841    20490564.6014
  23449642.650   -10813029.297 8  -8377677.16445  23449642.250    23449649.5314
  20096112.017   -27863338.277 9 -21701794.96848  20096111.412    20096117.1804
  23741648.285   -11252702.955 8  -8470390.40745  23741647.919    23741656.1304
  21037635.998   -25028683.976 9 -17081457.15247  21037635.598    21037641.4174
  23042459.314   -13918111.760 8 -10831044.82346  23042458.897    23042466.7714
 00  5  6  2 49  0.0000000  0  8 03 25 29 23 15 11 21 31
  23381374.636   -13369325.227 8 -10122398.54545  23381374.461    23381384.1934
  23097044.142   -14573900.325 8 -11346225.17746  23097044.080    23097052.3864
  20497281.841   -26116341.948 9 -20048464.59347  20497281.827    20497286.5784
  23460209.513   -10757500.351 8  -8334407.87845  23460209.105    23460216.3814
  20089553.274   -27897804.683 9 -21728651.88348  20089552.672    20089558.4174
  23722959.213   -11350914.006 8  -8546918.37745  23722958.888    23722967.0334
  21039283.472   -25020026.389 9 -17074710.95947  21039283.067    21039288.8894
  23050883.493   -13873842.641 8 -10796549.45246  23050883.056    23050890.9204
 00  5  6  2 49 30.0000000  0  8 03 25 29 23 15 11 21 31
  23396787.608   -13288329.957 8 -10059285.46645  23396787.391    23396797.2054
  23078976.221   -14668847.139 8 -11420209.50846  23078976.158    23078984.4184
  20504068.296   -26080678.786 9 -20020675.10347  20504068.269    20504073.0364
  23470794.097   -10701878.319 8  -8291066.07145  23470793.718    23470800.9124
  20083091.063   -27931763.661 9 -21755113.40148  20083090.456    20083096.1904
  23704298.993   -11448973.602 8  -8623328.33045  23704298.646    23704306.7964
  21040964.887   -25011190.420 9 -17067825.77147  21040964.473    21040970.2824
  23059388.072   -13829151.017 8 -10761724.85646  23059387.648    23059395.4984
 00  5  6  2 50  0.0000000  0  8 03 25 29 23 15 11 21 31
  23412230.234   -13207178.797 8  -9996050.92945  23412229.971    23412239.8434
  23060936.105   -14763647.780 8 -11494079.93646  23060936.016    23060944.2294
  20510918.885   -26044678.633 9 -19992623.02747  20510918.856    20510923.6184
  23481396.319   -10646163.281 8  -8247651.77745  23481395.928    23481403.1434
  20076725.683   -27965213.938 9 -21781178.52748  20076725.063    20076730.7944
  23685668.009   -11546879.680 8  -8699618.66445  23685667.614    23685675.8514
  21042680.168   -25002176.503 9 -17060801.92447  21042679.766    21042685.5644
  23067972.506   -13784039.449 8 -10726573.03246  23067972.065    23067979.9684
 00  5  6  2 50 30.0000000  0  8 03 25 29 23 15 11 21 31
  23427702.012   -13125874.521 8  -9932697.06045  23427701.680    23427711.5754
  23042924.296   -14858299.552 8 -11567834.37246  23042924.226    23042932.3344
  20517833.268   -26008343.260 9 -19964309.73447  20517833.240    20517838.0104
  23492016.478   -10590354.290 8  -8204164.26345  23492016.016    23492023.2694
  20070457.572   -27998153.026 9 -21806845.31948  20070456.952    20070462.6634
  23667066.744   -11644629.592 8  -8775787.31445  23667066.351    23667074.4474
  21044429.598   -24992983.011 9 -17053638.14247  21044429.195    21044434.9954
  23076636.536   -13738509.981 8 -10691095.56646  23076636.067    23076643.9734
 00  5  6  2 51  0.0000000  0  8 03 25 29 23 15 11 21 31
  23443202.322   -13044420.112 8  -9869226.21745  23443202.038    23443211.9464
  23024941.442   -14952799.208 8 -11641470.27646  23024941.355    23024949.4514
  20524811.177   -25971674.001 9 -19935736.26747  20524811.159    20524815.9034
  23502654.607   -10534450.695 8  -8160603.06045  23502654.121    23502661.4304
  20064287.128   -28030578.760 9 -21832112.09948  20064286.513    20064292.2094
  23648495.725   -11742220.440 8  -8851832.01745  23648495.327    23648503.3704
  21046213.540   -24983608.387 9 -17046333.22147  21046213.120    21046218.9294
  23085379.635   -13692564.721 8 -10655294.10446  23085379.204    23085387.0944
 00  5  6  2 51 30.0000000  0  8 03 25 29 23 15 11 21 31
  23458730.625   -12962818.760 8  -9805640.87045  23458730.378    23458740.2564
  23006987.959   -15047144.583 8 -11714985.96746  23006987.894    23006995.9214
  20531852.192   -25934673.152 9 -19906904.42247  20531852.165    20531856.9304
  23513310.695   -10478452.497 8  -8116968.09845  23513310.254    23513317.5694
  20058214.603   -28062489.942 9 -21856977.92948  20058213.988    20058219.6914
  23629955.304   -11839650.460 8  -8927751.39645  23629954.943    23629962.8834
  21048031.768   -24974053.332 9 -17038887.70347  21048031.361    21048037.1514
  23094201.325   -13646206.598 8 -10619170.92546  23094200.917    23094208.8324
 00  5  6  2 52  0.0000000  0  8 03 25 29 23 15 11 21 31
  23474286.254   -12881073.825 8  -9741943.64145  23474286.040    23474295.8624
  22989064.368   -15141333.058 8 -11788379.38846  22989064.322    22989072.2884
  20538955.881   -25897342.999 9 -19877815.97447  20538955.867    20538960.6154
  23523984.839   -10422359.651 8  -8073259.40545  23523984.395    23523991.7644
  20052240.318   -28093885.007 9 -21881441.58848  20052239.713    20052245.4084
  23611445.799   -11936918.029 8  -9003544.18345  23611445.477    23611453.3184
  21049884.460   -24964317.348 9 -17031301.19647  21049884.039    21049889.8464
  23103101.020   -13599438.557 8 -10582728.33646  23103100.596    23103108.5294
 00  5  6  2 52 30.0000000  0  8 03 25 29 23 15 11 21 31
  23489868.808   -12799187.427 8  -9678136.19245  23489868.632    23489878.4434
  22971171.279   -15235361.030 8 -11861647.75546  22971171.260    22971179.1514
  20546122.056   -25859684.433 9 -19848471.61947  20546122.036    20546126.8024
  23534677.182   -10366170.798 8  -8029475.89945  23534676.722    23534684.1364
  20046364.783   -28124760.995 9 -21905500.76848  20046364.171    20046369.8594
  23592967.952   -12034019.433 8  -9079207.49245  23592967.618    23592975.4454
  21051771.860   -24954398.802 9 -17023572.43347  21051771.462    21051777.2664
  23112078.448   -13552261.967 8 -10545967.39446  23112078.011    23112085.9704
 00  5  6  2 53  0.0000000  0  8 03 25 29 23 15 11 21 31
  23505477.574   -12717163.286 8  -9614221.39445  23505477.366    23505487.1974
  22953309.122   -15329226.457 8 -11934789.45246  22953309.125    22953316.8884
  20553350.264   -25821699.861 9 -19818873.23647  20553350.232    20553354.9904
  23545387.768   -10309886.157 8  -7985617.73045  23545387.318    23545394.7004
  20040588.190   -28155116.927 9 -21929154.71048  20040587.580    20040593.2824
  23574522.028   -12130952.968 8  -9154739.98645  23574521.809    23574529.5314
  21053694.078   -24944297.313 9 -17015701.12647  21053693.681    21053699.4764
  23121133.029   -13504679.940 8 -10508890.52446  23121132.573    23121140.5294
 00  5  6  2 53 30.0000000  0  8 03 25 29 23 15 11 21 31
  23521112.092   -12635003.841 8  -9550201.17745  23521111.913    23521121.7774
  22935478.533   -15422926.034 8 -12007801.92946  22935478.519    22935486.2474
  20560640.312   -25783390.253 9 -19789021.57947  20560640.285    20560645.0284
  23556116.835   -10253504.648 8  -7941684.09445  23556116.340    23556123.7994
  20034911.114   -28184950.185 9 -21952401.37448  20034910.510    20034916.2014
  23556108.641   -12227715.410 8  -9230139.16445  23556108.395    23556116.1764
  21055651.391   -24934011.451 9 -17007686.14647  21055650.986    21055656.7964
  23130264.413   -13456694.389 8 -10471499.22946  23130263.972    23130271.9874
 00  5  6  2 54  0.0000000  0  8 03 25 29 23 15 11 21 31
  23536771.504   -12552713.507 8  -9486078.95845  23536771.352    23536781.1694
  22917679.751   -15516458.594 8 -12080684.27146  22917679.741    22917687.4134
  20567991.580   -25744758.973 9 -19758919.27147  20567991.576    20567996.3134
  23566864.086   -10197027.311 8  -7897675.78845  23566863.600    23566871.0494
  20029333.510   -28214260.512 9 -21975240.55848  20029332.901    20029338.5854
  23537727.969   -12324306.004 8  -9305404.42245  23537727.731    23537735.4654
  21057643.609   -24923542.157 9 -16999528.23747  21057643.207    21057649.0244
  23139471.774   -13408309.348 8 -10433796.62246  23139471.317    23139479.3634
 00  5  6  2 54 30.0000000  0  8 03 25 29 23 15 11 21 31
  23552455.670   -12470293.359 8  -9421855.60345  23552455.424    23552465.3694
  22899913.603   -15609819.498 8 -12153432.83046  22899913.619    22899921.2344
  20575404.034   -25705806.157 9 -19728566.41247  20575404.024    20575408.7734
  23577630.022   -10140451.946 8  -7853591.09245  23577629.547    23577637.0034
  20023856.102   -28243044.409 9 -21997669.53648  20023855.493    20023861.1634
  23519380.831   -12420720.440 8  -9380532.41945  23519380.532    23519388.2544
  21059671.185   -24912887.034 9 -16991225.52847  21059670.783    21059676.5974
  23148755.061   -13359525.560 8 -10395783.31746  23148754.601    23148762.6664
 00  5  6  2 55  0.0000000  0  8 03 25 29 23 15 11 21 31
  23568163.781   -12387747.036 8  -9357533.90945  23568163.590    23568173.5374
  22882180.607   -15703006.120 8 -12226045.60046  22882180.606    22882188.2154
  20582877.308   -25666533.737 9 -19697964.51347  20582877.281    20582882.0334
  23588414.694   -10083778.179 8  -7809429.72945  23588414.270    23588421.6384
  20018479.116   -28271300.512 9 -22019687.24548  20018478.506    20018484.1834
  23501067.604   -12516956.614 8  -9455521.51645  23501067.359    23501074.9214
  21061734.237   -24902045.648 9 -16982777.67447  21061733.845    21061739.6324
  23158113.712   -13310345.607 8 -10357461.30246  23158113.322    23158121.3474
 00  5  6  2 55 30.0000000  0  8 03 25 29 23 15 11 21 31
  23583895.140   -12305078.720 8  -9293117.16545  23583894.989    23583904.9204
  22864481.021   -15796017.334 8 -12298521.68146  22864480.969    22864488.5934
  20590410.783   -25626944.977 9 -19667116.11247  20590410.755    20590415.5254
  23599217.966   -10027006.697 8  -7765192.20245  23599217.561    23599224.9224
  20013202.686   -28299028.089 9 -22041293.11148  20013202.079    20013207.7494
  23482788.510   -12613013.385 8  -9530370.79745  23482788.314    23482795.8224
  21063832.593   -24891018.573 9 -16974185.12747  21063832.203    21063837.9804
  23167547.029   -13260773.375 8 -10318833.61446  23167546.612    23167554.6134
 00  5  6  2 56  0.0000000  0  8 03 25 29 23 15 11 21 31
  23599649.305   -12222290.548 8  -9228607.02945  23599649.122    23599659.0434
  22846815.583   -15888849.136 8 -12370857.97246  22846815.529    22846823.0994
  20598004.299   -25587040.689 9 -19636021.84847  20598004.278    20598009.0254
  23610040.026    -9970136.447 8  -7720877.72845  23610039.580    23610046.9294
  20008027.306   -28326224.808 9 -22062485.32748  20008026.701    20008032.3614
  23464544.168   -12708887.459 8  -9605077.74645  23464543.954    23464551.4614
  21065966.588   -24879804.240 9 -16965446.66747  21065966.205    21065971.9734
  23177054.752   -13210810.208 8 -10279901.30946  23177054.328    23177062.3014
 00  5  6  2 56 30.0000000  0  8 03 25 29 23 15 11 21 31
  23615425.700   -12139385.568 8  -9164005.88045  23615425.471    23615435.4404
  22829184.662   -15981499.594 8 -12443052.95746  22829184.605    22829192.0804
  20605657.463   -25546823.047 9 -19604683.41047  20605657.450    20605662.1834
  23620880.928    -9913167.296 8  -7676486.18645  23620880.454    23620887.8184
  20002953.236   -28352889.052 9 -22083262.62448  20002952.624    20002958.2994
  23446335.053   -12804576.533 8  -9679640.53445  23446334.730    23446342.3124
  21068136.369   -24868401.907 9 -16956561.71647  21068135.983    21068141.7414
  23186636.227   -13160459.265 8 -10240666.82946  23186635.796    23186643.7934
 00  5  6  2 57  0.0000000  0  8 03 25 29 23 15 11 21 31
  23631223.758   -12056366.757 8  -9099316.01045  23631223.504    23631233.4894
  22811588.918   -16073965.290 8 -12515103.95746  22811588.826    22811596.2934
  20613369.904   -25506293.776 9 -19573102.14347  20613369.881    20613374.6324
  23631740.773    -9856098.610 8  -7632017.09245  23631740.307    23631747.7264
  19997980.849   -28379018.985 9 -22103623.57748  19997980.246    19997985.9104
  23428161.620   -12900077.995 8  -9754057.13345  23428161.282    23428168.8364
  21070342.190   -24856810.254 9 -16947529.23847  21070341.796    21070347.5494
  23196291.038   -13109723.046 8 -10201132.13646  23196290.632    23196298.6264
 00  5  6  2 57 30.0000000  0  8 03 25 29 23 15 11 21 31
  23647042.780   -11973237.680 8  -9034540.25745  23647042.533    23647052.5264
  22794028.570   -16166244.783 8 -12587009.88246  22794028.483    22794035.9074
  20621141.182   -25465455.365 9 -19541279.98747  20621141.161    20621145.8964
  23642619.475    -9798930.577 8  -7587470.57845  23642618.975    23642626.3444
  19993110.334   -28404613.574 9 -22123567.37448  19993109.728    19993115.3854
  23410024.228   -12995390.113 8  -9828326.17245  23410023.839    23410031.4534
  21072583.840   -24845030.123 9 -16938349.89147  21072583.444    21072589.1944
  23206018.493   -13058604.941 8 -10161299.86046  23206018.097    23206026.0934
 00  5  6  2 58  0.0000000  0  8 03 25 29 23 15 11 21 31
  23662882.428   -11890000.255 8  -8969680.07145  23662882.137    23662892.1974
  22776504.514   -16258333.730 8 -12658767.31446  22776504.424    22776511.7994
  20628971.274   -25424307.882 9 -19509216.99947  20628971.260    20628975.9824
  23653517.479    -9741661.241 8  -7542845.13045  23653516.971    23653524.3544
  19988342.245   -28429669.972 9 -22143091.80548  19988341.629    19988347.2744
  23391923.597   -13090509.054 8  -9902444.69145  23391923.218    23391930.8444
  21074861.925   -24833058.661 9 -16929021.46047  21074861.537    21074867.2994
  23215818.490   -13007105.696 8 -10121170.60746  23215818.074    23215826.1184
 00  5  6  2 58 30.0000000  0  8 03 25 29 23 15 11 21 31
  23678741.964   -11806658.473 8  -8904738.55045  23678741.588    23678751.7954
  22759017.043   -16350230.370 8 -12730374.90646  22759016.970    22759024.2764
  20636859.548   -25382854.698 9 -19476915.80247  20636859.520    20636864.2394
  23664434.564    -9684291.469 8  -7498141.42345  23664434.044    23664441.4624
  19983676.690   -28454187.564 9 -22162196.38848  19983676.079    19983681.7014
  23373859.933   -13185433.601 8  -9976411.73145  23373859.594    23373867.1894
  21077176.325   -24820896.214 9 -16919544.21147  21077175.935    21077181.6954
  23225690.320   -12955228.998 8 -10080747.23146  23225689.960    23225697.9844
 00  5  6  2 59  0.0000000  0  8 03 25 29 23 15 11 21 31
  23694620.804   -11723215.025 8  -8839717.81045  23694620.495    23694630.7674
  22741566.657   -16441931.977 8 -12801830.53046  22741566.571    22741573.8494
  20644805.696   -25341097.387 9 -19444377.62647  20644805.659    20644810.3734
  23675370.881    -9626820.606 8  -7453358.95145  23675370.372    23675377.7644
  19979114.005   -28478164.475 9 -22180879.66048  19979113.378    19979119.0074
  23355833.770   -13280161.385 8 -10050225.43645  23355833.413    23355840.9794
  21079527.259   -24808541.874 9 -16909917.43747  21079526.877    21079532.6244
  23235633.433   -12902977.655 8 -10040031.91346  23235633.026    23235641.1054
 00  5  6  2 59 30.0000000  0  8 03 25 29 23 15 11 21 31
  23710518.616   -11639671.898 8  -8774619.40245  23710518.300    23710528.5774
  22724154.142   -16533434.770 8 -12873131.21846  22724154.076    22724161.2974
  20652809.598   -25299036.633 9 -19411602.99247  20652809.567    20652814.2834
  23686326.770    -9569247.076 8  -7408496.46145  23686326.238    23686333.6594
  19974654.685   -28501598.207 9 -22199139.67348  19974654.055    19974659.6654
  23337845.816   -13374688.192 8 -10123882.53845  23337845.456    23337852.9594
  21081915.042   -24795994.035 9 -16900139.87547  21081914.644    21081920.3954
  23245647.623   -12850352.743 8  -9999025.51146  23245647.213    23245655.3174
 00  5  6  3  0  0.0000000  0  8 03 25 29 23 15 11 21 31
  23726434.157   -11556035.748 8  -8709448.51645  23726433.812    23726444.1004
  22706779.359   -16624739.093 8 -12944277.27346  22706779.284    22706786.4844
  20660870.204   -25256677.773 9 -19378596.07647  20660870.167    20660874.8864
  23697301.607    -9511573.831 8  -7363556.27945  23697301.160    23697308.5394
  19970298.342   -28524490.793 9 -22216978.01948  19970297.701    19970303.3164
  23319895.833   -13469015.323 8 -10197384.04445  23319895.472    23319902.9394
  21084339.167   -24783255.003 9 -16890213.33947  21084338.776    21084344.5244
  23255731.643   -12797361.059 8  -9957733.32246  23255731.243    23255739.3664
 00  5  6  3  0 30.0000000  0  8 03 25 29 23 15 11 21 31
  23742367.755   -11472304.648 8  -8644203.65545  23742367.471    23742377.6764
  22689443.771   -16715837.578 8 -13015262.93246  22689443.755    22689450.8544
  20668988.133   -25214017.683 9 -19345354.42747  20668988.097    20668992.8004
  23708296.457    -9453795.592 8  -7318534.30545  23708295.968    23708303.4514
  19966046.253   -28546835.619 9 -22234389.53848  19966045.614    19966051.2244
  23301985.329   -13563135.108 8 -10270723.98145  23301984.982    23301992.4174
  21086800.656   -24770319.762 9 -16880133.90747  21086800.262    21086806.0054
  23265885.941   -12743999.895 8  -9916153.22046  23265885.512    23265893.7024
 00  5  6  3  1  0.0000000  0  8 03 25 29 23 15 11 21 31
  23758318.176   -11388485.504 8  -8578890.16445  23758317.868    23758328.0994
  22672147.064   -16806731.725 8 -13086089.37346  22672147.020    22672154.1204
  20677162.233   -25171062.349 9 -19311882.72547  20677162.208    20677166.9024
  23719310.627    -9395915.830 8  -7273433.18845  23719310.163    23719317.5754
  19961897.917   -28568635.153 9 -22251376.15548  19961897.276    19961902.8764
  23284113.926   -13657049.241 8 -10343903.66345  23284113.534    23284120.9874
  21089298.943   -24757191.068 9 -16869903.74247  21089298.532    21089304.2784
  23276109.373   -12690275.736 8  -9874290.26846  23276108.935    23276117.0744
 00  5  6  3  1 30.0000000  0  8 03 25 29 23 15 11 21 31
  23774284.918   -11304580.201 8  -8513509.56645  23774284.734    23774294.9064
  22654889.979   -16897417.571 8 -13156753.50646  22654889.907    22654896.9674
  20685392.415   -25127812.456 9 -19278181.49347  20685392.381    20685397.0844
  23730344.358    -9337933.142 8  -7228251.87545  23730343.975    23730351.3674
  19957853.856   -28589886.716 9 -22267935.77948  19957853.216    19957858.8164
  23266282.364   -13750754.296 8 -10416920.42345  23266281.978    23266289.3734
  21091834.359   -24743867.220 9 -16859521.50247  21091833.977    21091839.7134
  23286401.457   -12636190.511 8  -9832145.96346  23286401.040    23286409.1594
 00  5  6  3  2  0.0000000  0  8 03 25 29 23 15 11 21 31
  23790267.699   -11220590.607 8  -8448063.28845  23790267.510    23790277.8024
  22637673.257   -16987891.281 8 -13227252.33146  22637673.205    22637680.2174
  20693678.565   -25084268.413 9 -19244251.05847  20693678.534    20693683.2234
  23741398.015    -9279845.815 8  -7182989.02645  23741397.543    23741404.9894
  19953914.579   -28610587.495 9 -22284066.22748  19953913.953    19953919.5454
  23248491.212   -13844246.545 8 -10489771.36245  23248490.845    23248498.2504
  21094407.279   -24730346.440 9 -16848985.81547  21094406.896    21094412.6254
  23296761.995   -12581745.626 8  -9789721.41246  23296761.528    23296769.6874
 00  5  6  3  2 30.0000000  0  8 03 25 29 23 15 11 21 31
  23806265.897   -11136520.010 8  -8382553.88845  23806265.645    23806276.0324
  22620497.284   -17078150.944 8 -13297584.36546  22620497.245    22620504.2354
  20702020.149   -25040433.078 9 -19210093.63947  20702020.110    20702024.7904
  23752471.548    -9221654.104 8  -7137644.84245  23752471.047    23752478.5094
  19950080.257   -28630736.882 9 -22299767.01848  19950079.627    19950085.2184
  23230740.911   -13937524.360 8 -10562455.20845  23230740.533    23230747.8894
  21097017.677   -24716628.574 9 -16838296.55047  21097017.299    21097023.0114
  23307190.309   -12526944.474 8  -9747019.23946  23307189.888    23307197.9974
 00  5  6  3  3  0.0000000  0  8 03 25 29 23 15 11 21 31
  23822278.762   -11052372.365 8  -8316984.45745  23822278.469    23822288.9294
  22603362.446   -17168194.416 8 -13367747.94046  22603362.398    22603369.3614
  20710416.672   -24996308.876 9 -19175711.12847  20710416.647    20710421.3274
  23763564.862    -9163358.368 7  -7092219.59245  23763564.387    23763571.8184
  19946350.994   -28650334.174 9 -22315037.60648  19946350.369    19946355.9384
  23213031.769   -14030585.837 8 -10634970.48845  23213031.353    23213038.6574
  21099665.669   -24702713.275 9 -16827453.43947  21099665.276    21099670.9924
  23317685.800   -12471790.434 8  -9704042.09446  23317685.342    23317693.5364
 00  5  6  3  3 30.0000000  0  8 03 25 29 23 15 11 21 31
  23838305.943   -10968149.514 8  -8251356.41645  23838305.625    23838316.1784
  22586269.488   -17258017.769 8 -13437739.99546  22586269.412    22586276.3804
  20718868.061   -24951896.413 9 -19141103.99847  20718868.046    20718872.7134
  23774678.263    -9104956.818 8  -7046711.89745  23774677.803    23774685.2924
  19942727.290   -28669376.706 9 -22329875.92248  19942726.668    19942732.2324
  23195364.550   -14123427.171 8 -10707314.24345  23195364.173    23195371.3284
  21102351.706   -24688598.062 9 -16816454.55547  21102351.326    21102357.0394
  23328248.133   -12416284.951 8  -9660791.10146  23328247.710    23328255.9224
 00  5  6  3  4  0.0000000  0  8 03 25 29 23 15 11 21 31
  23854346.787   -10883854.895 8  -8185672.44345  23854346.549    23854356.9634
  22569218.777   -17347619.214 8 -13507559.13746  22569218.705    22569225.6334
  20727373.878   -24907197.972 9 -19106274.02547  20727373.868    20727378.5434
  23785811.795    -9046449.661 8  -7001121.91045  23785811.316    23785818.9184
  19939209.335   -28687863.509 9 -22344281.19748  19939208.723    19939214.2614
  23177739.507   -14216046.645 8 -10779485.10345  23177739.185    23177746.2734
  21105075.653   -24674283.462 9 -16805300.30147  21105075.261    21105080.9654
  23338876.786   -12360431.251 8  -9617268.78046  23338876.353    23338884.5404
 00  5  6  3  4 30.0000000  0  8 03 25 29 23 15 11 21 31
  23870400.576   -10799492.214 8  -8119935.45345  23870400.396    23870410.8504
  22552210.630   -17436996.802 8 -13577203.85046  22552210.580    22552217.4854
  20735933.579   -24862216.374 9 -19071223.42247  20735933.582    20735938.2384
  23796965.335    -8987837.228 8  -6955449.89245  23796964.914    23796972.4094
  19935797.281   -28705793.905 9 -22358252.91848  19935796.675    19935802.2094
  23160157.137   -14308442.228 8 -10851481.52545  23160156.807    23160163.8244
  21107837.663   -24659768.989 9 -16793990.30847  21107837.278    21107842.9714
  23349570.965   -12304232.896 8  -9573477.88046  23349570.489    23349578.7064
 00  5  6  3  5  0.0000000  0  8 03 25 29 23 15 11 21 31
  23886466.987   -10715063.323 8  -8054146.87845  23886466.763    23886477.3574
  22535245.934   -17526146.291 8 -13646670.82246  22535245.874    22535252.7394
  20744547.087   -24816952.202 9 -19035952.62447  20744547.069    20744551.7334
  23808139.281    -8929117.731 8  -6909694.44645  23808138.808    23808146.3644
  19932491.563   -28723165.499 9 -22371789.20348  19932490.964    19932496.4794
  23142617.965   -14400610.518 8 -10923300.82345  23142617.619    23142624.6344
  21110637.987   -24645053.022 9 -16782523.29647  21110637.580    21110643.2884
  23360330.494   -12247691.333 8  -9529419.56545  23360330.030    23360338.1924
 00  5  6  3  5 30.0000000  0  8 03 25 29 23 15 11 21 31
  23902545.326   -10630571.655 8  -7988309.37745  23902545.172    23902555.7754
  22518324.967   -17615065.817 8 -13715958.60546  22518324.908    22518331.7514
  20753213.948   -24771407.495 9 -19000463.22847  20753213.919    20753218.5904
  23819333.592    -8870291.231 7  -6863855.62745  23819333.109    23819340.7034
  19929292.349   -28739977.266 9 -22384889.25648  19929291.749    19929297.2594
  23125122.501   -14492549.259 8 -10994941.27145  23125122.161    23125129.0584
  21113476.767   -24630135.175 9 -16770898.98247  21113476.355    21113482.0574
  23371154.698   -12190809.897 8  -9485096.40445  23371154.267    23371162.4034
 00  5  6  3  6  0.0000000  0  8 03 25 29 23 15 11 21 31
  23918634.946   -10546020.931 8  -7922425.86145  23918634.724    23918645.3624
  22501448.150   -17703753.475 8 -13785065.72146  22501448.082    22501454.9014
  20761933.598   -24725585.330 9 -18964757.63347  20761933.552    20761938.2304
  23830548.180    -8811358.273 8  -6817933.84945  23830547.715    23830555.1794
  19926199.824   -28756228.574 9 -22397552.59148  19926199.229    19926204.7304
  23107671.020   -14584256.805 8 -11066401.57646  23107670.702    23107677.5894
  21116353.913   -24615015.507 9 -16759117.40747  21116353.503    21116359.2004
  23382042.887   -12133592.203 8  -9440511.22545  23382042.499    23382050.6304
 00  5  6  3  6 30.0000000  0  8 03 25 29 23 15 11 21 31
  23934735.394   -10461413.018 8  -7856497.80045  23934735.207    23934745.7714
  22484616.181   -17792205.372 8 -13853989.13646  22484616.124    22484622.8914
  20770705.938   -24679486.304 9 -18928836.30547  20770705.900    20770710.5524
  23841783.359    -8752317.242 8  -6771927.85545  23841782.917    23841790.3434
  19923214.351   -28771917.321 9 -22409777.56748  19923213.736    19923219.2424
  23090264.231   -14675729.543 8 -11137678.91646  23090263.923    23090270.7614
  21119269.853   -24599692.166 9 -16747177.11847  21119269.454    21119275.1344
  23392994.746   -12076039.966 8  -9395665.37445  23392994.337    23393002.5494
 00  5  6  3  7  0.0000000  0  8 03 25 29 23 15 11 21 31
  23950846.079   -10376751.454 8  -7790527.92945  23950845.994    23950856.5344
  22467829.414   -17880419.758 8 -13922727.46846  22467829.385    22467836.0824
  20779530.493   -24633112.874 9 -18892701.15247  20779530.460    20779535.1094
  23853039.031    -8693168.576 8  -6725837.98845  23853038.614    23853046.0124
  19920336.042   -28787042.863 9 -22421563.67748  19920335.419    19920340.9294
  23072902.424   -14766965.974 8 -11208772.11846  23072902.103    23072908.9264
  21122224.583   -24584164.751 9 -16735077.81447  21122224.179    21122229.8874
  23404009.627   -12018156.568 8  -9350561.46945  23404009.212    23404017.4384
 00  5  6  3  7 30.0000000  0  8 03 25 29 23 15 11 21 31
  23966966.602   -10292038.499 8  -7724518.04245  23966966.494    23966977.0704
  22451088.581   -17968392.900 8 -13991277.83846  22451088.515    22451095.1954
  20788407.051   -24586466.213 9 -18856353.10047  20788407.015    20788411.6564
  23864315.443    -8633910.890 8  -6679663.19245  23864314.978    23864322.4254
  19917565.342   -28801602.973 9 -22432909.19848  19917564.717    19917570.2204
  23055586.235   -14857962.535 8 -11279678.43046  23055585.940    23055592.7224
  21125218.428   -24568431.786 9 -16722818.34147  21125218.036    21125223.7344
  23415087.164   -11959943.915 8  -9305201.00845  23415086.733    23415094.9634
 00  5  6  3  8  0.0000000  0  8 03 25 29 23 15 11 21 31
  23983096.099   -10207278.078 8  -7658471.14145  23983095.968    23983106.4854
  22434393.943   -18056123.169 8 -14059638.95046  22434393.883    22434400.5244
  20797335.117   -24539548.977 9 -18819794.19947  20797335.085    20797339.7244
  23875612.457    -8574544.628 7  -6633403.76945  23875612.028    23875619.4614
  19914902.258   -28815597.365 9 -22443813.89848  19914901.640    19914907.1324
  23038316.048   -14948717.586 8 -11350396.54646  23038315.726    23038322.5394
  21128251.352   -24552493.554 9 -16710398.92247  21128250.956    21128256.6704
  23426226.591   -11901405.949 8  -9259587.04945  23426226.131    23426234.3674
 00  5  6  3  8 30.0000000  0  8 03 25 29 23 15 11 21 31
  23999234.306   -10122472.107 8  -7592388.74945  23999234.086    23999244.7454
  22417746.242   -18143606.793 8 -14127807.86846  22417746.207    22417752.8224
  20806314.474   -24492361.983 9 -18783025.10447  20806314.448    20806319.0814
  23886930.401    -8515068.490 8  -6587058.73645  23886929.943    23886937.3624
  19912347.269   -28829023.759 9 -22454275.99948  19912346.649    19912352.1444
  23021092.511   -15039227.589 8 -11420923.71546  23021092.209    23021098.9454
  21131323.684   -24536348.284 9 -16697818.18047  21131323.299    21131329.0134
  23437427.625   -11842544.233 8  -9213720.83345  23437427.167    23437435.4054
 00  5  6  3  9  0.0000000  0  8 03 25 29 23 15 11 21 31
  24015380.449   -10037624.416 8  -7526273.86345  24015380.288    24015390.8614
  22401145.787   -18230842.251 8 -14195783.39846  22401145.730    22401152.3044
  20815344.677   -24444908.001 9 -18746047.96147  20815344.657    20815349.2944
  23898269.127    -8455483.092 8  -6540628.56245  23898268.662    23898276.1194
  19909900.400   -28841882.024 9 -22464295.39648  19909899.773    19909905.2694
  23003915.851   -15129491.071 8 -11491258.80246  23003915.561    23003922.2844
  21134435.436   -24519995.835 9 -16685075.99047  21134435.045    21134440.7444
  23448689.506   -11783362.749 8  -9167605.44145  23448689.050    23448697.3324
 00  5  6  3  9 30.0000000  0  8 03 25 29 23 15 11 21 31
  24031534.004    -9952737.783 8  -7460128.62745  24031533.775    24031544.4284
  22384593.068   -18317826.785 8 -14263563.41646  22384592.989    22384599.5714
  20824425.292   -24397189.049 9 -18708864.35447  20824425.251    20824429.8894
  23909628.784    -8395787.644 8  -6494112.63445  23909628.369    23909635.7074
  19907561.906   -28854170.815 9 -22473871.04948  19907561.292    19907566.7734
  22986786.609   -15219505.405 8 -11561399.74346  22986786.299    22986793.0184
  21137586.827   -24503435.103 9 -16672171.50647  21137586.443    21137592.1404
  23460011.773   -11723864.034 8  -9121242.85445  23460011.312    23460019.5654
 00  5  6  3 10  0.0000000  0  8 03 25 29 23 15 11 21 31
  24047694.493    -9867814.283 8  -7393954.67245  24047694.308    24047705.0624
  22368088.759   -18404556.885 8 -14331145.17346  22368088.685    22368095.2174
  20833556.187   -24349205.856 9 -18671474.84547  20833556.169    20833560.7684
  23921009.577    -8335981.014 8  -6447510.07045  23921009.290    23921016.5774
  19905332.141   -28865888.267 9 -22483001.50548  19905331.536    19905337.0024
  22969705.411   -15309267.273 8 -11631343.95946  22969705.124    22969711.7944
  21140778.067   -24486664.994 9 -16659103.87447  21140777.694    21140783.3654
  23471394.030   -11664050.139 8  -9074634.67445  23471393.613    23471401.8594
 00  5  6  3 10 30.0000000  0  8 03 25 29 23 15 11 21 31
  24063861.338    -9782857.691 8  -7327754.93045  24063861.115    24063871.9434
  22351633.150   -18491031.215 8 -14398527.62946  22351633.097    22351639.5724
  20842736.822   -24300961.227 9 -18633881.62447  20842736.794    20842741.3824
  23932411.531    -8276063.421 8  -6400821.04545  23932411.117    23932418.4294
  19903211.164   -28877033.949 9 -22491686.42148  19903210.534    19903215.9954
  22952672.630   -15398774.814 8 -11701090.00146  22952672.336    22952678.9904
  21144009.126   -24469685.629 9 -16645873.18447  21144008.737    21144014.3984
  23482835.549   -11603924.676 8  -9027783.70945  23482835.162    23482843.4384
 00  5  6  3 11  0.0000000  0  8 03 25 29 23 15 11 21 31
  24080034.020    -9697870.475 7  -7261531.33345  24080033.789    24080044.8114
  22335226.909   -18577246.067 8 -14465707.90846  22335226.854    22335233.3334
  20851967.028   -24252456.129 9 -18596085.43547  20851966.984    20851971.5934
  23943834.723    -8216034.010 8  -6354044.88845  23943834.298    23943841.5924
  19901199.345   -28887606.036 9 -22499924.38548  19901198.727    19901204.1704
  22935688.797   -15488025.026 8 -11770635.54546  22935688.534    22935695.1034
  21147280.394   -24452494.955 9 -16632477.83247  21147280.013    21147285.6624
  23494335.891   -11543490.198 8  -8980691.96045  23494335.490    23494343.7594
 00  5  6  3 11 30.0000000  0  8 03 25 29 23 15 11 21 31
  24096211.838    -9612855.954 7  -7195286.45945  24096211.630    24096222.8044
  22318870.425   -18663199.352 8 -14532684.36246  22318870.378    22318876.8184
  20861246.323   -24203693.151 9 -18558088.30647  20861246.280    20861250.8804
  23955279.240    -8155893.006 8  -6307181.77145  23955278.775    23955286.0344
  19899296.733   -28897604.124 9 -22507715.07748  19899296.124    19899301.5574
  22918754.323   -15577015.916 8 -11839978.99146  22918754.057    22918760.6184
  21150591.873   -24435092.789 9 -16618917.68347  21150591.490    21150597.1484
  23505894.425   -11482749.921 8  -8933361.91245  23505893.988    23505902.2924
 00  5  6  3 12  0.0000000  0  8 03 25 29 23 15 11 21 31
  24112394.324    -9527817.312 7  -7129022.76445  24112394.057    24112405.2724
  22302564.153   -18748888.878 8 -14599455.29346  22302564.136    22302570.4984
  20870574.256   -24154674.497 9 -18519891.94447  20870574.222    20870578.8104
  23966744.963    -8095640.294 8  -6260231.62045  23966744.488    23966751.7764
  19897503.512   -28907027.448 9 -22515057.90448  19897502.905    19897508.3424
  22901869.583   -15665745.356 8 -11909118.73546  22901869.256    22901875.8494
  21153943.606   -24417479.389 9 -16605192.93847  21153943.210    21153948.8994
  23517510.573   -11421706.714 8  -8885795.83045  23517510.167    23517518.4864
 00  5  6  3 12 30.0000000  0  8 03 25 29 23 15 11 21 31
  24128581.092    -9442756.071 7  -7062741.45345  24128580.941    24128592.0374
  22286308.843   -18834310.544 8 -14666017.49346  22286308.820    22286315.1314
  20879950.740   -24105400.574 9 -18481496.67047  20879950.711    20879955.2954
  23978232.279    -8035274.122 8  -6213193.04845  23978231.785    23978239.1064
  19895820.126   -28915873.646 9 -22521951.01948  19895819.511    19895824.9444
  22885035.361   -15754209.477 8 -11978051.71246  22885035.040    22885041.6024
  21157335.988   -24399652.188 9 -16591301.58747  21157335.581    21157341.2894
  23529184.086   -11360362.220 8  -8837994.95945  23529183.694    23529191.9814
 00  5  6  3 13  0.0000000  0  8 03 25 29 23 15 11 21 31
  24144771.467    -9357676.105 8  -6996445.56845  24144771.252    24144782.5164
  22270104.762   -18919463.181 8 -14732370.07646  22270104.727    22270111.0064
  20889375.266   -24055874.338 9 -18442904.79047  20889375.226    20889379.8174
  23989741.060    -7974795.194 8  -6166066.61745  23989740.538    23989747.8444
  19894246.553   -28924142.736 9 -22528394.44048  19894245.940    19894251.3574
  22868251.899   -15842406.726 8 -12046776.75046  22868251.579    22868258.1174
  21160769.089   -24381610.959 9 -16577243.46447  21160768.685    21160774.3734
  23540914.122   -11298720.775 8  -8789962.69645  23540913.735    23540921.9934
 00  5  6  3 13 30.0000000  0  8 03 25 29 23 15 11 21 31
  24160964.775    -9272580.437 7  -6930137.45245  24160964.542    24160975.8514
  22253952.390   -19004343.977 8 -14798510.82246  22253952.339    22253958.5684
  20898847.450   -24006097.655 9 -18404117.75447  20898847.399    20898851.9954
  24001271.397    -7914202.997 8  -6118851.91945  24001270.846    24001278.1724
  19892783.006   -28931833.663 9 -22534387.34548  19892782.383    19892787.7964
  22851519.709   -15930334.587 8 -12115291.86446  22851519.382    22851525.8984
  21164242.974   -24363355.581 9 -16563018.47847  21164242.570    21164248.2274
  23552700.134   -11236785.053 8  -8741701.12745  23552699.745    23552707.9674
 00  5  6  3 14  0.0000000  0  8 03 25 29 23 15 11 21 31
  24177160.420    -9187472.429 7  -6863819.72045  24177160.169    24177171.5044
  22237852.173   -19088950.663 8 -14864437.98546  22237852.116    22237858.3304
  20908366.940   -23956072.408 9 -18365137.03547  20908366.899    20908371.4824
  24012823.321    -7853497.304 8  -6071548.78745  24012822.779    24012830.1534
  19891429.582   -28938945.810 9 -22539929.25348  19891428.970    19891434.3664
  22834839.208   -16017990.790 8 -12183595.29546  22834838.880    22834845.4054
  21167757.853   -24344884.734 9 -16548625.59347  21167757.427    21167763.0814
  23564541.659   -11174557.681 8  -8693212.29245  23564541.247    23564549.5014
 00  5  6  3 14 30.0000000  0  8 03 25 29 23 15 11 21 31
  24193358.029    -9102354.083 7  -6797493.91445  24193357.856    24193368.9994
  22221804.762   -19173279.834 8 -14930148.89846  22221804.685    22221810.8914
  20917933.562   -23905799.539 9 -18325963.36147  20917933.516    20917938.0894
  24024397.038    -7792676.947 7  -6024156.30345  24024396.466    24024403.9044
  19890186.653   -28945477.238 9 -22545018.64948  19890186.041    19890191.4364
  22818211.009   -16105372.005 8 -12251684.45546  22818210.701    22818217.1954
  21171313.964   -24326197.111 9 -16534063.79247  21171313.545    21171319.1664
  23576438.210   -11112041.050 8  -8644498.06045  23576437.702    23576446.0684
 00  5  6  3 15  0.0000000  0  8 03 25 29 23 15 11 21 31
  24209557.031    -9017228.354 7  -6731162.34945  24209556.853    24209568.1564
  22205810.566   -19257329.312 8 -14995641.87346  22205810.497    22205816.6524
  20927546.799   -23855281.520 9 -18286598.66547  20927546.761    20927551.3164
  24035992.553    -7731741.970 7  -5976674.51145  24035992.058    24035999.5174
  19889054.307   -28951427.795 9 -22549655.42448  19889053.695    19889059.0814
  22801635.557   -16192476.318 8 -12319557.85446  22801635.226    22801641.6534
  21174911.372   -24307292.600 9 -16519332.99047  21174910.954    21174916.5704
  23588389.044   -11049239.012 8  -8595561.43345  23588388.539    23588396.8624
 00  5  6  3 15 30.0000000  0  8 03 25 29 23 15 11 21 31
  24225757.059    -8932097.494 7  -6664826.83145  24225756.767    24225768.3234
  22189870.206   -19341095.977 8 -15060914.47446  22189870.153    22189876.2704
  20937206.481   -23804519.501 9 -18247043.83547  20937206.443    20937211.0194
  24047610.100    -7670691.321 8  -5929102.59045  24047609.596    24047617.0574
  19888032.872   -28956795.356 9 -22553837.91348  19888032.262    19888037.6434
  22785113.425   -16279300.280 8 -12387212.77746  22785113.064    22785119.4814
  21178550.442   -24288169.016 9 -16504431.47847  21178550.025    21178555.6524
  23600393.867   -10986153.326 8  -8546403.78345  23600393.427    23600401.7214
 00  5  6  3 16  0.0000000  0  8 03 25 29 23 15 11 21 31
  24241957.311    -8846965.341 7  -6598490.27245  24241956.983    24241968.4934
  22173984.082   -19424577.620 8 -15125964.97947  22173984.040    22173990.1394
  20946912.160   -23753515.701 9 -18207300.60447  20946912.115    20946916.6964
  24059249.635    -7609525.196 8  -5881440.68745  24059249.109    24059256.6424
  19887122.399   -28961579.828 9 -22557566.04948  19887121.782    19887127.1624
  22768645.007   -16365842.020 8 -12454647.78546  22768644.686    22768651.0654
  21182231.100   -24268826.850 9 -16489359.63947  21182230.707    21182236.3104
  23612451.951   -10922787.600 8  -8497027.91445  23612451.519    23612459.8934
 00  5  6  3 16 30.0000000  0  8 03 25 29 23 15 11 21 31
  24258157.238    -8761835.054 7  -6532155.15245  24258156.987    24258168.4724
  22158152.565   -19507772.385 8 -15190791.94147  22158152.520    22158158.5684
  20956663.376   -23702272.663 9 -18167370.95347  20956663.334    20956667.9134
  24070911.127    -7548243.584 7  -5833688.79945  24070910.635    24070918.0404
  19886322.944   -28965780.843 9 -22560839.54248  19886322.316    19886327.6854
  22752230.642   -16452099.584 8 -12521861.36946  22752230.319    22752236.6574
  21185953.513   -24249265.311 9 -16474116.86547  21185953.140    21185958.7394
  23624562.719   -10859145.239 8  -8447436.48845  23624562.266    23624570.6844
 00  5  6  3 17  0.0000000  0  8 03 25 29 23 15 11 21 31
  24274356.127    -8676709.680 7  -6465823.89545  24274355.873    24274367.4544
  22142376.126   -19590677.585 8 -15255393.27547  22142376.072    22142382.0884
  20966459.801   -23650792.130 9 -18127256.24247  20966459.762    20966464.3414
  24082594.617    -7486846.398 7  -5785846.84245  24082594.177    24082601.5074
  19885634.670   -28969397.819 9 -22563657.94248  19885634.042    19885639.4044
  22735870.864   -16538070.449 8 -12588851.54846  22735870.544    22735876.8894
  21189717.805   -24229483.826 9 -16458702.70047  21189717.424    21189723.0364
  23636725.536   -10795229.277 8  -8397631.87445  23636725.066    23636733.5054
 00  5  6  3 17 30.0000000  0  8 03 25 29 23 15 11 21 31
  24290553.997    -8591589.850 7  -6399496.92645  24290553.680    24290565.4814
  22126655.583   -19673289.067 8 -15319765.73147  22126655.505    22126661.5584
  20976301.425   -23599074.022 9 -18086956.40547  20976301.389    20976305.9764
  24094300.581    -7425331.185 7  -5737912.93245  24094300.253    24094307.5444
  19885058.072   -28972427.684 9 -22566018.85048  19885057.441    19885062.7984
  22719566.476   -16623750.205 8 -12655614.89946  22719566.152    22719572.4674
  21193524.492   -24209479.391 9 -16443114.81247  21193524.119    21193529.7314
  23648940.194   -10731040.719 8  -8347614.81945  23648939.730    23648948.2064
 00  5  6  3 18  0.0000000  0  8 03 25 29 23 15 11 21 31
  24306749.901    -8506480.960 7  -6333178.51045  24306749.707    24306761.3714
  22110991.045   -19755606.304 8 -15383908.90647  22110990.970    22110996.9954
  20986187.442   -23547122.506 9 -18046474.69047  20986187.405    20986191.9704
  24106028.587    -7363699.996 7  -5689888.66145  24106028.254    24106035.6384
  19884592.864   -28974872.225 9 -22567923.65648  19884592.233    19884597.5744
  22703317.524   -16709138.594 8 -12722151.19246  22703317.210    22703323.4734
  21197373.239   -24189254.038 9 -16427354.77847  21197372.854    21197378.4674
  23661205.821   -10666584.603 8  -8297389.30345  23661205.357    23661213.8354
 00  5  6  3 18 30.0000000  0  8 03 25 29 23 15 11 21 31
  24322943.454    -8421383.672 7  -6266869.10945  24322943.256    24322955.1354
  22095383.227   -19837625.490 8 -15447819.83947  22095383.155    22095389.1354
  20996117.870   -23494937.742 9 -18005811.23147  20996117.830    20996122.4104
  24117779.121    -7301950.745 7  -5641772.37445  24117778.700    24117786.1744
  19884239.496   -28976729.058 9 -22569370.51448  19884238.878    19884244.2214
  22687124.812   -16794231.528 8 -12788457.28346  22687124.501    22687130.7184
  21201264.545   -24168805.065 9 -16411420.49847  21201264.170    21201269.7684
  23673522.108   -10601862.109 8  -8246956.23445  23673521.682    23673530.1154
 00  5  6  3 19  0.0000000  0  8 03 25 29 23 15 11 21 31
  24339134.081    -8336301.733 7  -6200571.68745  24339134.038    24339145.8134
  22079832.517   -19919344.462 8 -15511496.83947  22079832.460    22079838.4094
  21006092.252   -23442522.019 9 -17964967.79547  21006092.225    21006096.7884
  24129552.066    -7240083.639 7  -5593564.25345  24129551.629    24129559.0954
  19883998.032   -28977997.882 9 -22570359.18048  19883997.405    19884002.7374
  22670988.687   -16879027.073 8 -12854531.63646  22670988.321    22670994.5334
  21205198.382   -24148132.554 9 -16395312.03147  21205197.987    21205203.5974
  23685888.425   -10536876.911 8  -8196318.44645  23685888.051    23685896.3484
 00  5  6  3 19 30.0000000  0  8 03 25 29 23 15 11 21 31
  24355321.235    -8251238.700 7  -6134288.97745  24355321.031    24355333.0244
  22064339.269   -20000761.523 8 -15574938.58247  22064339.196    22064345.1194
  21016110.109   -23389877.617 9 -17923946.17447  21016110.070    21016114.6494
  24141347.448    -7178098.625 7  -5545264.26445  24141347.013    24141354.4834
  19883868.483   -28978678.525 9 -22570889.52548  19883867.845    19883873.1804
  22654909.527   -16963523.214 8 -12920372.68746  22654909.193    22654915.3524
  21209174.928   -24127235.565 9 -16379028.64447  21209174.544    21209180.1254
  23698304.008   -10471632.812 8  -8145478.92345  23698303.566    23698311.9214
 00  5  6  3 20  0.0000000  0  8 03 25 29 23 15 11 21 31
  24371504.110    -8166198.111 7  -6068023.77645  24371503.958    24371515.9714
  22048903.850   -20081874.512 8 -15638143.38847  22048903.792    22048909.6784
  21026171.070   -23337006.995 9 -17882748.27747  21026171.035    21026175.6114
  24153165.157    -7115996.157 7  -5496872.74745  24153164.722    24153172.1344
  19883850.874   -28978770.943 9 -22570961.51448  19883850.227    19883855.5644
  22638887.695   -17047718.157 8 -12985979.04746  22638887.375    22638893.5414
  21213194.161   -24106114.360 9 -16362570.54747  21213193.762    21213199.3394
  23710768.207   -10406133.378 8  -8094440.44645  23710767.717    23710776.2344
 00  5  6  3 20 30.0000000  0  8 03 25 29 23 15 11 21 31
  24387682.624    -8081180.118 7  -6001776.20945  24387682.319    24387694.5724
  22033527.254   -20162678.659 8 -15701107.54847  22033527.196    22033533.0434
  21036275.115   -23283909.673 9 -17841373.72347  21036275.090    21036279.6544
  24165005.744    -7053773.452 7  -5448387.55045  24165005.325    24165012.7054
  19883945.780   -28978272.085 9 -22570572.76648  19883945.141    19883950.4664
  22622924.124   -17131606.865 8 -13051346.78446  22622923.826    22622929.9954
  21217256.754   -24084765.249 9 -16345934.85547  21217256.349    21217261.9264
  23723280.880   -10340379.024 8  -8043203.33145  23723280.464    23723288.8744
 00  5  6  3 21  0.0000000  0  8 03 25 29 23 15 11 21 31
  24403855.945    -7996189.138 7  -5935549.69045  24403855.732    24403868.1154
  22018209.594   -20243173.080 8 -15763830.35547  22018209.521    22018215.3454
  21046421.693   -23230589.106 9 -17799825.22347  21046421.655    21046426.2264
  24176868.936    -6991431.983 7  -5399809.78845  24176868.413    24176875.9414
  19884153.034   -28977182.938 9 -22569724.05248  19884152.398    19884157.7134
  22607018.976   -17215188.612 8 -13116475.33446  22607018.677    22607024.8174
  21221362.414   -24063189.771 9 -16329122.77347  21221362.007    21221367.5804
  23735841.192   -10274374.341 8  -7991771.15145  23735840.769    23735849.2164
 00  5  6  3 21 30.0000000  0  8 03 25 29 23 15 11 21 31
  24420023.871    -7911227.005 7  -5869345.59445  24420023.699    24420036.0244
  22002951.476   -20323354.481 8 -15826309.26247  22002951.404    22002957.1964
  21056610.571   -23177046.128 9 -17758103.41347  21056610.552    21056615.1014
  24188754.942    -6928970.329 7  -5351138.37145  24188754.503    24188761.9714
  19884472.899   -28975502.016 9 -22568414.21448  19884472.256    19884477.5524
  22591172.960   -17298459.692 8 -13181361.81646  22591172.666    22591178.7664
  21225511.513   -24041386.001 9 -16312132.80047  21225511.105    21225516.6544
  23748448.689   -10208121.492 8  -7940145.62345  23748448.262    23748456.7414
 00  5  6  3 22  0.0000000  0  8 03 25 29 23 15 11 21 31
  24436185.545    -7826297.702 7  -5803167.09045  24436185.311    24436197.6154
  21987753.257   -20403221.146 8 -15888542.91447  21987753.195    21987758.9564
  21066841.240   -23123283.515 9 -17716210.45947  21066841.229    21066845.7704
  24200663.698    -6866389.119 7  -5302373.80445  24200663.280    24200670.7394
  19884905.278   -28973229.705 9 -22566643.55648  19884904.647    19884909.9384
  22575386.287   -17381418.876 8 -13246005.25546  22575386.005    22575392.0494
  21229704.092   -24019353.806 9 -16294964.83347  21229703.692    21229709.2494
  23761102.665   -10141624.516 8  -7888329.84945  23761102.242    23761110.6674
 00  5  6  3 22 30.0000000  0  8 03 25 29 23 15 11 21 31
  24452340.416    -7741403.746 7  -5737016.18545  24452340.267    24452352.6194
  21972615.411   -20482770.591 8 -15950529.39347  21972615.365    21972621.0964
  21077113.366   -23069302.962 9 -17674147.68847  21077113.368    21077117.9254
  24212595.401    -6803687.695 7  -5253515.56545  24212594.860    24212602.4954
  19885450.379   -28970365.102 9 -22564411.37248  19885449.740    19885455.0334
  22559659.489   -17464063.315 8 -13310403.44646  22559659.203    22559665.2104
  21233940.297   -23997092.206 9 -16277618.11647  21233939.919    21233945.4684
  23773802.617   -10074885.980 8  -7836325.86045  23773802.199    23773810.6334
 00  5  6  3 23  0.0000000  0  8 03 25 29 23 15 11 21 31
  24468488.226    -7656547.032 7  -5670894.32145  24468487.968    24468500.5064
  21957538.574   -20561999.506 8 -16012266.10747  21957538.522    21957544.2304
  21087426.884   -23015105.100 9 -17631915.58247  21087426.878    21087431.4444
  24224550.163    -6740864.997 7  -5204562.82945  24224549.673    24224557.2034
  19886108.442   -28966906.812 9 -22561716.58248  19886107.814    19886113.0904
  22543993.268   -17546389.606 8 -13374553.73546  22543992.989    22543999.0024
  21238220.435   -23974599.832 9 -16260091.57447  21238220.066    21238225.5994
  23786548.181   -10007907.802 8  -7784135.12045  23786547.756    23786556.1954
 00  5  6  3 23 30.0000000  0  8 03 25 29 23 15 11 21 31
  24484628.257    -7571731.718 7  -5604804.68545  24484628.024    24484640.5784
  21942522.939   -20640906.753 8 -16073752.17447  21942522.888    21942528.5574
  21097781.098   -22960693.196 9 -17589516.69147  21097781.100    21097785.6474
  24236527.835    -6677921.845 7  -5155516.22045  24236527.401    24236534.8604
  19886879.307   -28962855.731 9 -22558559.87648  19886878.670    19886883.9444
  22528387.773   -17628396.687 8 -13438455.28146  22528387.462    22528393.4534
  21242544.503   -23951876.614 9 -16242385.15647  21242544.123    21242549.6394
  23799338.434    -9940694.638 8  -7731761.29845  23799338.121    23799346.4504
 00  5  6  3 24  0.0000000  0  8 03 25 29 23 15 11 21 31
  24500760.165    -7486958.839 7  -5538748.09245  24500760.057    24500772.4944
  21927569.303   -20719488.342 8 -16134984.48147  21927569.240    21927574.8854
  21108176.058   -22906067.384 9 -17546951.11547  21108176.034    21108180.5934
  24248528.823    -6614856.427 7  -5106374.35545  24248528.383    24248535.8094
  19887763.342   -28958209.883 9 -22554939.71448  19887762.718    19887767.9764
  22512843.805   -17710080.534 8 -13502104.95546  22512843.503    22512849.4614
  21246912.880   -23928920.598 9 -16224497.33647  21246912.508    21246918.0074
  23812173.159    -9873247.925 8  -7679205.47345  23812172.776    23812181.1814
 00  5  6  3 24 30.0000000  0  8 03 25 29 23 15 11 21 31
  24516883.264    -7402232.191 7  -5472727.55045  24516883.054    24516895.6144
  21912677.877   -20797742.790 8 -16195961.87847  21912677.829    21912683.4304
  21118611.138   -22851230.569 9 -17504221.12447  21118611.120    21118615.6714
  24260552.945    -6551669.526 7  -5057137.82745  24260552.589    24260559.8894
  19888760.503   -28952969.751 9 -22550856.47348  19888759.878    19888765.1264
  22497361.629   -17791439.484 8 -13565501.47146  22497361.331    22497367.2634
  21251325.545   -23905731.936 9 -16206428.23947  21251325.144    21251330.6624
  23825051.521    -9805571.640 8  -7626470.77045  23825051.090    23825059.6174
 00  5  6  3 25  0.0000000  0  8 03 25 29 23 15 11 21 31
  24532997.072    -7317554.211 7  -5406744.97245  24532996.969    24533009.4704
  21897849.271   -20875667.354 8 -16256682.22247  21897849.235    21897854.8064
  21129086.139   -22796184.014 9 -17461327.70247  21129086.118    21129090.6624
  24272600.302    -6488360.221 7  -5007805.93045  24272599.939    24272607.2764
  19889870.939   -28947134.340 9 -22546309.37948  19889870.309    19889875.5474
  22481941.899   -17872470.648 8 -13628642.57246  22481941.576    22481947.4764
  21255782.674   -23882309.501 9 -16188176.97847  21255782.278    21255787.7964
  23837973.127    -9737668.342 8  -7573559.17745  23837972.725    23837981.3114
 00  5  6  3 25 30.0000000  0  8 03 25 29 23 15 11 21 31
  24549101.072    -7232928.293 7  -5340802.93445  24549100.941    24549113.3704
  21883083.736   -20953260.517 9 -16317144.33147  21883083.677    21883089.2274
  21139600.587   -22740930.255 9 -17418272.82147  21139600.549    21139605.1364
  24284670.922    -6424928.969 7  -4958379.00845  24284670.513    24284677.8264
  19891094.627   -28940703.880 9 -22541298.60948  19891093.972    19891099.1984
  22466584.792   -17953172.489 8 -13691527.04446  22466584.488    22466590.3564
  21260284.215   -23858653.501 9 -16169743.71947  21260283.822    21260289.3584
  23850937.237    -9669541.780 8  -7520473.60945  23850936.820    23850945.3934
 00  5  6  3 26  0.0000000  0  8 03 25 29 23 15 11 21 31
  24565194.850    -7148356.116 7  -5274902.74845  24565194.909    24565207.2274
  21868381.908   -21030518.812 9 -16377345.50547  21868381.844    21868387.3504
  21150154.302   -22685470.012 9 -17375057.04847  21150154.263    21150158.8524
  24296764.914    -6361374.336 7  -4908855.94245  24296764.500    24296771.8604
  19892431.761   -28933677.014 9 -22535823.11348  19892431.117    19892436.3394
  22451291.040   -18033541.262 8 -13754151.97646  22451290.745    22451296.5844
  21264830.652   -23834761.837 9 -16151126.83047  21264830.274    21264835.7794
  23863943.470    -9601193.918 8  -7467215.59945  23863943.066    23863951.6604
 00  5  6  3 26 30.0000000  0  8 03 25 29 23 15 11 21 31
  24581277.641    -7063840.919 7  -5209046.99345  24581277.596    24581290.0614
  21853744.263   -21107439.902 9 -16437283.92247  21853744.208    21853749.6674
  21160746.944   -22629805.356 9 -17331681.98947  21160746.920    21160751.4964
  24308882.383    -6297696.763 7  -4859237.07945  24308881.911    24308889.3684
  19893882.324   -28926054.155 9 -22529883.20748  19893881.692    19893886.9114
  22436061.000   -18113575.299 8 -13816516.08746  22436060.688    22436066.5474
  21269422.004   -23810634.008 9 -16132325.92547  21269421.606    21269427.1174
  23876991.130    -9532628.226 8  -7413787.84845  23876990.723    23876999.3314
 00  5  6  3 27  0.0000000  0  8 03 25 29 23 15 11 21 31
  24597349.118    -6979385.524 7  -5143237.82845  24597349.069    24597361.4304
  21839171.200   -21184021.473 9 -16496957.78047  21839171.127    21839176.5794
  21171378.104   -22573938.176 9 -17288149.11947  21171378.070    21171382.6424
  24321023.394    -6233895.448 7  -4809521.80745  24321022.996    24321030.4674
  19895446.389   -28917834.753 9 -22523478.46148  19895445.770    19895450.9764
  22420895.222   -18193271.646 8 -13878617.04346  22420894.947    22420900.7534
  21274058.553   -23786268.760 9 -16113340.00747  21274058.156    21274063.6644
  23890079.707    -9463847.432 8  -7360192.48545  23890079.342    23890087.9544
 00  5  6  3 27 30.0000000  0  8 03 25 29 23 15 11 21 31
  24613408.773    -6894992.865 7  -5077477.52045  24613408.582    24613421.0414
  21824663.124   -21260261.648 9 -16556365.62347  21824663.050    21824668.4694
  21182047.460   -22517870.312 9 -17244459.87647  21182047.444    21182051.9954
  24333187.905    -6169970.639 7  -4759710.29245  24333187.485    24333194.9174
  19897124.026   -28909018.658 9 -22516608.76548  19897123.408    19897128.6184
  22405794.074   -18272628.314 8 -13940453.32946  22405793.812    22405799.5964
  21278740.340   -23761665.760 9 -16094168.83247  21278739.955    21278745.4664
  23903208.529    -9394855.151 7  -7306432.32745  23903208.203    23903216.7364
 00  5  6  3 28  0.0000000  0  8 03 25 29 23 15 11 21 31
  24629456.040    -6810664.951 7  -5011767.67845  24629455.822    24629468.3084
  21810220.489   -21336157.670 9 -16615505.28647  21810220.419    21810225.8124
  21192754.752   -22461603.108 9 -17200615.30247  21192754.721    21192759.2664
  24345376.060    -6105921.289 7  -4709801.73645  24345375.718    24345383.2474
  19898915.343   -28899605.053 9 -22509273.47248  19898914.738    19898919.9294
  22390758.155   -18351642.205 8 -14002022.50046  22390757.881    22390763.6894
  21283467.659   -23736823.543 9 -16074811.25247  21283467.272    21283472.7674
  23916377.157    -9325653.879 8  -7252509.32345  23916376.727    23916385.4134
 00  5  6  3 28 30.0000000  0  8 03 25 29 23 15 11 21 31
  24645490.312    -6726405.184 7  -4946110.94745  24645490.112    24645502.7204
  21795843.781   -21411707.343 9 -16674375.06747  21795843.731    21795849.0904
  21203499.559   -22405138.684 9 -17156617.05247  21203499.543    21203504.0734
  24357587.870    -6041747.667 7  -4659796.33545  24357587.503    24357595.1504
  19900820.344   -28889594.195 9 -22501472.79048  19900819.739    19900824.9244
  22375787.831   -18430311.417 8 -14063323.09046  22375787.565    22375793.3574
  21288240.436   -23711742.377 9 -16055267.47047  21288240.028    21288245.5264
  23929584.887    -9256246.975 7  -7198426.06945  23929584.343    23929593.1714
